[[{"header":{"parameterUnit":"m.s-1","parameterCategory":1,"la1":31.0,"la2":29.5877,"lo1":-88.7671,"lo2":-86.6584,"dy":0.0162,"dx":0.0185,"nx":115,"ny":88,"refTime":"2024-02-27T18:00:00:Z","depth":0,"parameterNumber":2,"parameterNumberName":"U-component_of_WINDS"},"data":[0.0,0.0,0.0,0.0,0.0,0.0,0.0,0.0,0.0,0.0,0.0,0.0,0.0,0.0,0.0,0.0,0.0,0.0,0.0,0.0,0.0,0.0,0.0,0.0,0.0,0.0,0.0,0.0,0.0,0.0,0.0,0.0,0.0,0.0,0.0,0.0,0.0,0.0,0.0,0.0,0.0,0.0,0.0,0.0,0.0,0.0,0.0,0.0,0.0,0.0,0.0,0.0,0.0,0.0,0.0,0.0,0.0,0.0,0.0,0.0,0.0,0.0,0.0,0.0,0.0,0.0,0.0,0.0,0.0,0.0,0.0,0.0,0.0,0.0,0.0,0.0,0.0,0.0,0.0,0.0,0.0,0.0,0.0,0.0,0.0,0.0,0.0,0.0,0.0,0.0,0.0,0.0,0.0,0.0,0.0,0.0,0.0,0.0,0.0,0.0,0.0,0.0,0.0,0.0,0.0,0.0,0.0,0.0,0.0,0.0,0.0,0.0,0.0,0.0,0.0,0.0,0.0,0.0,0.0,0.0,0.0,0.0,0.0,0.0,0.0,0.0,0.0,0.0,0.0,0.0,0.0,0.0,0.0,0.0,0.0,0.0,0.0,0.0,0.0,0.0,0.0,0.0,0.0,0.0,0.0,0.0,0.0,0.0,0.0,0.0,0.0,0.0,0.0,0.0,0.0,0.0,0.0,0.0,0.0,0.0,0.0,0.0,0.0,0.0,0.0,0.0,0.0,0.0,0.0,0.0,0.0,0.0,0.0,0.0,0.0,0.0,0.0,0.0,0.0,0.0,0.0,0.0,0.0,0.0,0.0,0.0,0.0,0.0,0.0,0.0,0.0,0.0,0.0,0.0,0.0,0.0,0.0,0.0,0.0,0.0,0.0,0.0,0.0,0.0,0.0,0.0,0.0,0.0,0.0,0.0,0.0,0.0,0.0,0.0,0.0,0.0,0.0,0.0,0.0,0.0,0.0,0.0,0.0,0.0,0.0,0.0,0.0,0.0,0.0,0.0,0.0,0.0,0.0,0.0,0.0,0.0,0.0,0.0,0.0,0.0,0.0,0.0,0.0,0.0,0.0,0.0,0.0,0.0,0.0,0.0,0.0,0.0,0.0,0.0,0.0,0.0,0.0,0.0,0.0,0.0,0.0,0.0,0.0,0.0,0.0,0.0,0.0,0.0,0.0,0.0,0.0,0.0,0.0,0.0,0.0,0.0,0.0,0.0,0.0,0.0,0.0,0.0,0.0,0.0,0.0,0.0,0.0,0.0,0.0,0.0,0.0,0.0,0.0,0.0,0.0,0.0,0.0,0.0,0.0,0.0,0.0,0.0,0.0,0.0,0.0,0.0,0.0,0.0,0.0,0.0,0.0,0.0,0.0,0.0,0.0,0.0,0.0,0.0,0.0,0.0,0.0,0.0,0.0,0.0,0.0,0.0,0.0,0.0,0.0,0.0,0.0,0.0,0.0,0.0,0.0,0.0,0.0,0.0,0.0,0.0,0.0,0.0,0.0,0.0,0.0,0.0,0.0,0.0,0.0,0.0,0.0,0.0,0.0,0.0,0.0,0.0,0.0,0.0,0.0,0.0,0.0,0.0,0.0,0.0,0.0,0.0,0.0,0.0,0.0,0.0,0.0,0.0,0.0,0.0,0.0,0.0,0.0,0.0,0.0,0.0,0.0,0.0,0.0,0.0,0.0,0.0,0.0,0.0,0.0,0.0,0.0,0.0,0.0,0.0,0.0,0.0,0.0,0.0,0.0,0.0,0.0,0.0,0.0,0.0,0.0,0.0,0.0,0.0,0.0,0.0,0.0,0.0,0.0,0.0,0.0,0.0,0.0,0.0,0.0,0.0,0.0,0.0,0.0,0.0,0.0,0.0,0.0,0.0,0.0,0.0,0.0,0.0,0.0,0.0,0.0,0.0,0.0,0.0,0.0,0.0,0.0,0.0,0.0,0.0,0.0,0.0,0.0,0.0,0.0,0.0,0.0,0.0,0.0,0.0,0.0,0.0,0.0,0.0,0.0,0.0,0.0,0.0,0.0,0.0,0.0,0.0,0.0,0.0,0.0,0.0,0.0,0.0,0.0,0.0,0.0,0.0,0.0,0.0,0.0,0.0,0.0,0.0,0.0,0.0,0.0,0.0,0.0,0.0,0.0,0.0,0.0,0.0,0.0,0.0,0.0,0.0,0.0,0.0,0.0,0.0,0.0,0.0,0.0,0.0,0.0,0.0,0.0,0.0,0.0,0.0,0.0,0.0,0.0,0.0,0.0,0.0,0.0,0.0,0.0,0.0,0.0,0.0,0.0,0.0,0.0,0.0,0.0,0.0,0.0,0.0,0.0,0.0,0.0,0.0,0.0,0.0,0.0,0.0,0.0,0.0,0.0,0.0,0.0,0.0,0.0,0.0,0.0,0.0,0.0,0.0,0.0,0.0,0.0,0.0,0.0,0.0,0.0,0.0,0.0,0.0,0.0,0.0,0.0,0.0,0.0,0.0,0.0,0.0,0.0,0.0,0.0,0.0,0.0,0.0,0.0,0.0,0.0,0.0,0.0,0.0,0.0,0.0,0.0,0.0,0.0,0.0,0.0,0.0,0.0,0.0,0.0,0.0,0.0,0.0,0.0,0.0,0.0,0.0,0.0,0.0,0.0,0.0,0.0,0.0,0.0,0.0,0.0,0.0,0.0,0.0,0.0,0.0,0.0,0.0,0.0,0.0,0.0,0.0,0.0,0.0,0.0,0.0,0.0,0.0,0.0,0.0,0.0,0.0,0.0,0.0,0.0,0.0,0.0,0.0,0.0,0.0,0.0,0.0,0.0,0.0,0.0,0.0,0.0,0.0,0.0,0.0,0.0,0.0,0.0,0.0,0.0,0.0,0.0,0.0,0.0,0.0,0.0,0.0,0.0,0.0,0.0,0.0,0.0,0.0,0.0,0.0,0.0,0.0,0.0,0.0,0.0,0.0,0.0,0.0,0.0,0.0,0.0,0.0,0.0,0.0,0.0,0.0,0.0,0.0,0.0,0.0,0.0,0.0,0.0,0.0,0.0,0.0,0.0,0.0,0.0,0.0,0.0,0.0,0.0,0.0,0.0,0.0,0.0,0.0,0.0,0.0,0.0,0.0,0.0,0.0,0.0,0.0,0.0,0.0,0.0,0.0,0.0,0.0,0.0,0.0,0.0,0.0,0.0,0.0,0.0,0.0,0.0,0.0,0.0,0.0,0.0,0.0,0.0,0.0,0.0,0.0,0.0,0.0,0.0,0.0,0.0,0.0,0.0,0.0,0.0,0.0,0.0,0.0,0.0,0.0,0.0,0.0,0.0,0.0,0.0,0.0,0.0,0.0,0.0,0.0,0.0,0.0,0.0,0.0,0.0,0.0,0.0,0.0,0.0,0.0,0.0,0.0,0.0,0.0,0.0,0.0,0.0,0.0,0.0,0.0,0.0,0.0,0.0,0.0,0.0,0.0,0.0,0.0,0.0,0.0,0.0,0.0,0.0,0.0,0.0,0.0,0.0,0.0,0.0,0.0,0.0,0.0,0.0,0.0,0.0,0.0,0.0,0.0,0.0,0.0,0.0,0.0,0.0,0.0,0.0,0.0,0.0,0.0,0.0,0.0,0.0,0.0,0.0,0.0,0.0,0.0,0.0,0.0,0.0,0.0,0.0,0.0,0.0,0.0,0.0,0.0,0.0,0.0,0.0,0.0,0.0,0.0,0.0,0.0,0.0,0.0,0.0,0.0,0.0,0.0,0.0,0.0,0.0,0.0,0.0,0.0,0.0,0.0,0.0,0.0,0.0,0.0,0.0,0.0,0.0,0.0,0.0,0.0,0.0,0.0,0.0,0.0,0.0,0.0,0.0,0.0,0.0,0.0,0.0,0.0,0.0,0.0,0.0,0.0,0.0,0.0,0.0,0.0,0.0,0.0,0.0,0.0,0.0,0.0,0.0,0.0,0.0,0.0,0.0,0.0,0.0,0.0,0.0,0.0,0.0,0.0,0.0,0.0,0.0,0.0,0.0,0.0,0.0,0.0,0.0,0.0,0.0,0.0,0.0,0.0,0.0,0.0,0.0,0.0,0.0,0.0,0.0,0.0,0.0,0.0,0.0,0.0,0.0,0.0,0.0,0.0,0.0,0.0,0.0,0.0,0.0,0.0,0.0,0.0,0.0,0.0,0.0,0.0,0.0,0.0,0.0,0.0,0.0,0.0,0.0,0.0,0.0,0.0,0.0,0.0,0.0,0.0,0.0,0.0,0.0,0.0,-1.1083,0.0,0.0,0.0,0.0,0.0,0.0,0.0,0.0,0.0,0.0,0.0,0.0,0.0,0.0,0.0,0.0,0.0,0.0,0.0,0.0,0.0,0.0,0.0,0.0,0.0,0.0,0.0,0.0,0.0,0.0,0.0,0.0,0.0,0.0,0.0,0.0,0.0,0.0,0.0,0.0,0.0,0.0,0.0,0.0,0.0,0.0,0.0,0.0,0.0,0.0,0.0,0.0,0.0,0.0,0.0,0.0,0.0,0.0,0.0,0.0,0.0,0.0,0.0,0.0,0.0,0.0,0.0,0.0,0.0,0.0,0.0,0.0,0.0,0.0,0.0,0.0,0.0,0.0,0.0,0.0,0.0,0.0,0.0,0.0,0.0,0.0,0.0,0.0,0.0,0.0,0.0,0.0,0.0,0.0,0.0,0.0,0.0,0.0,0.0,0.0,0.0,0.0,0.0,0.0,0.0,0.0,0.0,0.0,0.0,0.0,-0.9069,-0.9626,-0.9817,-1.0415,-1.1365,0.0,0.0,0.0,0.0,0.0,0.0,0.0,0.0,0.0,0.0,0.0,0.0,0.0,0.0,0.0,0.0,0.0,0.0,0.0,0.0,0.0,0.0,0.0,0.0,0.0,0.0,0.0,0.0,0.0,0.0,0.0,0.0,0.0,0.0,0.0,0.0,0.0,0.0,0.0,0.0,0.0,0.0,0.0,0.0,0.0,0.0,0.0,0.0,0.0,0.0,0.0,0.0,0.0,0.0,0.0,0.0,0.0,0.0,0.0,0.0,0.0,0.0,0.0,0.0,0.0,0.0,0.0,0.0,0.0,0.0,0.0,0.0,0.0,0.0,0.0,0.0,0.0,0.0,0.0,0.0,0.0,0.0,0.0,0.0,0.0,0.0,0.0,0.0,0.0,0.0,0.0,0.0,0.0,0.0,0.0,0.0,0.0,0.0,0.0,0.0,0.0,0.0,0.0,0.0,0.0,0.0,0.0,0.0,0.0,0.0,0.0,0.0,-1.0245,-1.0905,-1.197,0.0,0.0,0.0,0.0,0.0,0.0,0.0,0.0,0.0,0.0,0.0,0.0,0.0,0.0,0.0,0.0,0.0,0.0,0.0,0.0,0.0,0.0,0.0,0.0,0.0,0.0,0.0,0.0,0.0,0.0,0.0,0.0,0.0,0.0,0.0,0.0,0.0,0.0,0.0,0.0,0.0,0.0,0.0,0.0,0.0,0.0,0.0,0.0,0.0,0.0,0.0,0.0,0.0,0.0,0.0,0.0,0.0,0.0,0.0,0.0,0.0,0.0,0.0,0.0,0.0,0.0,0.0,0.0,0.0,0.0,0.0,0.0,0.0,0.0,0.0,0.0,0.0,0.0,0.0,0.0,0.0,0.0,0.0,0.0,0.0,0.0,0.0,0.0,0.0,0.0,0.0,0.0,0.0,0.0,0.0,0.0,0.0,0.0,0.0,0.0,0.0,0.0,0.0,0.0,0.0,0.0,0.0,0.0,0.0,0.0,-1.0047,-1.0244,-1.0523,0.0,-1.3349,0.0,0.0,0.0,0.0,0.0,0.0,0.0,0.0,0.0,0.0,0.0,0.0,0.0,0.0,0.0,0.0,0.0,0.0,0.0,0.0,0.0,0.0,0.0,0.0,0.0,0.0,0.0,0.0,0.0,0.0,0.0,0.0,0.0,0.0,0.0,0.0,0.0,0.0,0.0,0.0,0.0,0.0,0.0,0.0,0.0,0.0,0.0,0.0,0.0,0.0,0.0,0.0,0.0,0.0,0.0,0.0,0.0,0.0,0.0,0.0,0.0,0.0,0.0,0.0,0.0,0.0,0.0,0.0,0.0,0.0,0.0,0.0,0.0,0.0,0.0,0.0,0.0,0.0,0.0,0.0,0.0,0.0,0.0,0.0,0.0,0.0,0.0,0.0,0.0,0.0,0.0,0.0,0.0,0.0,0.0,0.0,0.0,0.0,0.0,0.0,0.0,0.0,0.0,0.0,0.0,0.0,0.0,0.0,0.0,0.0,-1.029,-1.0516,-1.1835,-1.3138,0.0,0.0,0.0,0.0,0.0,0.0,0.0,0.0,0.0,0.0,0.0,0.0,0.0,0.0,0.0,0.0,0.0,0.0,0.0,0.0,0.0,0.0,0.0,0.0,0.0,0.0,0.0,0.0,0.0,0.0,0.0,0.0,0.0,0.0,0.0,0.0,0.0,0.0,0.0,0.0,0.0,0.0,0.0,0.0,0.0,0.0,0.0,0.0,0.0,0.0,0.0,0.0,0.0,0.0,0.0,0.0,0.0,0.0,0.0,0.0,0.0,0.0,0.0,0.0,0.0,0.0,0.0,0.0,0.0,0.0,0.0,0.0,0.0,0.0,0.0,0.0,0.0,0.0,0.0,0.0,0.0,0.0,0.0,0.0,0.0,0.0,0.0,0.0,0.0,0.0,0.0,0.0,0.0,0.0,0.0,0.0,0.0,0.0,0.0,0.0,0.0,0.0,0.0,0.0,0.0,0.0,0.0,0.0,0.0,0.0,-1.0322,-1.0757,-1.137,-1.3134,-1.4503,-1.5265,0.0,0.0,0.0,0.0,0.0,0.0,0.0,0.0,0.0,0.0,0.0,0.0,0.0,0.0,0.0,0.0,0.0,0.0,0.0,0.0,0.0,0.0,0.0,0.0,0.0,0.0,0.0,0.0,0.0,0.0,0.0,0.0,0.0,0.0,0.0,0.0,0.0,0.0,0.0,0.0,0.0,0.0,0.0,0.0,0.0,0.0,0.0,0.0,0.0,0.0,0.0,0.0,0.0,0.0,0.0,0.0,0.0,0.0,0.0,0.0,0.0,0.0,0.0,0.0,0.0,0.0,0.0,0.0,0.0,0.0,0.0,0.0,0.0,0.0,0.0,0.0,0.0,0.0,0.0,0.0,0.0,0.0,0.0,0.0,0.0,0.0,0.0,0.0,0.0,0.0,0.0,0.0,0.0,0.0,0.0,0.0,0.0,0.0,0.0,0.0,0.0,0.0,0.0,0.0,0.0,0.0,0.0,0.0,-1.0282,-1.0731,-1.1605,-1.2835,-1.423,-1.5267,0.0,0.0,0.0,0.0,0.0,0.0,0.0,0.0,0.0,0.0,0.0,0.0,0.0,0.0,0.0,0.0,0.0,0.0,0.0,0.0,0.0,0.0,0.0,0.0,0.0,0.0,0.0,0.0,0.0,0.0,0.0,0.0,0.0,0.0,0.0,0.0,0.0,0.0,0.0,0.0,0.0,0.0,0.0,0.0,0.0,0.0,0.0,0.0,0.0,0.0,0.0,0.0,0.0,0.0,0.0,0.0,0.0,0.0,0.0,0.0,0.0,0.0,0.0,0.0,0.0,0.0,0.0,0.0,0.0,0.0,0.0,0.0,0.0,0.0,0.0,0.0,0.0,0.0,0.0,0.0,0.0,0.0,0.0,0.0,0.0,0.0,0.0,0.0,0.0,0.0,0.0,0.0,0.0,0.0,0.0,0.0,0.0,0.0,0.0,0.0,0.0,0.0,0.0,0.0,0.0,0.0,0.0,0.0,0.0,-1.0359,-1.1542,-1.2568,-1.3294,-1.5043,-1.6238,0.0,0.0,0.0,0.0,0.0,0.0,0.0,0.0,0.0,0.0,0.0,0.0,0.0,0.0,0.0,0.0,0.0,0.0,0.0,0.0,0.0,0.0,0.0,0.0,0.0,0.0,0.0,0.0,0.0,0.0,0.0,0.0,0.0,0.0,0.0,0.0,0.0,0.0,0.0,0.0,0.0,0.0,0.0,0.0,0.0,0.0,0.0,0.0,0.0,0.0,0.0,0.0,0.0,0.0,0.0,0.0,0.0,0.0,0.0,0.0,0.0,0.0,0.0,0.0,0.0,0.0,0.0,0.0,0.0,0.0,0.0,0.0,0.0,0.0,0.0,0.0,0.0,0.0,0.0,0.0,0.0,0.0,0.0,0.0,0.0,0.0,0.0,0.0,0.0,0.0,0.0,0.0,0.0,0.0,0.0,0.0,0.0,0.0,0.0,0.0,0.0,0.0,0.0,0.0,0.0,0.0,0.0,0.0,0.0,-1.0712,0.0,-1.3168,-1.39,-1.552,-1.6708,0.0,0.0,0.0,0.0,0.0,0.0,0.0,0.0,0.0,0.0,0.0,0.0,0.0,0.0,0.0,0.0,0.0,0.0,0.0,0.0,0.0,0.0,0.0,0.0,0.0,0.0,0.0,0.0,0.0,0.0,0.0,0.0,0.0,0.0,0.0,0.0,0.0,0.0,0.0,0.0,0.0,0.0,0.0,0.0,0.0,0.0,0.0,0.0,0.0,0.0,0.0,0.0,0.0,0.0,0.0,0.0,0.0,0.0,0.0,0.0,0.0,0.0,0.0,0.0,0.0,0.0,0.0,0.0,0.0,0.0,0.0,0.0,0.0,0.0,0.0,0.0,0.0,0.0,0.0,0.0,0.0,0.0,0.0,0.0,0.0,0.0,0.0,0.0,0.0,0.0,0.0,0.0,0.0,0.0,0.0,0.0,0.0,0.0,0.0,0.0,0.0,0.0,0.0,0.0,0.0,0.0,0.0,0.0,-1.0686,-1.139,-1.2241,-1.3424,-1.4838,-1.5644,-1.6563,0.0,0.0,0.0,0.0,0.0,0.0,0.0,0.0,0.0,0.0,0.0,0.0,0.0,0.0,0.0,0.0,0.0,0.0,0.0,0.0,0.0,0.0,0.0,0.0,0.0,0.0,0.0,0.0,0.0,0.0,0.0,0.0,0.0,0.0,0.0,0.0,0.0,0.0,0.0,0.0,0.0,0.0,0.0,0.0,0.0,0.0,0.0,0.0,0.0,0.0,0.0,0.0,0.0,0.0,0.0,0.0,0.0,0.0,0.0,0.0,0.0,0.0,0.0,0.0,0.0,0.0,0.0,0.0,0.0,0.0,0.0,0.0,0.0,0.0,0.0,0.0,0.0,0.0,0.0,0.0,0.0,0.0,0.0,0.0,0.0,0.0,0.0,0.0,0.0,0.0,0.0,0.0,0.0,0.0,0.0,0.0,0.0,0.0,0.0,0.0,0.0,0.0,0.0,0.0,0.0,0.0,0.0,0.0,0.0,-1.1806,-1.2799,-1.383,-1.4938,-1.6049,-1.7017,0.0,0.0,0.0,0.0,0.0,0.0,0.0,0.0,0.0,0.0,0.0,0.0,0.0,0.0,0.0,0.0,0.0,0.0,0.0,0.0,0.0,0.0,0.0,0.0,0.0,0.0,0.0,0.0,0.0,0.0,0.0,0.0,0.0,0.0,0.0,0.0,0.0,0.0,0.0,0.0,0.0,0.0,0.0,0.0,0.0,0.0,0.0,0.0,0.0,0.0,0.0,0.0,0.0,0.0,0.0,0.0,0.0,0.0,0.0,0.0,0.0,0.0,0.0,0.0,0.0,0.0,0.0,0.0,0.0,0.0,0.0,0.0,0.0,0.0,0.0,0.0,0.0,0.0,0.0,0.0,0.0,0.0,0.0,0.0,0.0,0.0,0.0,0.0,0.0,0.0,0.0,0.0,0.0,0.0,0.0,0.0,0.0,0.0,0.0,0.0,0.0,0.0,0.0,0.0,0.0,0.0,0.0,0.0,0.0,-1.2445,-1.3032,-1.394,-1.5179,-1.6,-1.707,-1.8327,0.0,0.0,0.0,0.0,0.0,0.0,0.0,0.0,0.0,0.0,0.0,0.0,0.0,0.0,0.0,0.0,0.0,0.0,0.0,0.0,0.0,0.0,0.0,0.0,0.0,0.0,0.0,0.0,0.0,0.0,0.0,0.0,0.0,0.0,0.0,0.0,0.0,0.0,0.0,0.0,0.0,0.0,0.0,0.0,0.0,0.0,0.0,0.0,0.0,0.0,0.0,0.0,0.0,0.0,0.0,0.0,0.0,0.0,0.0,0.0,0.0,0.0,0.0,0.0,0.0,0.0,0.0,0.0,0.0,0.0,0.0,0.0,0.0,0.0,0.0,0.0,0.0,0.0,0.0,0.0,0.0,0.0,0.0,0.0,0.0,0.0,0.0,0.0,0.0,0.0,0.0,0.0,0.0,0.0,0.0,0.0,0.0,0.0,0.0,0.0,0.0,0.0,0.0,0.0,0.0,0.0,0.0,0.0,-1.3266,-1.3119,-1.3861,-1.5455,-1.5702,-1.6766,0.0,0.0,0.0,0.0,0.0,0.0,0.0,0.0,0.0,0.0,0.0,0.0,0.0,0.0,0.0,0.0,0.0,0.0,0.0,0.0,0.0,0.0,0.0,0.0,0.0,0.0,0.0,0.0,0.0,0.0,0.0,0.0,0.0,0.0,0.0,0.0,0.0,0.0,0.0,0.0,0.0,0.0,0.0,0.0,0.0,0.0,0.0,0.0,0.0,0.0,0.0,0.0,0.0,0.0,0.0,0.0,0.0,0.0,0.0,0.0,0.0,0.0,0.0,0.0,0.0,0.0,0.0,0.0,0.0,0.0,0.0,0.0,0.0,0.0,0.0,0.0,0.0,0.0,0.0,0.0,0.0,0.0,0.0,0.0,0.0,0.0,0.0,0.0,0.0,0.0,0.0,0.0,0.0,0.0,0.0,0.0,0.0,0.0,0.0,0.0,0.0,0.0,0.0,0.0,0.0,0.0,0.0,0.0,0.0,-1.4214,-1.4609,-1.5073,-1.564,-1.6271,-1.7404,0.0,0.0,0.0,0.0,0.0,0.0,0.0,0.0,0.0,0.0,0.0,0.0,0.0,0.0,0.0,0.0,0.0,0.0,0.0,0.0,0.0,0.0,0.0,0.0,0.0,0.0,0.0,0.0,0.0,0.0,0.0,0.0,0.0,0.0,0.0,0.0,0.0,0.0,0.0,0.0,0.0,0.0,0.0,0.0,0.0,0.0,0.0,0.0,0.0,0.0,0.0,0.0,0.0,0.0,0.0,0.0,0.0,0.0,0.0,0.0,0.0,0.0,0.0,0.0,0.0,0.0,0.0,0.0,0.0,0.0,0.0,0.0,0.0,0.0,0.0,0.0,0.0,0.0,0.0,0.0,0.0,0.0,0.0,0.0,0.0,0.0,0.0,0.0,0.0,0.0,0.0,0.0,0.0,0.0,0.0,0.0,0.0,0.0,0.0,0.0,0.0,0.0,0.0,0.0,0.0,0.0,0.0,0.0,-1.451,-1.4966,-1.571,-1.6132,-1.6193,-1.6655,-1.777,0.0,0.0,0.0,0.0,0.0,0.0,0.0,0.0,0.0,0.0,0.0,0.0,0.0,0.0,0.0,0.0,0.0,0.0,0.0,0.0,0.0,0.0,0.0,0.0,0.0,0.0,0.0,0.0,0.0,0.0,0.0,0.0,0.0,0.0,0.0,0.0,0.0,0.0,0.0,0.0,0.0,0.0,0.0,0.0,0.0,0.0,0.0,0.0,0.0,0.0,0.0,0.0,0.0,0.0,0.0,0.0,0.0,0.0,0.0,0.0,0.0,0.0,0.0,0.0,0.0,0.0,0.0,0.0,0.0,0.0,0.0,0.0,0.0,0.0,0.0,0.0,0.0,0.0,0.0,0.0,0.0,0.0,0.0,0.0,0.0,0.0,0.0,0.0,0.0,0.0,0.0,0.0,0.0,0.0,0.0,0.0,0.0,0.0,0.0,0.0,0.0,0.0,0.0,0.0,0.0,0.0,0.0,0.0,-1.4903,-1.564,-1.655,-1.701,-1.7035,-1.701,-1.8041,0.0,0.0,0.0,0.0,0.0,0.0,0.0,0.0,0.0,0.0,0.0,0.0,0.0,0.0,0.0,0.0,0.0,0.0,0.0,0.0,0.0,0.0,0.0,0.0,0.0,0.0,0.0,0.0,0.0,0.0,0.0,0.0,0.0,0.0,0.0,0.0,0.0,0.0,0.0,0.0,0.0,0.0,0.0,0.0,0.0,0.0,0.0,0.0,0.0,0.0,0.0,0.0,0.0,0.0,0.0,0.0,0.0,0.0,0.0,0.0,0.0,0.0,0.0,0.0,0.0,0.0,0.0,0.0,0.0,0.0,0.0,0.0,0.0,0.0,0.0,0.0,0.0,0.0,0.0,0.0,0.0,0.0,0.0,0.0,0.0,0.0,0.0,0.0,0.0,0.0,0.0,0.0,0.0,0.0,0.0,0.0,0.0,0.0,0.0,0.0,0.0,0.0,0.0,0.0,0.0,0.0,0.0,0.0,-1.628,-1.6585,-1.7373,-1.7759,-1.7759,-1.7759,-1.8566,0.0,0.0,0.0,0.0,0.0,0.0,0.0,0.0,0.0,0.0,0.0,0.0,0.0,0.0,0.0,0.0,0.0,0.0,0.0,0.0,0.0,0.0,0.0,0.0,0.0,0.0,0.0,0.0,0.0,0.0,0.0,0.0,0.0,0.0,0.0,0.0,0.0,0.0,0.0,0.0,0.0,0.0,0.0,0.0,0.0,0.0,0.0,0.0,-3.4101,0.0,0.0,0.0,0.0,0.0,0.0,0.0,0.0,0.0,0.0,0.0,0.0,0.0,0.0,0.0,0.0,0.0,0.0,0.0,0.0,0.0,0.0,0.0,0.0,0.0,0.0,0.0,0.0,0.0,0.0,0.0,0.0,0.0,0.0,0.0,0.0,0.0,0.0,0.0,0.0,0.0,0.0,0.0,0.0,0.0,0.0,0.0,0.0,0.0,0.0,0.0,0.0,0.0,0.0,0.0,0.0,0.0,0.0,0.0,-1.6985,-1.7398,-1.7803,-1.8008,-1.8008,-1.8303,-1.9044,0.0,0.0,0.0,0.0,0.0,0.0,0.0,0.0,0.0,0.0,0.0,0.0,0.0,0.0,0.0,0.0,0.0,0.0,0.0,0.0,0.0,0.0,0.0,0.0,0.0,0.0,0.0,0.0,0.0,0.0,0.0,0.0,0.0,0.0,0.0,0.0,0.0,0.0,0.0,0.0,0.0,0.0,0.0,0.0,0.0,0.0,0.0,0.0,0.0,0.0,0.0,0.0,0.0,0.0,0.0,0.0,0.0,0.0,0.0,0.0,0.0,0.0,0.0,0.0,0.0,0.0,0.0,0.0,0.0,0.0,0.0,0.0,0.0,0.0,0.0,0.0,0.0,0.0,0.0,0.0,0.0,0.0,0.0,0.0,0.0,0.0,0.0,0.0,0.0,0.0,0.0,0.0,0.0,0.0,0.0,0.0,0.0,0.0,0.0,0.0,0.0,0.0,0.0,0.0,0.0,0.0,0.0,-1.6515,-1.7226,-1.7964,-1.8008,-1.8032,-1.8134,-1.8687,-1.9431,-2.0398,0.0,0.0,0.0,0.0,0.0,0.0,0.0,0.0,0.0,0.0,0.0,0.0,0.0,0.0,0.0,0.0,0.0,0.0,0.0,0.0,0.0,0.0,0.0,0.0,0.0,0.0,0.0,0.0,0.0,0.0,0.0,0.0,0.0,0.0,0.0,0.0,0.0,0.0,-3.2398,-3.2398,0.0,0.0,0.0,0.0,0.0,0.0,0.0,0.0,-3.3176,0.0,0.0,0.0,0.0,0.0,0.0,0.0,0.0,0.0,0.0,0.0,0.0,0.0,0.0,0.0,0.0,0.0,0.0,0.0,0.0,0.0,0.0,0.0,0.0,0.0,0.0,0.0,0.0,0.0,0.0,0.0,0.0,0.0,0.0,0.0,0.0,0.0,0.0,0.0,0.0,0.0,0.0,0.0,0.0,0.0,0.0,0.0,0.0,0.0,0.0,0.0,0.0,0.0,0.0,0.0,0.0,-1.6428,-1.6585,-1.7097,-1.7974,-1.8008,-1.8269,-1.8821,-1.8944,-1.9628,-2.089,0.0,0.0,0.0,0.0,0.0,0.0,0.0,0.0,0.0,0.0,0.0,0.0,0.0,0.0,0.0,0.0,0.0,0.0,0.0,0.0,0.0,0.0,0.0,0.0,0.0,0.0,0.0,0.0,0.0,0.0,0.0,0.0,0.0,0.0,0.0,0.0,0.0,0.0,0.0,-3.2398,-3.2398,0.0,0.0,0.0,0.0,0.0,0.0,0.0,0.0,-3.3642,0.0,0.0,0.0,0.0,0.0,0.0,0.0,0.0,0.0,0.0,0.0,0.0,0.0,0.0,0.0,0.0,0.0,0.0,0.0,0.0,0.0,0.0,0.0,0.0,0.0,0.0,0.0,0.0,0.0,0.0,0.0,0.0,0.0,0.0,0.0,0.0,0.0,0.0,0.0,0.0,0.0,0.0,0.0,0.0,0.0,0.0,0.0,0.0,0.0,0.0,0.0,0.0,0.0,0.0,0.0,-1.6724,-1.7123,-1.7554,-1.7974,-1.8008,-1.8303,-1.8977,-1.964,-2.0522,0.0,0.0,0.0,0.0,0.0,0.0,0.0,0.0,0.0,0.0,0.0,0.0,0.0,0.0,0.0,0.0,0.0,0.0,0.0,0.0,0.0,0.0,0.0,0.0,0.0,0.0,0.0,0.0,0.0,0.0,0.0,0.0,0.0,0.0,0.0,0.0,0.0,0.0,0.0,0.0,-3.2398,-3.2398,-3.2398,0.0,0.0,0.0,0.0,0.0,0.0,-3.3198,-3.3503,0.0,0.0,0.0,0.0,0.0,0.0,0.0,0.0,0.0,0.0,0.0,0.0,0.0,0.0,0.0,0.0,0.0,0.0,0.0,0.0,0.0,0.0,0.0,0.0,0.0,0.0,0.0,0.0,0.0,0.0,0.0,0.0,0.0,0.0,0.0,0.0,0.0,0.0,0.0,0.0,0.0,0.0,0.0,0.0,0.0,0.0,0.0,0.0,0.0,0.0,0.0,0.0,0.0,0.0,0.0,-1.6897,-1.7476,-1.7901,-1.81,-1.81,-1.8472,-1.9246,-2.0414,-2.1431,0.0,0.0,0.0,0.0,0.0,0.0,0.0,0.0,0.0,0.0,0.0,0.0,0.0,0.0,0.0,0.0,0.0,0.0,0.0,0.0,0.0,0.0,0.0,0.0,0.0,0.0,0.0,0.0,0.0,0.0,0.0,0.0,0.0,0.0,0.0,0.0,0.0,0.0,0.0,0.0,0.0,-3.2398,-3.2398,-3.2398,0.0,0.0,0.0,0.0,-3.2613,-3.3162,0.0,0.0,0.0,0.0,0.0,0.0,0.0,0.0,0.0,0.0,0.0,0.0,0.0,0.0,0.0,0.0,0.0,0.0,0.0,0.0,0.0,0.0,0.0,0.0,0.0,0.0,0.0,0.0,0.0,0.0,0.0,0.0,0.0,0.0,0.0,0.0,0.0,0.0,0.0,0.0,0.0,0.0,0.0,0.0,0.0,0.0,0.0,0.0,0.0,0.0,0.0,0.0,0.0,0.0,0.0,0.0,-1.6862,-1.6975,-1.7533,-1.8465,-1.8529,-1.9048,-2.0118,-2.0979,-2.1785,0.0,0.0,0.0,0.0,0.0,0.0,0.0,0.0,0.0,0.0,0.0,0.0,0.0,0.0,0.0,0.0,0.0,0.0,0.0,0.0,0.0,0.0,0.0,0.0,0.0,0.0,0.0,0.0,0.0,0.0,0.0,0.0,0.0,0.0,0.0,0.0,0.0,0.0,0.0,0.0,0.0,-3.2398,-3.2398,-3.2398,-3.2398,0.0,0.0,-3.329,-3.3275,-3.4084,0.0,0.0,0.0,0.0,0.0,0.0,0.0,0.0,0.0,0.0,0.0,0.0,0.0,0.0,0.0,0.0,0.0,0.0,0.0,0.0,0.0,0.0,0.0,0.0,0.0,0.0,0.0,0.0,0.0,0.0,0.0,0.0,0.0,0.0,0.0,0.0,0.0,0.0,0.0,0.0,0.0,0.0,0.0,0.0,0.0,0.0,0.0,0.0,0.0,0.0,0.0,0.0,0.0,0.0,0.0,-1.7748,-1.8249,-1.8249,-1.8488,-1.8994,-1.9449,-2.0097,-2.0945,-2.2059,-2.3018,0.0,0.0,0.0,0.0,0.0,0.0,0.0,0.0,0.0,0.0,0.0,0.0,0.0,0.0,0.0,0.0,0.0,0.0,0.0,0.0,0.0,0.0,0.0,0.0,0.0,0.0,0.0,0.0,0.0,0.0,0.0,0.0,0.0,0.0,0.0,0.0,0.0,0.0,0.0,0.0,0.0,0.0,-3.3596,-3.3567,0.0,0.0,0.0,-3.4043,-3.4014,0.0,0.0,0.0,0.0,0.0,0.0,0.0,0.0,0.0,0.0,0.0,0.0,0.0,0.0,0.0,0.0,0.0,0.0,0.0,0.0,0.0,0.0,0.0,0.0,0.0,0.0,0.0,0.0,0.0,0.0,0.0,0.0,0.0,0.0,0.0,0.0,0.0,0.0,0.0,0.0,0.0,0.0,0.0,0.0,0.0,0.0,0.0,0.0,0.0,0.0,0.0,0.0,0.0,0.0,0.0,0.0,0.0,-1.8949,-1.9178,-1.9336,-1.947,-2.0251,-2.0951,-2.1557,-2.2939,0.0,0.0,0.0,0.0,0.0,0.0,0.0,0.0,0.0,0.0,0.0,0.0,0.0,0.0,0.0,0.0,0.0,0.0,0.0,0.0,0.0,0.0,0.0,0.0,0.0,0.0,0.0,-3.2315,0.0,0.0,0.0,0.0,0.0,0.0,0.0,0.0,0.0,0.0,0.0,0.0,0.0,0.0,-3.4489,-3.4489,-3.4489,-3.4489,0.0,0.0,-3.4751,-3.4751,-3.5052,-3.5307,0.0,0.0,0.0,0.0,0.0,0.0,0.0,0.0,0.0,0.0,0.0,0.0,0.0,0.0,0.0,0.0,0.0,0.0,0.0,0.0,0.0,0.0,0.0,0.0,0.0,0.0,0.0,0.0,0.0,0.0,0.0,0.0,0.0,0.0,0.0,0.0,0.0,0.0,0.0,0.0,0.0,0.0,0.0,0.0,0.0,0.0,0.0,0.0,0.0,0.0,0.0,0.0,0.0,0.0,-1.8664,-1.7952,-1.8829,-1.9482,-1.9853,-2.0626,-2.1312,-2.1765,-2.3227,-2.4099,0.0,0.0,0.0,0.0,0.0,0.0,0.0,0.0,0.0,0.0,0.0,0.0,0.0,0.0,0.0,0.0,0.0,0.0,0.0,0.0,0.0,0.0,0.0,0.0,0.0,0.0,0.0,0.0,0.0,0.0,0.0,0.0,0.0,0.0,0.0,0.0,0.0,0.0,0.0,0.0,0.0,-3.4489,-3.4489,-3.4489,-3.4505,0.0,-3.5044,-3.5444,-3.5414,-3.5968,-3.6415,-3.6384,0.0,0.0,0.0,0.0,0.0,0.0,0.0,0.0,0.0,0.0,0.0,0.0,0.0,0.0,0.0,0.0,0.0,0.0,0.0,0.0,0.0,0.0,0.0,0.0,0.0,0.0,0.0,0.0,0.0,0.0,0.0,0.0,0.0,0.0,0.0,0.0,0.0,0.0,0.0,0.0,0.0,0.0,0.0,0.0,0.0,0.0,0.0,0.0,0.0,0.0,0.0,0.0,0.0,-1.9659,-1.9373,-1.984,-2.0184,-2.0341,-2.113,-2.188,-2.2499,-2.3526,-2.4337,0.0,0.0,0.0,0.0,0.0,0.0,0.0,0.0,0.0,0.0,0.0,0.0,0.0,0.0,0.0,0.0,0.0,0.0,0.0,0.0,0.0,0.0,0.0,0.0,0.0,0.0,0.0,0.0,-3.2446,-3.2784,-3.3178,0.0,0.0,0.0,0.0,0.0,0.0,0.0,0.0,0.0,0.0,-3.5447,-3.5539,-3.5554,0.0,0.0,-3.5968,-3.6091,-3.6107,-3.6322,-3.6492,-3.6492,-3.6693,0.0,0.0,0.0,0.0,0.0,0.0,0.0,0.0,0.0,0.0,0.0,0.0,0.0,0.0,0.0,0.0,0.0,0.0,0.0,0.0,0.0,0.0,0.0,0.0,0.0,0.0,0.0,0.0,0.0,0.0,0.0,0.0,0.0,0.0,0.0,0.0,0.0,0.0,0.0,0.0,0.0,0.0,0.0,0.0,0.0,0.0,0.0,0.0,0.0,0.0,0.0,0.0,-2.0147,-2.0117,-2.0303,-2.0372,-2.0411,-2.1423,-2.2285,-2.2861,-2.3866,-2.4683,0.0,0.0,0.0,0.0,0.0,0.0,0.0,0.0,0.0,0.0,0.0,0.0,0.0,0.0,0.0,0.0,0.0,0.0,0.0,0.0,0.0,0.0,0.0,0.0,0.0,0.0,0.0,0.0,-3.2998,-3.35,-3.4167,0.0,0.0,0.0,0.0,0.0,0.0,0.0,0.0,0.0,0.0,-3.6022,-3.6164,-3.6211,-3.6274,-3.6445,-3.6492,-3.6492,-3.6492,-3.6492,-3.6492,-3.6492,0.0,0.0,0.0,0.0,0.0,0.0,0.0,0.0,0.0,0.0,0.0,0.0,0.0,0.0,0.0,0.0,0.0,0.0,0.0,0.0,0.0,0.0,0.0,0.0,0.0,0.0,0.0,-0.8161,0.0,0.0,-0.941,0.0,0.0,0.0,0.0,0.0,0.0,0.0,0.0,0.0,0.0,0.0,0.0,0.0,0.0,0.0,0.0,0.0,0.0,0.0,0.0,0.0,0.0,-1.9784,-1.9606,-1.9824,-1.9942,-1.9981,-2.1527,-2.2424,-2.2627,-2.4204,-2.5147,-2.5276,0.0,0.0,0.0,0.0,0.0,0.0,0.0,0.0,0.0,0.0,0.0,0.0,0.0,0.0,0.0,0.0,0.0,0.0,0.0,0.0,0.0,0.0,0.0,0.0,0.0,0.0,-3.4118,-3.3864,-3.4015,0.0,0.0,0.0,0.0,0.0,0.0,0.0,0.0,0.0,0.0,-3.599,-3.6037,-3.6164,-3.6211,-3.6274,-3.646,-3.6492,-3.6492,-3.6492,-3.6507,-3.6492,0.0,0.0,0.0,0.0,0.0,0.0,0.0,0.0,0.0,0.0,0.0,0.0,0.0,0.0,0.0,0.0,0.0,0.0,0.0,0.0,0.0,0.0,0.0,0.0,0.0,0.0,0.0,-0.8428,-0.8546,0.0,0.0,0.0,0.0,0.0,0.0,0.0,0.0,0.0,0.0,0.0,-1.3717,-1.4223,0.0,0.0,0.0,0.0,0.0,0.0,0.0,0.0,0.0,0.0,0.0,0.0,-1.9676,-1.9606,-1.9794,-1.9912,-1.9912,-2.1001,-2.168,-2.1897,-2.3427,-2.4623,-2.5276,0.0,0.0,0.0,0.0,0.0,0.0,0.0,0.0,0.0,0.0,0.0,0.0,0.0,0.0,0.0,0.0,0.0,0.0,0.0,0.0,0.0,0.0,0.0,0.0,0.0,-3.3955,0.0,0.0,0.0,0.0,0.0,0.0,0.0,0.0,0.0,0.0,0.0,-3.5767,-3.5683,-3.5651,-3.578,-3.6022,-3.6068,-3.6148,0.0,0.0,0.0,0.0,0.0,0.0,0.0,0.0,0.0,0.0,0.0,0.0,0.0,0.0,-3.8388,-3.9129,-3.9503,-3.9768,-4.0097,0.0,0.0,0.0,0.0,0.0,0.0,0.0,0.0,0.0,0.0,0.0,0.0,0.0,0.0,-0.8432,-0.8351,-0.8694,0.0,0.0,0.0,0.0,0.0,0.0,0.0,0.0,-1.254,-1.3075,-1.3915,-1.4468,-1.5054,0.0,-1.609,-1.6992,0.0,0.0,0.0,0.0,0.0,0.0,0.0,0.0,-1.9508,-1.9518,-1.9627,-1.9706,-1.9745,-2.0508,-2.1078,-2.1375,-2.3047,-2.4264,-2.4862,-2.5158,-2.5312,0.0,0.0,0.0,0.0,0.0,0.0,0.0,0.0,0.0,0.0,0.0,0.0,0.0,0.0,0.0,0.0,0.0,0.0,0.0,0.0,0.0,0.0,0.0,-3.4556,0.0,0.0,0.0,0.0,0.0,0.0,0.0,0.0,0.0,-3.5621,-3.5621,-3.5589,-3.5489,-3.5489,-3.5587,-3.5878,0.0,0.0,0.0,0.0,0.0,0.0,0.0,-3.7846,-3.7846,-3.82,-3.865,-3.9111,-3.9175,-3.9318,-3.9764,0.0,0.0,-3.977,-3.9959,-4.0118,-4.0427,-3.9849,-3.9566,-4.023,-3.9739,-3.9263,0.0,0.0,0.0,0.0,0.0,0.0,0.0,0.0,-0.8084,-0.7889,0.0,-0.8394,0.0,0.0,0.0,0.0,-1.1591,-1.1869,0.0,0.0,-1.2283,-1.2869,-1.3747,-1.4803,-1.5387,-1.5511,-1.6288,-1.6821,-1.7123,-1.7529,0.0,0.0,0.0,0.0,0.0,0.0,-1.9292,-1.9292,-1.9301,-1.9301,-1.9332,-2.0118,-2.0721,-2.1211,-2.3036,-2.4036,-2.4145,-2.4874,-2.5264,-2.5312,-2.5312,0.0,0.0,0.0,0.0,0.0,0.0,0.0,0.0,0.0,0.0,0.0,0.0,0.0,0.0,0.0,0.0,0.0,0.0,0.0,0.0,-3.4946,0.0,0.0,0.0,0.0,0.0,0.0,0.0,0.0,0.0,0.0,-3.5564,-3.5519,-3.5504,-3.5534,0.0,0.0,0.0,0.0,-3.6118,-3.7094,-3.7235,-3.7544,-3.8352,-3.8523,-3.8539,-3.8539,0.0,0.0,-3.9447,-3.9539,-3.9739,-4.0401,-4.0755,-4.0734,-3.9787,-3.9926,-4.0252,-4.0529,-4.0774,-4.1042,-4.1088,-4.0647,-4.0404,-0.7595,0.0,0.0,0.0,0.0,-0.7203,-0.7207,-0.7672,-0.7672,-0.7783,-0.7965,-0.878,0.0,0.0,0.0,0.0,0.0,0.0,-1.1877,-1.2,-1.208,-1.2662,-1.3704,-1.4041,-1.4914,-1.6329,-1.6576,-1.7155,-1.7983,-1.8152,-1.8193,-1.8184,0.0,0.0,0.0,0.0,-1.9292,-1.9292,-1.9292,-1.9292,-1.9292,-2.007,-2.1211,-2.2638,-2.2537,-2.3206,-2.4731,-2.4576,-2.4719,-2.5276,-2.5312,0.0,0.0,0.0,0.0,0.0,0.0,0.0,0.0,0.0,0.0,0.0,0.0,0.0,0.0,0.0,0.0,0.0,0.0,0.0,-3.3816,-3.4955,-3.5432,0.0,0.0,0.0,0.0,0.0,0.0,0.0,0.0,0.0,-3.6133,-3.5789,-3.5684,0.0,0.0,-3.6439,-3.7041,-3.7134,-3.7261,-3.7643,-3.7824,0.0,-3.8249,-3.8808,-3.9198,-3.9231,-3.9598,-3.9982,-4.0166,-4.0213,-4.0377,-4.0836,-4.0783,-4.0644,-4.0669,-4.0718,-4.0908,-4.1173,-4.0964,-4.0783,-4.1003,-4.0765,-4.0489,-0.7437,-0.7318,-0.7442,-0.7518,-0.7446,-0.6938,-0.7096,-0.7753,-0.7753,-0.7978,-0.8356,-0.8856,-0.9013,-0.8984,-0.9807,0.0,0.0,0.0,-1.1613,-1.1742,-1.1828,-1.2491,-1.3578,-1.4035,-1.4914,-1.6165,-1.6527,-1.7066,-1.774,-1.7732,-1.7659,-1.7497,0.0,0.0,-1.8527,-1.9063,-1.9292,-1.9292,-1.9292,-1.9292,-1.9292,-1.9854,-2.0692,-2.1794,-2.1642,-2.2199,-2.3585,-2.3866,-2.4228,-2.4731,-2.5087,-2.5253,0.0,0.0,0.0,0.0,0.0,0.0,0.0,0.0,0.0,0.0,0.0,-2.9971,-3.0274,0.0,0.0,0.0,-3.287,-3.3534,-3.3953,-3.4843,0.0,0.0,0.0,0.0,0.0,0.0,0.0,-3.5327,-3.5639,-3.6133,-3.6746,-3.6507,-3.6402,-3.6806,-3.6851,-3.7034,-3.7511,0.0,-3.7748,-3.8243,-3.8443,-3.865,-3.9045,-3.9545,-3.9874,-3.9874,-4.0213,-4.0489,-4.0489,-4.0489,-4.0608,-4.0765,-4.0662,-4.0558,-4.0833,-4.0867,-4.0919,-4.1122,-4.0799,-4.0593,-4.0817,-4.0662,-4.0489,-0.7518,-0.7518,-0.7518,-0.7518,-0.7518,-0.7518,-0.7714,-0.8025,-0.8059,-0.825,-0.8665,-0.8665,-0.8899,-0.9347,-1.0184,0.0,-1.0972,-1.1187,-1.1311,-1.1311,-1.157,-1.2246,-1.3288,-1.4287,-1.4963,-1.5387,-1.6206,-1.6657,-1.6821,-1.6821,-1.6952,-1.7212,-1.8393,-1.9033,-1.9183,-1.9253,-1.9292,-1.9292,-1.9292,-1.9292,-1.9292,-1.9518,-1.9606,-1.9715,-2.0537,-2.1183,-2.1603,-2.2898,-2.372,-2.3925,-2.4755,-2.5111,-2.4849,0.0,0.0,0.0,0.0,0.0,0.0,0.0,0.0,0.0,0.0,0.0,0.0,0.0,0.0,0.0,-3.2417,0.0,-3.4075,-3.4591,0.0,0.0,0.0,-3.5534,-3.5579,-3.5594,-3.5833,-3.6477,0.0,0.0,-3.7419,-3.7479,-3.7494,-3.7569,-3.7524,-3.7509,-3.7554,-3.7629,-3.7931,-3.8895,-3.9039,-3.9405,-4.0121,-4.0378,-4.0428,-4.0428,-4.0489,-4.0489,-4.0489,-4.0489,-4.0489,-4.0524,-4.0489,-4.0505,-4.0489,-4.0539,-4.0489,-4.0524,-4.0524,-4.0489,-4.0524,-4.0505,-4.0489,-0.7518,-0.7518,-0.7518,-0.7518,-0.7518,-0.7518,-0.7561,-0.7642,-0.7642,-0.7868,-0.8212,-0.8255,-0.8637,-0.9347,-1.0224,-1.0624,-1.0735,-1.1112,-1.1311,-1.1311,-1.1354,-1.165,-1.2118,-1.2497,-1.3542,-1.5047,-1.5511,-1.6386,-1.7659,-1.77,-1.7821,-1.8112,-1.8563,-1.8514,-1.8135,-1.8895,-1.9292,-1.9292,-1.9292,-1.9292,-1.9301,-1.9478,-1.9824,-2.0284,-2.0235,-2.0808,-2.2134,-2.2096,-2.2675,-2.3975,-2.4264,-2.4636,-2.5147,-2.4647,0.0,0.0,0.0,0.0,0.0,0.0,0.0,0.0,0.0,-2.9076,-2.9771,0.0,-3.1748,0.0,-3.1859,-3.2461,-3.303,-3.3919,0.0,0.0,-3.5133,-3.5699,-3.6193,-3.6252,-3.6492,-3.712,-3.718,-3.7434,-3.8093,-3.8153,-3.8347,-3.8841,-3.8482,-3.8347,-3.8841,-3.8945,-3.899,-3.9268,-3.9546,-3.9849,-4.0091,-4.0331,-4.0489,-4.0489,-4.0489,-4.0489,-4.0489,-4.0489,-4.0489,-4.0489,-4.0489,-4.0489,-4.0489,-4.0489,-4.0489,-4.0489,-4.0489,-4.0489,-4.0489,-4.0489,-4.0489,-0.7518,-0.7518,-0.7518,-0.7518,-0.7518,-0.7518,-0.7518,-0.7518,-0.7518,-0.7638,-0.7868,-0.8208,-0.8632,-0.9118,-1.0139,-1.0597,-1.0635,-1.1091,-1.1311,-1.1311,-1.1311,-1.1483,-1.1871,-1.279,-1.3873,-1.5179,-1.6131,-1.7049,-1.7951,-1.7991,-1.8072,-1.8233,-1.8531,-1.8491,-1.8193,-1.8904,-1.9103,-1.8727,-1.9094,-1.9292,-1.9292,-1.9429,-1.9627,-1.9913,-1.9736,-2.0128,-2.1116,-2.126,-2.1783,-2.275,-2.3316,-2.3877,-2.4479,-2.4215,-2.4384,0.0,0.0,0.0,0.0,0.0,0.0,0.0,0.0,0.0,0.0,0.0,-3.1823,-3.1519,-3.1859,-3.2259,-3.2668,-3.3526,-3.4259,-3.4704,-3.5448,-3.6193,-3.6821,-3.6896,-3.715,-3.7778,-3.7838,-3.8108,-3.8751,-3.8841,-3.8975,-3.9379,-3.9095,-3.899,-3.9298,-3.9388,-3.9409,-3.9532,-3.9818,-4.0066,-4.0191,-4.0366,-4.0489,-4.0489,-4.0489,-4.0489,-4.0489,-4.0489,-4.0489,-4.0489,-4.0489,-4.0489,-4.0489,-4.0489,-4.0489,-4.0489,-4.0489,-4.0489,-4.0489,-4.0489,-4.0489,-0.7518,-0.7518,-0.7518,-0.7518,-0.7518,-0.7518,-0.7518,-0.7518,-0.7518,-0.7518,-0.7518,-0.836,-0.8703,-0.8808,-1.002,-1.0597,-1.063,-1.1091,-1.1311,-1.1311,-1.1311,-1.1521,-1.2037,-1.362,-1.4713,-1.5428,-1.6796,-1.7619,-1.7829,-1.7708,-1.7749,-1.787,-1.8282,-1.8491,-1.8491,-1.8993,-1.8895,-1.8207,-1.8886,-1.9292,-1.9292,-1.9292,-1.9292,-1.9292,-1.9292,-1.939,-1.9636,-2.0469,-2.0991,-2.127,-2.2247,-2.3069,-2.3618,-2.3742,-2.4179,0.0,-2.5159,0.0,0.0,0.0,0.0,0.0,0.0,0.0,0.0,-3.127,-3.1982,-3.2092,-3.2019,-3.2128,-3.2583,-3.3276,-3.4125,-3.5198,-3.5986,-3.6749,-3.74,-3.7539,-3.7778,-3.8452,-3.8527,-3.8751,-3.9269,-3.9388,-3.9388,-3.9388,-3.9358,-3.9343,-3.9409,-3.9388,-3.9445,-3.9661,-3.9854,-4.0101,-4.0385,-4.0489,-4.0489,-4.0489,-4.0489,-4.0489,-4.0489,-4.0489,-4.052,-4.0628,-4.0674,-4.0705,-4.0735,-4.0797,-4.0782,-4.0858,-4.0889,-4.0797,-4.0566,-4.0489,-4.0489,-0.7518,-0.7518,-0.7518,-0.7518,-0.7518,-0.7518,-0.7518,-0.7518,-0.7518,-0.7518,-0.7557,-0.8356,-0.8703,-0.8813,-1.002,-1.0597,-1.0624,-1.1091,-1.1311,-1.1311,-1.1311,-1.1483,-1.1785,-1.2289,-1.3421,-1.5005,-1.4873,-1.5496,-1.6944,-1.6214,-1.6255,-1.6944,-1.7204,-1.7326,-1.7367,0.0,0.0,0.0,-1.9222,-1.9292,-1.9292,-1.9292,-1.9292,-1.9292,-1.9292,0.0,-1.9606,-1.9794,-2.0362,-2.1395,-2.1652,0.0,0.0,0.0,0.0,0.0,0.0,0.0,0.0,0.0,0.0,0.0,-2.8267,-2.8819,-2.9523,-3.0583,-3.1445,-3.2019,-3.1556,-3.1482,-3.2137,-3.2768,-3.3726,-3.5117,-3.5889,-3.677,-3.8003,-3.8197,-3.8467,-3.914,-3.9215,-3.9224,-3.9358,-3.9388,-3.9388,-3.9388,-3.9388,-3.9388,-3.9388,-3.9388,-3.9424,-3.9496,-3.9783,-4.0101,-4.047,-4.0489,-4.0505,-4.0489,-4.0489,-4.052,-4.0566,-4.0551,-4.0766,-4.1263,-4.1401,-4.1586,-4.2078,-4.2166,-4.214,-4.2202,-4.2202,-4.1878,-4.0751,-4.0505,-4.0489,-0.7518,-0.7518,-0.7518,-0.7518,0.0,-0.7518,-0.7518,-0.7518,-0.7518,-0.7518,-0.7561,-0.836,-0.8703,-0.8761,-1.002,-1.0597,-1.0619,-1.1091,-1.1311,-1.1311,-1.1311,-1.1435,-1.1699,-1.2375,-1.3245,-1.4371,-1.5039,-1.5579,-1.6049,-1.6049,-1.6041,-1.6083,-1.6706,-1.6992,-1.7033,-1.8345,-1.9112,-1.9292,-1.9292,-1.9292,-1.9292,-1.9292,-1.9292,-1.9292,-1.9292,0.0,0.0,0.0,0.0,0.0,0.0,0.0,0.0,-2.2675,0.0,-2.4312,-2.5152,-2.5847,-2.642,-2.7097,-2.7622,-2.7909,-2.8633,-2.925,-2.9651,-3.0835,-3.1629,-3.1813,-3.1519,-3.1564,-3.2203,-3.2685,-3.3711,-3.5459,-3.6303,-3.7272,-3.8588,-3.8901,-3.9035,-3.9298,-3.9388,-3.9388,-3.9388,-3.9388,-3.9388,-3.9388,-3.9388,-3.9388,-3.9388,-3.9388,-3.946,-3.964,-3.9854,-4.0101,-4.0436,-4.0505,-4.0659,-4.094,-4.1063,-4.1201,-4.1458,-4.1535,-4.1678,-4.2017,-4.2094,-4.2232,-4.2494,-4.2602,-4.2602,-4.2602,-4.2602,-4.2432,-4.1643,-4.1555,-4.1504,-0.7446,-0.7518,-0.7518,-0.7518,-0.7518,-0.7518,-0.7518,-0.7518,-0.7518,0.0,0.0,-0.8284,-0.8589,-0.8689,-0.9905,-1.0468,-1.0543,-1.1,-1.1268,-1.1311,-1.1311,-1.144,-1.1742,-1.2705,-1.333,-1.3782,-1.5406,-1.5966,-1.5436,-1.5959,-1.5959,-1.5519,-1.6124,-1.6665,-1.7115,-1.8175,-1.8913,-1.9253,-1.9292,-1.9292,-1.9292,-1.9292,-1.9292,-1.9292,-1.9292,-1.9292,-1.9292,-1.9429,-1.9557,-1.9597,-1.9754,-2.0245,-2.1068,-2.1897,-2.2767,-2.3634,-2.4911,-2.5857,-2.6412,-2.6952,-2.7434,-2.7869,-2.9121,-2.9922,-2.9986,-3.1233,-3.1923,-3.1629,-3.1612,-3.1803,-3.2243,-3.2787,-3.3829,-3.5683,-3.6621,-3.7666,-3.8979,-3.9352,-3.9373,-3.9388,-3.9388,-3.9388,-3.9388,-3.9388,-3.9388,-3.9388,-3.9388,-3.9388,-3.9388,-3.9388,-3.9496,-3.9803,-3.994,-4.0132,-4.0535,-4.072,-4.0966,-4.1663,-4.1786,-4.1986,-4.2432,-4.2602,-4.2648,-4.2756,-4.2771,-4.2848,-4.294,-4.3048,-4.2956,-4.2956,-4.2956,-4.294,-4.2956,-4.2956,-4.2863,-0.7334,-0.7518,-0.7518,-0.7518,-0.7518,-0.7518,-0.7518,-0.7518,-0.7518,-0.7518,-0.7518,-0.7987,-0.8178,-0.8268,-0.935,-0.9921,-1.0106,-1.0746,-1.1149,-1.1305,-1.1311,-1.1435,-1.1699,-1.2037,-1.2747,-1.3662,-1.4161,-1.4754,-1.5262,-1.4713,-1.4713,-1.522,-1.4761,-1.5413,-1.7188,-1.7513,-1.8167,-1.9253,-1.9292,-1.9292,-1.9292,-1.9292,-1.9292,-1.9292,-1.9292,-1.9292,-1.9292,-1.9341,-1.9429,-1.9597,-1.9645,-2.0089,-2.1019,-2.1897,-2.2945,-2.4126,-2.5431,-2.6423,-2.6964,-2.7493,-2.781,-2.795,-2.8897,-2.964,-2.9986,-3.1046,-3.1666,-3.1606,-3.1657,-3.177,-3.1965,-3.2883,-3.3927,-3.4958,-3.6203,-3.731,-3.8315,-3.901,-3.9388,-3.9388,-3.9388,-3.9388,-3.9388,-3.9388,-3.9388,-3.9388,-3.9388,-3.9403,-3.9448,-3.9388,-3.9496,-3.9696,-3.9889,-4.0294,-4.1015,-4.1326,-4.1704,-4.234,-4.2463,-4.2525,-4.2725,-4.2771,-4.2925,-4.3377,-4.3454,-4.3655,-4.4079,-4.4348,-4.4187,-4.4141,-4.4125,-4.4172,-4.4141,-4.4194,-4.3879,-0.7334,-0.748,-0.7518,-0.7518,-0.7518,-0.7518,-0.7518,-0.7518,-0.7518,-0.7518,-0.7561,-0.8136,-0.8441,-0.8536,-0.9549,-1.0134,-1.0354,-1.0797,-1.1117,-1.13,-1.1311,-1.1348,-1.1527,-1.1828,-1.2246,-1.279,-1.3626,-1.3999,-1.3922,-1.3964,-1.3999,-1.3964,-1.3957,-1.4914,-1.6535,-1.7155,-1.7804,-1.8567,-1.9054,-1.9292,-1.9292,-1.9292,-1.9292,-1.9292,-1.9292,-1.9292,-1.9292,-1.9292,-1.9341,-1.9429,-1.9429,-1.9657,-2.0109,-2.0914,-2.1799,-2.2759,-2.4476,-2.5771,-2.6376,-2.7203,-2.7696,-2.7696,-2.8518,-2.9057,-2.9172,-3.0444,-3.1046,-3.081,-3.1381,-3.1941,-3.228,-3.3077,-3.4057,-3.5155,-3.6272,-3.7256,-3.8113,-3.8922,-3.9388,-3.9388,-3.9388,-3.9388,-3.9388,-3.9388,-3.9388,-3.9388,-3.9388,-3.9493,-3.9888,-3.9948,-4.0057,-4.0347,-4.0593,-4.1082,-4.1807,-4.2068,-4.2432,-4.3017,-4.314,-4.3279,-4.3556,-4.3664,-4.3787,-4.4071,-4.4148,-4.4271,-4.4594,-4.461,-4.461,-4.461,-4.461,-4.461,-4.461,-4.461,-4.4341,-0.7257,-0.7411,-0.7484,-0.7518,-0.7518,-0.7518,-0.7518,-0.7518,-0.7518,-0.7518,-0.7595,-0.8169,-0.8475,-0.8646,-0.9542,-1.0127,-1.0471,-1.078,-1.1069,-1.1295,-1.1311,-1.1311,-1.1354,-1.1736,-1.1957,-1.2166,-1.3294,-1.3578,-1.3124,-1.3669,-1.3542,-1.2869,-1.3578,-1.4587,-1.5703,-1.6609,-1.7391,-1.7997,-1.8856,-1.9292,-1.9292,-1.9292,-1.9292,-1.9292,-1.9292,-1.9292,-1.9292,-1.9292,-1.9292,-1.9292,-1.9292,-1.9292,-1.9332,-2.0079,-2.0811,-2.167,-2.3591,-2.5177,-2.6142,-2.7048,-2.7603,-2.7603,-2.8171,-2.8438,-2.8407,-2.9755,-3.0571,-3.0368,-3.1345,-3.228,-3.2829,-3.343,-3.4295,-3.5534,-3.6439,-3.7242,-3.8113,-3.8922,-3.9388,-3.9388,-3.9388,-3.9388,-3.9388,-3.9388,-3.9463,-3.9612,-3.9612,-3.9918,-4.0457,-4.0695,-4.0962,-4.1319,-4.1477,-4.179,-4.2569,-4.2781,-4.311,-4.3716,-4.384,-4.4024,-4.4394,-4.4564,-4.4579,-4.4564,-4.4579,-4.4564,-4.4594,-4.461,-4.461,-4.461,-4.461,-4.461,-4.461,-4.461,-4.461,-0.7061,-0.7257,-0.7446,-0.7518,-0.7518,-0.7518,-0.7518,-0.7518,-0.7518,-0.7518,-0.7518,-0.7599,-0.7863,-0.8178,-0.8694,-0.9345,-1.008,-1.0451,-1.0876,-1.1273,-1.1311,-1.1311,-1.1311,-1.1607,-1.1828,-1.2129,-1.3167,-1.3711,-1.3753,-1.3873,-1.3535,-1.2869,-1.3584,-1.4245,-1.4873,-1.5681,-1.6715,-1.7957,-1.8847,-1.9292,-1.9292,-1.9292,-1.9292,-1.9292,-1.9292,-1.9292,-1.9292,-1.9292,-1.9292,-1.9292,-1.9292,-1.9292,-1.9381,-2.004,-2.0918,-2.1822,-2.3543,-2.5322,-2.7111,-2.7684,-2.7841,-2.7893,-2.7909,-2.7857,-2.7713,-2.9108,-3.0304,-3.0852,-3.1901,-3.2856,-3.3443,-3.3979,-3.4652,-3.5521,-3.6385,-3.7242,-3.8037,-3.8922,-3.9388,-3.9388,-3.9388,-3.9388,-3.9388,-3.9433,-3.9694,-4.0157,-4.0277,-4.0546,-4.1183,-4.152,-4.1987,-4.2447,-4.237,-4.2391,-4.3081,-4.342,-4.3741,-4.4317,-4.4486,-4.4517,-4.4579,-4.461,-4.461,-4.461,-4.461,-4.461,-4.461,-4.461,-4.461,-4.461,-4.461,-4.461,-4.461,-4.461,-4.461,-0.6907,-0.7184,-0.7296,-0.7407,-0.7484,-0.7518,-0.7518,-0.7518,-0.7518,-0.7518,-0.7561,-0.7753,-0.8059,-0.8475,-0.8861,-0.9515,-1.0333,-1.0511,-1.0855,-1.1284,-1.1311,-1.1311,-1.1311,-1.157,-1.1834,-1.2043,-1.2662,-1.3033,-1.3209,-1.3252,-1.3288,-1.3415,-1.333,-1.3669,-1.4468,-1.4866,-1.564,-1.6813,-1.7827,-1.8598,-1.9063,-1.9222,-1.9292,-1.9292,-1.9292,-1.9292,-1.9292,-1.9292,-1.9292,-1.9292,-1.9292,-1.9292,-1.9301,-1.9851,-2.0485,-2.1361,-2.3588,-2.5661,-2.7366,-2.7615,-2.7626,-2.7476,-2.7586,-2.7615,-2.7563,-2.8621,-2.9859,-3.1284,-3.2423,-3.3304,-3.3899,-3.4235,-3.4647,-3.5318,-3.6281,-3.7049,-3.7372,-3.8612,-3.9388,-3.9388,-3.9388,-3.9388,-3.9484,-3.9768,-4.0083,-4.0427,-4.0696,-4.122,-4.1871,-4.2159,-4.2598,-4.3342,-4.332,-4.3442,-4.3921,-4.4134,-4.4295,-4.4517,-4.461,-4.461,-4.461,-4.461,-4.461,-4.461,-4.461,-4.461,-4.461,-4.461,-4.461,-4.461,-4.461,-4.461,-4.461,-4.461,-4.461,-0.6795,-0.7103,-0.7219,-0.7369,-0.7518,-0.7518,-0.7518,-0.7518,-0.7518,-0.7561,-0.7676,-0.7991,-0.8408,-0.8861,-0.9165,-0.9766,-1.0474,-1.0565,-1.0812,-1.1193,-1.1273,-1.1311,-1.1305,-1.1483,-1.1742,-1.2,-1.2198,-1.2454,-1.2705,-1.2997,-1.3245,-1.3542,-1.3252,-1.3379,-1.3977,-1.4245,-1.4991,-1.6116,-1.7172,-1.8158,-1.8984,-1.9231,-1.9292,-1.9292,-1.9292,-1.9292,-1.9292,-1.9292,-1.9292,-1.9292,-1.9292,-1.9292,-1.9311,-1.9664,-2.0443,-2.1701,-2.3748,-2.5704,-2.7319,-2.7441,-2.7371,-2.7219,-2.733,-2.7441,-2.7708,-2.8702,-3.0119,-3.1601,-3.2975,-3.3952,-3.4353,-3.4533,-3.4799,-3.5263,-3.6241,-3.6972,-3.7333,-3.8598,-3.9388,-3.9388,-3.9388,-3.9463,-3.9709,-4.0098,-4.0472,-4.0965,-4.1407,-4.197,-4.2578,-4.2851,-4.3156,-4.3935,-4.4112,-4.4251,-4.4534,-4.451,-4.461,-4.461,-4.461,-4.461,-4.461,-4.461,-4.461,-4.461,-4.461,-4.461,-4.461,-4.461,-4.461,-4.461,-4.461,-4.461,-4.461,-4.461,-4.461,-0.6714,-0.6976,-0.7326,-0.7484,-0.7518,-0.7518,-0.7518,-0.7518,-0.7518,-0.7676,-0.8025,-0.8102,-0.856,-0.9246,-0.9284,-0.9689,-1.0281,-1.0501,-1.0772,-1.1031,-1.1203,-1.1311,-1.1311,-1.1311,-1.1564,-1.1957,-1.2037,-1.2289,-1.2741,-1.3457,-1.3542,-1.2869,-1.3542,-1.3633,-1.3464,-1.4035,-1.5032,-1.6232,-1.7131,-1.8189,-1.9143,-1.9292,-1.9292,-1.9292,-1.9292,-1.9292,-1.9292,-1.9292,-1.9292,-1.9292,-1.9292,-1.9292,-1.9329,-1.9674,-2.1018,-2.3391,-2.4219,-2.5348,-2.6921,-2.7231,-2.7231,-2.719,-2.7272,-2.7301,-2.7667,-2.9566,-3.1094,-3.1796,-3.3516,-3.4686,-3.5035,-3.4965,-3.51,-3.5561,-3.636,-3.7141,-3.7962,-3.8686,-3.9316,-3.9403,-3.9448,-3.9709,-4.0247,-4.0382,-4.104,-4.1841,-4.2291,-4.2614,-4.328,-4.3687,-4.3912,-4.4174,-4.4396,-4.4572,-4.461,-4.461,-4.461,-4.461,-4.461,-4.461,-4.461,-4.461,-4.461,-4.461,-4.461,-4.461,-4.461,-4.461,-4.461,-4.461,-4.461,-4.461,-4.461,-4.461,-4.461,-0.6602,-0.6942,-0.733,-0.7518,-0.7518,-0.7518,-0.7518,-0.7518,-0.7518,-0.7714,-0.8102,-0.8365,-0.8784,-0.9322,-0.9587,-0.9903,-1.0304,-1.053,-1.0762,-1.0993,-1.1193,-1.1311,-1.1311,-1.1311,-1.1478,-1.1785,-1.1957,-1.2252,-1.2662,-1.3039,-1.333,-1.3584,-1.3831,-1.3873,-1.3795,-1.3999,-1.4747,-1.5902,-1.6429,-1.7407,-1.8984,-1.9222,-1.9292,-1.9292,-1.9292,-1.9292,-1.9292,-1.9292,-1.9292,-1.9292,-1.9292,-1.9292,-1.9356,-1.9943,-2.1482,-2.3915,-2.4405,-2.5306,-2.688,-2.719,-2.719,-2.7231,-2.7476,-2.7679,-2.8061,-2.9613,-3.1249,-3.2383,-3.3595,-3.4767,-3.5534,-3.5195,-3.4825,-3.5291,-3.583,-3.6517,-3.7256,-3.8098,-3.8811,-3.9339,-3.9753,-4.0157,-4.0487,-4.1115,-4.1856,-4.2321,-4.2701,-4.3084,-4.3373,-4.3621,-4.391,-4.4089,-4.4281,-4.4473,-4.461,-4.461,-4.461,-4.461,-4.461,-4.461,-4.461,-4.461,-4.461,-4.461,-4.461,-4.461,-4.461,-4.461,-4.461,-4.461,-4.461,-4.461,-4.461,-4.461,-4.461,-0.6756,-0.7022,-0.7369,-0.7518,-0.7518,-0.7518,-0.7518,-0.7518,-0.7638,-0.7906,-0.8327,-0.8708,-0.9127,-0.9506,-0.9771,-0.9997,-1.0202,-1.0453,-1.0724,-1.0896,-1.116,-1.1311,-1.1311,-1.1311,-1.1478,-1.1785,-1.208,-1.2412,-1.2662,-1.2705,-1.2997,-1.3542,-1.3831,-1.4006,-1.4048,-1.4294,-1.5039,-1.6034,-1.6396,-1.7334,-1.8913,-1.9222,-1.9292,-1.9292,-1.9292,-1.9292,-1.9292,-1.9292,-1.9292,-1.9292,-1.9292,-1.9421,-1.9714,-2.0499,-2.2007,-2.413,-2.4776,-2.5558,-2.6933,-2.719,-2.719,-2.719,-2.7557,-2.7869,-2.8307,-2.9945,-3.1533,-3.2791,-3.4046,-3.5169,-3.5547,-3.5277,-3.4908,-3.5195,-3.5683,-3.6281,-3.6894,-3.7933,-3.8775,-3.9354,-3.9978,-4.0397,-4.0786,-4.1737,-4.2366,-4.2626,-4.3075,-4.3314,-4.3423,-4.3596,-4.3793,-4.4065,-4.422,-4.4396,-4.4534,-4.461,-4.461,-4.461,-4.461,-4.461,-4.461,-4.461,-4.461,-4.461,-4.461,-4.461,-4.461,-4.461,-4.461,-4.461,-4.461,-4.461,-4.461,-4.461,-4.461,-0.7184,-0.7219,-0.7446,-0.7518,-0.7518,-0.7518,-0.7518,-0.7561,-0.791,-0.825,-0.8665,-0.9089,-0.9468,-0.9803,-0.9884,-0.9895,-1.003,-1.0383,-1.0608,-1.0672,-1.1096,-1.1311,-1.1311,-1.1311,-1.157,-1.1957,-1.2418,-1.2668,-1.2705,-1.2705,-1.2747,-1.2918,-1.3753,-1.4126,-1.4006,-1.4929,-1.6049,-1.6984,-1.7229,-1.7965,-1.9094,-1.9292,-1.9292,-1.9292,-1.9292,-1.9292,-1.9292,-1.9292,-1.9292,-1.9292,-1.9292,-1.9687,-2.049,-2.1329,-2.2677,-2.4354,-2.5326,-2.6185,-2.7015,-2.719,-2.719,-2.7231,-2.7412,-2.7914,-2.8913,-3.0591,-3.2117,-3.3211,-3.4592,-3.5575,-3.5372,-3.544,-3.544,-3.5277,-3.599,-3.6699,-3.7151,-3.8345,-3.9403,-3.9574,-4.0098,-4.0666,-4.1309,-4.2066,-4.2656,-4.309,-4.3245,-4.3369,-4.3542,-4.369,-4.391,-4.4166,-4.432,-4.4435,-4.4534,-4.461,-4.461,-4.461,-4.461,-4.461,-4.461,-4.461,-4.461,-4.461,-4.461,-4.461,-4.461,-4.461,-4.461,-4.461,-4.461,-4.461,-4.461,-4.461,-4.461,-0.7184,-0.7223,-0.7446,-0.7518,-0.7518,-0.7518,-0.7518,-0.7557,-0.791,-0.8322,-0.8703,-0.9132,-0.9544,-0.9846,-0.9884,-0.9884,-0.9927,-1.0367,-1.0597,-1.0678,-1.1085,-1.1311,-1.1311,-1.1311,-1.1521,-1.1957,-1.2166,-1.2412,-1.2662,-1.2705,-1.2705,-1.2954,-1.4216,-1.4552,-1.4168,-1.5504,-1.6698,-1.7277,-1.7399,-1.8006,-1.9173,-1.9292,-1.9292,-1.9292,-1.9292,-1.9292,-1.9292,-1.9292,-1.9292,-1.9292,-1.9301,-1.995,-2.1199,-2.1722,-2.2978,-2.5093,-2.5621,-2.6227,-2.7015,-2.719,-2.719,-2.7219,-2.7371,-2.7834,-2.8742,-3.0613,-3.221,-3.3316,-3.4753,-3.5723,-3.5938,-3.5764,-3.5426,-3.4688,-3.5749,-3.6713,-3.7165,-3.842,-3.9488,-4.0083,-4.0666,-4.1324,-4.1968,-4.2635,-4.3045,-4.3215,-4.3305,-4.3384,-4.3423,-4.3699,-4.391,-4.4089,-4.4281,-4.4458,-4.4534,-4.461,-4.461,-4.461,-4.461,-4.461,-4.461,-4.461,-4.461,-4.461,-4.461,-4.461,-4.461,-4.461,-4.461,-4.461,-4.461,-4.461,-4.461,-4.461,-4.461,-0.7296,-0.733,-0.7446,-0.7518,-0.7518,-0.7518,-0.7599,-0.7753,-0.8136,-0.8556,-0.8932,-0.9354,-0.9657,-0.9846,-0.9884,-0.9884,-0.9965,-1.0297,-1.0517,-1.0656,-1.1091,-1.1343,-1.1478,-1.1645,-1.1817,-1.2118,-1.2246,-1.2412,-1.2662,-1.2705,-1.2875,-1.3415,-1.4678,-1.5304,-1.5123,-1.6412,-1.7399,-1.7732,-1.7861,-1.8304,-1.9024,-1.9262,-1.9292,-1.9292,-1.9292,-1.9292,-1.9292,-1.9292,-1.9292,-1.9332,-1.9569,-2.045,-2.1779,-2.2513,-2.3771,-2.5341,-2.6174,-2.6622,-2.7149,-2.719,-2.719,-2.726,-2.7615,-2.8207,-2.9105,-3.0853,-3.2342,-3.3538,-3.4726,-3.5602,-3.5777,-3.5844,-3.5304,-3.4522,-3.591,-3.7,-3.7753,-3.8745,-3.9636,-4.0277,-4.0935,-4.1677,-4.2321,-4.291,-4.3275,-4.3305,-4.3305,-4.3305,-4.3384,-4.3621,-4.3817,-4.4026,-4.4243,-4.4419,-4.4572,-4.461,-4.461,-4.461,-4.461,-4.461,-4.461,-4.461,-4.461,-4.461,-4.461,-4.461,-4.461,-4.461,-4.461,-4.461,-4.461,-4.461,-4.461,-4.461,-4.461,-0.7518,-0.7518,-0.7518,-0.7518,-0.7561,-0.7561,-0.7791,-0.814,-0.8551,-0.8937,-0.9322,-0.9657,-0.9884,-0.9884,-0.9884,-0.9884,-0.9932,-1.0196,-1.0449,-1.0662,-1.1032,-1.1391,-1.1693,-1.1989,-1.2198,-1.2369,-1.2497,-1.2619,-1.2705,-1.2705,-1.3124,-1.3964,-1.4887,-1.5801,-1.6453,-1.7489,-1.8031,-1.8273,-1.8523,-1.8772,-1.9042,-1.9183,-1.9292,-1.9292,-1.9292,-1.9292,-1.9292,-1.9411,-1.942,-1.9499,-2.0157,-2.1086,-2.217,-2.3644,-2.4785,-2.5909,-2.6745,-2.7015,-2.719,-2.719,-2.719,-2.7231,-2.7898,-2.884,-2.9694,-3.105,-3.2513,-3.3747,-3.4674,-3.5154,-3.5249,-3.548,-3.5304,-3.4964,-3.6255,-3.7744,-3.9119,-3.9373,-3.9732,-4.0412,-4.104,-4.1707,-4.241,-4.3015,-4.3215,-4.3305,-4.3305,-4.3305,-4.3344,-4.3542,-4.3754,-4.3988,-4.4205,-4.4396,-4.4534,-4.461,-4.461,-4.461,-4.461,-4.461,-4.461,-4.461,-4.461,-4.461,-4.4632,-4.4632,-4.461,-4.461,-4.461,-4.461,-4.461,-4.4625,-4.4723,-4.4858,-4.4993,-0.7518,-0.7518,-0.7518,-0.7676,-0.791,-0.7949,-0.8174,-0.8589,-0.8975,-0.9203,-0.9397,-0.9733,-0.9884,-0.9884,-0.9884,-0.9884,-0.9981,-1.0169,-1.0417,-1.0608,-1.0929,-1.1394,-1.1794,-1.1914,-1.2075,-1.2369,-1.2332,-1.2375,-1.2662,-1.2741,-1.3203,-1.3999,-1.5005,-1.5884,-1.6706,-1.7578,-1.8121,-1.8402,-1.8612,-1.8812,-1.9042,-1.9192,-1.9292,-1.9292,-1.9332,-1.9332,-1.9371,-1.9883,-2.0196,-2.0235,-2.1001,-2.2208,-2.3557,-2.4252,-2.5196,-2.6542,-2.7003,-2.719,-2.719,-2.719,-2.719,-2.726,-2.7938,-2.8775,-2.9856,-3.1133,-3.2523,-3.3807,-3.4713,-3.5072,-3.5154,-3.544,-3.5575,-3.5896,-3.6596,-3.7729,-3.8958,-3.9418,-3.9828,-4.0905,-4.1302,-4.1938,-4.2746,-4.3125,-4.3305,-4.3305,-4.3305,-4.3305,-4.3344,-4.3518,-4.3754,-4.3949,-4.4166,-4.4358,-4.4511,-4.4572,-4.461,-4.461,-4.461,-4.461,-4.461,-4.461,-4.461,-4.461,-4.4783,-4.4821,-4.4685,-4.4625,-4.461,-4.467,-4.4858,-4.4993,-4.5274,-4.5442,-4.5717,-0.7599,-0.7753,-0.7753,-0.7983,-0.8331,-0.8369,-0.8551,-0.8937,-0.917,-0.9397,-0.9587,-0.9765,-0.9884,-0.9884,-0.9884,-0.9884,-0.9949,-1.0073,-1.0315,-1.067,-1.1119,-1.1518,-1.1849,-1.1952,-1.2246,-1.2369,-1.2369,-1.2668,-1.3167,-1.3245,-1.3915,-1.5081,-1.567,-1.6378,-1.7245,-1.7708,-1.8152,-1.8402,-1.8612,-1.8922,-1.945,-1.9341,-1.9805,-2.0031,-2.007,-1.9923,-2.0372,-2.1116,-2.1423,-2.1346,-2.1873,-2.2987,-2.4307,-2.4854,-2.5678,-2.7087,-2.719,-2.719,-2.719,-2.719,-2.719,-2.7383,-2.8018,-2.9003,-3.0029,-3.1327,-3.2814,-3.402,-3.4563,-3.4841,-3.5072,-3.5154,-3.5453,-3.5896,-3.6557,-3.7448,-3.8775,-3.946,-4.024,-4.1123,-4.1707,-4.2147,-4.317,-4.329,-4.3305,-4.3305,-4.3305,-4.3305,-4.3344,-4.3557,-4.3754,-4.3949,-4.4166,-4.4358,-4.4496,-4.4572,-4.461,-4.461,-4.461,-4.461,-4.461,-4.461,-4.461,-4.4632,-4.4843,-4.4993,-4.4821,-4.4799,-4.4896,-4.503,-4.5237,-4.5421,-4.5624,-4.6005,-4.6272,-0.7753,-0.7983,-0.8102,-0.8403,-0.8742,-0.878,-0.8975,-0.9322,-0.9397,-0.9587,-0.9884,-0.9916,-0.9997,-0.9954,-1.003,-0.996,-0.9997,-1.0062,-1.0467,-1.1036,-1.1647,-1.2176,-1.2406,-1.2619,-1.2699,-1.2741,-1.2833,-1.3421,-1.4006,-1.4126,-1.5039,-1.6075,-1.6576,-1.7155,-1.77,-1.8,-1.8152,-1.8393,-1.8803,-1.9341,-1.9943,-1.9952,-2.045,-2.1221,-2.0952,-2.1078,-2.1766,-2.2456,-2.2617,-2.2107,-2.2767,-2.3633,-2.4598,-2.5383,-2.6142,-2.6949,-2.719,-2.719,-2.719,-2.719,-2.7272,-2.7545,-2.8462,-2.9455,-3.0381,-3.1776,-3.3066,-3.4151,-3.4316,-3.4594,-3.4825,-3.466,-3.484,-3.5494,-3.6281,-3.7218,-3.8138,-3.9461,-4.0651,-4.1347,-4.1991,-4.2611,-4.3105,-4.3305,-4.3305,-4.3305,-4.3305,-4.3305,-4.3344,-4.3423,-4.3714,-4.3949,-4.4143,-4.4305,-4.4458,-4.461,-4.461,-4.461,-4.461,-4.461,-4.461,-4.461,-4.461,-4.467,-4.4783,-4.4933,-4.5046,-4.503,-4.5216,-4.5405,-4.5681,-4.5697,-4.5769,-4.6359,-4.6761,-0.7753,-0.7476,-0.8241,-0.8822,-0.9127,-0.917,-0.9397,-0.9765,-0.9771,-0.9922,-1.0105,-1.0143,-1.0218,-1.0368,-1.0331,-1.0368,-1.0374,-1.044,-1.0985,-1.2215,-1.2992,-1.3627,-1.3778,-1.362,-1.3372,-1.3535,-1.4161,-1.4671,-1.5012,-1.5179,-1.5628,-1.6576,-1.687,-1.7164,-1.787,-1.808,-1.8161,-1.8514,-1.9213,-1.9825,-2.0401,-2.0914,-2.1336,-2.1832,-2.169,-2.1993,-2.258,-2.2879,-2.3213,-2.3593,-2.3866,-2.4408,-2.5168,-2.5572,-2.6193,-2.6915,-2.719,-2.719,-2.719,-2.7231,-2.7423,-2.7978,-2.8669,-2.975,-3.1324,-3.2092,-3.3182,-3.4063,-3.4374,-3.4481,-3.4564,-3.4481,-3.4564,-3.4991,-3.5989,-3.6933,-3.7457,-3.9132,-4.0636,-4.1309,-4.2036,-4.2611,-4.32,-4.329,-4.3305,-4.3305,-4.3305,-4.3305,-4.3344,-4.3384,-4.3636,-4.391,-4.4065,-4.4205,-4.4435,-4.461,-4.4708,-4.4708,-4.467,-4.4783,-4.4783,-4.461,-4.461,-4.461,-4.4648,-4.4858,-4.5274,-4.5494,-4.566,-4.5897,-4.606,-4.6166,-4.6308,-4.683,-4.7153,-0.7748,-0.774,-0.8585,-0.9279,-0.9695,-0.9738,-0.9884,-1.0143,-1.018,-1.0218,-1.0325,-1.0325,-1.0406,-1.0513,-1.0513,-1.0475,-1.0622,-1.1061,-1.1966,-1.312,-1.3789,-1.4248,-1.4858,-1.4824,-1.4747,-1.4545,-1.488,-1.5421,-1.5835,-1.609,-1.646,-1.7237,-1.7286,-1.7538,-1.804,-1.8322,-1.8705,-1.9213,-1.9904,-2.0644,-2.1489,-2.1642,-2.2069,-2.2408,-2.2718,-2.3165,-2.3519,-2.3556,-2.3824,-2.4173,-2.454,-2.4964,-2.5601,-2.5945,-2.6462,-2.7007,-2.719,-2.719,-2.719,-2.7231,-2.7505,-2.8179,-2.8779,-3.0052,-3.1394,-3.2367,-3.3207,-3.4058,-3.4397,-3.4397,-3.4397,-3.4397,-3.4397,-3.4592,-3.5561,-3.6425,-3.7229,-3.9238,-4.095,-4.1489,-4.2252,-4.2821,-4.317,-4.3275,-4.3305,-4.3305,-4.3305,-4.3305,-4.3305,-4.3384,-4.3503,-4.3754,-4.391,-4.4089,-4.4358,-4.461,-4.4843,-4.4858,-4.4858,-4.503,-4.52,-4.488,-4.461,-4.4685,-4.4783,-4.5384,-4.5753,-4.5933,-4.5933,-4.5825,-4.5969,-4.6413,-4.6761,-4.6932,-4.7322,-0.7821,-0.8232,-0.9084,-0.9728,-1.018,-1.0218,-1.0325,-1.0475,-1.0513,-1.0481,-1.055,-1.0556,-1.0588,-1.0588,-1.0625,-1.0625,-1.1053,-1.1828,-1.2995,-1.4251,-1.4554,-1.5113,-1.5647,-1.6083,-1.6124,-1.5504,-1.5835,-1.6337,-1.6747,-1.6952,-1.7204,-1.787,-1.8112,-1.8193,-1.8313,-1.8904,-1.949,-2.0021,-2.0788,-2.1614,-2.2617,-2.2456,-2.2681,-2.3139,-2.3629,-2.397,-2.408,-2.408,-2.42,-2.4271,-2.5011,-2.5472,-2.5835,-2.6293,-2.6771,-2.7214,-2.7301,-2.7435,-2.7464,-2.7505,-2.7788,-2.8367,-2.8937,-3.0099,-3.1594,-3.2485,-3.3259,-3.394,-3.4397,-3.4439,-3.4481,-3.4452,-3.4397,-3.4592,-3.5264,-3.6108,-3.7222,-3.9545,-4.1106,-4.1557,-4.2372,-4.311,-4.323,-4.3305,-4.3305,-4.3305,-4.3305,-4.3305,-4.3305,-4.3344,-4.3503,-4.3675,-4.3871,-4.4166,-4.4435,-4.4572,-4.4805,-4.4993,-4.4971,-4.5179,-4.5421,-4.5237,-4.4955,-4.4896,-4.5104,-4.5588,-4.5933,-4.6076,-4.5969,-4.5717,-4.6024,-4.671,-4.6932,-4.6967,-4.7556,-0.8156,-0.8418,-0.9566,-1.0143,-1.0218,-1.0368,-1.0481,-1.0475,-1.055,-1.0594,-1.0743,-1.0732,-1.085,-1.0925,-1.0999,-1.1335,-1.1985,-1.2922,-1.4014,-1.5272,-1.57,-1.6292,-1.7074,-1.7245,-1.7294,-1.7497,-1.7529,-1.7651,-1.77,-1.7829,-1.7974,-1.8152,-1.8594,-1.8803,-1.9063,-1.9708,-2.0323,-2.0827,-2.1707,-2.2606,-2.3027,-2.3446,-2.3618,-2.3861,-2.408,-2.4152,-2.4225,-2.4236,-2.4273,-2.451,-2.5373,-2.5928,-2.6347,-2.6808,-2.7328,-2.7504,-2.7857,-2.8059,-2.8099,-2.8219,-2.8764,-2.9457,-2.9805,-3.0699,-3.2031,-3.2724,-3.3379,-3.4005,-3.4439,-3.4564,-3.4936,-3.4618,-3.4439,-3.4758,-3.5494,-3.6529,-3.7353,-3.9189,-4.1226,-4.1474,-4.2423,-4.3305,-4.3305,-4.3305,-4.3305,-4.3305,-4.3305,-4.3305,-4.3305,-4.3344,-4.3423,-4.3621,-4.3886,-4.4181,-4.4511,-4.461,-4.4783,-4.4993,-4.5067,-4.5163,-4.5384,-4.5494,-4.5384,-4.503,-4.5104,-4.5494,-4.5805,-4.6111,-4.6253,-4.6147,-4.6622,-4.7053,-4.7103,-4.7187,-4.8113,-0.8152,-0.8803,-0.9798,-1.0331,-1.0519,-1.0588,-1.07,-1.0812,-1.0812,-1.085,-1.0925,-1.0962,-1.0999,-1.1074,-1.1117,-1.1737,-1.29,-1.3962,-1.5069,-1.6198,-1.6778,-1.724,-1.8037,-1.8121,-1.8322,-1.8554,-1.8785,-1.8776,-1.8585,-1.8856,-1.8886,-1.9045,-1.9332,-1.945,-1.9678,-2.0479,-2.1135,-2.1631,-2.2558,-2.3324,-2.3593,-2.408,-2.4152,-2.4236,-2.4189,-2.4189,-2.4298,-2.4719,-2.4884,-2.5236,-2.659,-2.7085,-2.7408,-2.8114,-2.8813,-2.8548,-2.8806,-2.9055,-2.9015,-2.9106,-2.9484,-3.0203,-3.0548,-3.1448,-3.262,-3.3331,-3.3765,-3.4247,-3.4688,-3.4729,-3.4688,-3.4522,-3.4439,-3.4522,-3.5251,-3.6029,-3.7108,-3.896,-4.027,-4.1375,-4.2497,-4.3185,-4.3305,-4.3305,-4.3305,-4.3305,-4.3305,-4.3305,-4.3305,-4.3344,-4.3369,-4.3747,-4.4112,-4.4632,-4.4933,-4.4993,-4.4993,-4.5126,-4.5237,-4.5311,-4.5442,-4.564,-4.529,-4.4799,-4.5046,-4.5494,-4.5913,-4.6288,-4.6464,-4.6534,-4.6588,-4.6692,-4.7035,-4.7522,-4.8386,-0.8118,-0.9074,-0.9949,-1.0513,-1.0781,-1.0856,-1.0962,-1.1074,-1.108,-1.1111,-1.1149,-1.1111,-1.1111,-1.1223,-1.1515,-1.2248,-1.3739,-1.4828,-1.5781,-1.6683,-1.7231,-1.7694,-1.8266,-1.8683,-1.8993,-1.9213,-1.9766,-1.9766,-1.9332,-1.952,-1.9816,-1.9825,-1.9933,-2.0177,-2.045,-2.1336,-2.1907,-2.2596,-2.335,-2.4068,-2.4431,-2.4334,-2.437,-2.4442,-2.4334,-2.4261,-2.4467,-2.5028,-2.5481,-2.6154,-2.7394,-2.8553,-2.8423,-2.9984,-3.0644,-2.9973,-3.0203,-3.0139,-2.9999,-2.9935,-3.0203,-3.0835,-3.1381,-3.2239,-3.3093,-3.3821,-3.4458,-3.4678,-3.4825,-3.4949,-3.4701,-3.4481,-3.4397,-3.4522,-3.4827,-3.5467,-3.6942,-3.8599,-4.0251,-4.1442,-4.2583,-4.3095,-4.326,-4.3305,-4.3305,-4.3305,-4.3305,-4.3305,-4.3305,-4.3305,-4.3448,-4.3927,-4.4412,-4.511,-4.5405,-4.5478,-4.5478,-4.5442,-4.5478,-4.5515,-4.5697,-4.5893,-4.5437,-4.5083,-4.5237,-4.5697,-4.6076,-4.6359,-4.6359,-4.6324,-4.6202,-4.6413,-4.6864,-4.7589,-4.8418,-0.8262,-0.9112,-1.0244,-1.0775,-1.085,-1.0999,-1.1074,-1.1111,-1.1111,-1.1223,-1.1335,-1.1229,-1.1223,-1.1583,-1.2241,-1.3222,-1.4315,-1.5296,-1.6063,-1.6906,-1.7415,-1.8062,-1.8758,-1.8922,-1.946,-1.9835,-2.0469,-2.0343,-2.007,-2.0021,-2.0021,-2.0138,-2.0576,-2.0934,-2.1308,-2.2117,-2.3001,-2.3519,-2.4335,-2.5087,-2.537,-2.4743,-2.4886,-2.5087,-2.485,-2.4539,-2.5028,-2.5571,-2.6062,-2.6828,-2.8153,-2.9194,-2.9861,-3.1133,-3.1788,-3.1586,-3.1254,-3.0745,-3.0645,-3.0771,-3.0972,-3.1538,-3.2128,-3.2663,-3.3645,-3.4487,-3.517,-3.5507,-3.5318,-3.5086,-3.4908,-3.4605,-3.4481,-3.4786,-3.5305,-3.5989,-3.7169,-3.8503,-4.0115,-4.1412,-4.2527,-4.3006,-4.3305,-4.3305,-4.3305,-4.3305,-4.3305,-4.3305,-4.3305,-4.3305,-4.363,-4.4143,-4.4759,-4.541,-4.5933,-4.6005,-4.5861,-4.5789,-4.5825,-4.5769,-4.5588,-4.5676,-4.5985,-4.5785,-4.5769,-4.5969,-4.6604,-4.6673,-4.6359,-4.6359,-4.6569,-4.6708,-4.6846,-4.7638,-4.853,-0.9291,-1.0056,-1.0588,-1.085,-1.0999,-1.1186,-1.126,-1.1298,-1.1366,-1.1484,-1.1558,-1.1484,-1.1737,-1.2388,-1.3484,-1.4286,-1.4989,-1.5958,-1.6572,-1.7144,-1.7856,-1.8576,-1.9067,-1.9696,-2.0274,-2.0508,-2.1021,-2.129,-2.1011,-2.0972,-2.0972,-2.0972,-2.1252,-2.1596,-2.2042,-2.2665,-2.3361,-2.407,-2.4957,-2.5604,-2.5721,-2.5476,-2.5406,-2.5849,-2.5406,-2.5441,-2.5875,-2.688,-2.7443,-2.8286,-2.9729,-3.0659,-3.0947,-3.1793,-3.2618,-3.2087,-3.2295,-3.2114,-3.1882,-3.1846,-3.1996,-3.2399,-3.3121,-3.4126,-3.4879,-3.545,-3.5696,-3.5669,-3.5548,-3.5358,-3.5072,-3.4688,-3.4481,-3.4716,-3.5345,-3.6217,-3.7111,-3.8635,-4.0043,-4.1288,-4.2417,-4.2901,-4.3305,-4.3305,-4.3305,-4.3305,-4.3305,-4.3305,-4.3305,-4.3305,-4.3786,-4.4412,-4.5079,-4.5758,-4.6237,-4.6518,-4.6253,-4.6182,-4.6253,-4.604,-4.5384,-4.5348,-4.5769,-4.5713,-4.5348,-4.5877,-4.688,-4.6534,-4.5769,-4.6288,-4.7051,-4.6983,-4.6983,-4.7918,-4.8418,-1.0282,-1.085,-1.0887,-1.0999,-1.1186,-1.1335,-1.1446,-1.1477,-1.1632,-1.1706,-1.1818,-1.2003,-1.2505,-1.3339,-1.4502,-1.5161,-1.538,-1.6809,-1.7254,-1.7731,-1.8446,-1.9237,-1.9775,-2.0479,-2.0905,-2.1136,-2.1492,-2.1835,-2.2063,-2.2025,-2.1949,-2.1807,-2.1845,-2.2241,-2.2718,-2.3265,-2.3961,-2.5099,-2.5569,-2.5988,-2.6242,-2.6035,-2.6057,-2.6161,-2.6208,-2.628,-2.6951,-2.7965,-2.8776,-2.9764,-3.1067,-3.1846,-3.1888,-3.2555,-3.298,-3.2668,-3.2874,-3.298,-3.2739,-3.2632,-3.2759,-3.3242,-3.4067,-3.5137,-3.6164,-3.651,-3.6312,-3.5924,-3.5723,-3.548,-3.5113,-3.4701,-3.4481,-3.4522,-3.484,-3.5817,-3.693,-3.8558,-4.0184,-4.1622,-4.2596,-4.3021,-4.3305,-4.3305,-4.3305,-4.3305,-4.3305,-4.3305,-4.3305,-4.3305,-4.3747,-4.4412,-4.519,-4.5901,-4.6483,-4.6777,-4.6569,-4.6359,-4.6429,-4.6253,-4.5478,-4.5348,-4.566,-4.5458,-4.5104,-4.5567,-4.6429,-4.5769,-4.5253,-4.6253,-4.7051,-4.6983,-4.7254,-4.8113,-4.821,-1.085,-1.1074,-1.1074,-1.1186,-1.1372,-1.1409,-1.1521,-1.1669,-1.1706,-1.1855,-1.2187,-1.2769,-1.3419,-1.4142,-1.5037,-1.5798,-1.6202,-1.7661,-1.7981,-1.8385,-1.9219,-2.0081,-2.0508,-2.0828,-2.1262,-2.1683,-2.1987,-2.2327,-2.2767,-2.2942,-2.2505,-2.1949,-2.2505,-2.3005,-2.3621,-2.4228,-2.5028,-2.5884,-2.6208,-2.6505,-2.6722,-2.662,-2.6449,-2.7007,-2.6829,-2.6857,-2.792,-2.893,-2.9828,-3.0737,-3.1854,-3.2673,-3.2763,-3.3051,-3.3171,-3.3136,-3.3136,-3.3241,-3.3122,-3.2973,-3.3093,-3.3684,-3.462,-3.5742,-3.6685,-3.6575,-3.6391,-3.6272,-3.5965,-3.5602,-3.5195,-3.4743,-3.4439,-3.4605,-3.4948,-3.5778,-3.7089,-3.868,-4.0317,-4.1896,-4.2761,-4.3155,-4.3305,-4.3305,-4.3305,-4.3305,-4.3305,-4.3305,-4.3305,-4.3344,-4.3708,-4.4297,-4.519,-4.5937,-4.6708,-4.6777,-4.6483,-4.6131,-4.6005,-4.5861,-4.5515,-4.5588,-4.5442,-4.5551,-4.5348,-4.566,-4.5805,-4.5458,-4.5531,-4.6499,-4.7051,-4.7051,-4.7017,-4.7456,-4.7389,-1.1037,-1.1111,-1.1223,-1.1335,-1.1409,-1.1669,-1.1818,-1.1892,-1.2003,-1.2402,-1.2952,-1.3738,-1.4458,-1.5152,-1.5903,-1.6368,-1.6694,-1.8087,-1.8368,-1.891,-1.9802,-2.0739,-2.1088,-2.1405,-2.1797,-2.2354,-2.2553,-2.3016,-2.3768,-2.3841,-2.3818,-2.3635,-2.3647,-2.4047,-2.4696,-2.5334,-2.6104,-2.6496,-2.6816,-2.7175,-2.7222,-2.7209,-2.7074,-2.7356,-2.809,-2.8255,-2.9053,-3.0215,-3.1089,-3.182,-3.2563,-3.2975,-3.3206,-3.3262,-3.3276,-3.3276,-3.3276,-3.3276,-3.3319,-3.3219,-3.3519,-3.451,-3.5386,-3.6179,-3.6922,-3.6797,-3.6772,-3.6561,-3.6125,-3.5723,-3.5858,-3.5072,-3.4481,-3.4743,-3.5205,-3.5885,-3.7125,-3.8752,-4.0198,-4.167,-4.2604,-4.326,-4.3305,-4.3305,-4.3305,-4.3305,-4.3305,-4.3305,-4.3305,-4.3305,-4.3606,-4.3966,-4.4743,-4.519,-4.5881,-4.6131,-4.6308,-4.5953,-4.5572,-4.5405,-4.5237,-4.503,-4.4955,-4.52,-4.5458,-4.5567,-4.5531,-4.5311,-4.5588,-4.6218,-4.6777,-4.7187,-4.7119,-4.7051,-4.6673,-1.1117,-1.1149,-1.1378,-1.1484,-1.1521,-1.1855,-1.2046,-1.2114,-1.2224,-1.2739,-1.3571,-1.4466,-1.5251,-1.5903,-1.6517,-1.6994,-1.7406,-1.8514,-1.8996,-1.9829,-2.0876,-2.1628,-2.1749,-2.1987,-2.2515,-2.3065,-2.3313,-2.3694,-2.4696,-2.4743,-2.5052,-2.5252,-2.5264,-2.5452,-2.558,-2.6414,-2.6918,-2.7053,-2.7268,-2.7503,-2.7503,-2.7469,-2.7639,-2.7852,-2.8584,-2.9389,-3.012,-3.1186,-3.2013,-3.2549,-3.2996,-3.322,-3.3276,-3.3276,-3.3276,-3.3276,-3.3276,-3.3276,-3.3347,-3.3817,-3.4309,-3.5283,-3.6009,-3.6557,-3.6852,-3.6978,-3.6954,-3.69,-3.635,-3.6018,-3.6312,-3.5399,-3.4784,-3.4962,-3.496,-3.5615,-3.707,-3.8573,-3.9986,-4.1407,-4.2324,-4.3305,-4.3305,-4.3305,-4.3305,-4.3305,-4.3305,-4.3305,-4.3305,-4.3305,-4.3344,-4.3708,-4.4167,-4.451,-4.4774,-4.5353,-4.5845,-4.552,-4.5184,-4.5014,-4.4821,-4.4632,-4.461,-4.4896,-4.5104,-4.5237,-4.5179,-4.4993,-4.5237,-4.5676,-4.6182,-4.6708,-4.7204,-4.7035,-4.6359,-1.1117,-1.1149,-1.1558,-1.1744,-1.1774,-1.1929,-1.2157,-1.2409,-1.2482,-1.2959,-1.3861,-1.5117,-1.5727,-1.6044,-1.676,-1.7304,-1.8051,-1.9289,-2.0186,-2.0843,-2.1961,-2.2728,-2.2841,-2.2916,-2.3176,-2.3508,-2.3913,-2.4576,-2.5592,-2.5662,-2.6195,-2.6667,-2.6633,-2.6461,-2.6217,-2.7007,-2.7456,-2.749,-2.7503,-2.7503,-2.7503,-2.7555,-2.7889,-2.8287,-2.9241,-3.0167,-3.0923,-3.1903,-3.266,-3.308,-3.3164,-3.3276,-3.3276,-3.3276,-3.3276,-3.3276,-3.3276,-3.3304,-3.3438,-3.4514,-3.5316,-3.5892,-3.6441,-3.6838,-3.695,-3.6978,-3.6978,-3.694,-3.6575,-3.6351,-3.6112,-3.5683,-3.5318,-3.5257,-3.531,-3.5673,-3.7099,-3.8575,-4.0022,-4.1169,-4.2372,-4.3305,-4.3305,-4.3305,-4.3305,-4.3305,-4.3305,-4.3305,-4.3305,-4.3305,-4.3305,-4.3448,-4.381,-4.395,-4.4335,-4.5036,-4.5332,-4.5036,-4.4827,-4.4632,-4.4594,-4.4572,-4.461,-4.4685,-4.4783,-4.4918,-4.4821,-4.4632,-4.5179,-4.5713,-4.5713,-4.6127,-4.6761,-4.6932,-4.6147,-1.1186,-1.1366,-1.2137,-1.2579,-1.2652,-1.2335,-1.2512,-1.3135,-1.3637,-1.4279,-1.4974,-1.5692,-1.6123,-1.6612,-1.726,-1.7842,-1.834,-2.0257,-2.1258,-2.1211,-2.2663,-2.3003,-2.3213,-2.3486,-2.3815,-2.4348,-2.4826,-2.551,-2.6543,-2.6517,-2.6837,-2.7335,-2.7335,-2.7268,-2.7142,-2.7423,-2.7503,-2.7503,-2.7503,-2.7503,-2.7542,-2.7876,-2.819,-2.852,-2.9845,-3.0833,-3.1393,-3.234,-3.3038,-3.3262,-3.3276,-3.3276,-3.3276,-3.3276,-3.3276,-3.3276,-3.3304,-3.3761,-3.4393,-3.5358,-3.5822,-3.6258,-3.6599,-3.6964,-3.6978,-3.6978,-3.6978,-3.6915,-3.6693,-3.6589,-3.6561,-3.5965,-3.5643,-3.5965,-3.6102,-3.6207,-3.7203,-3.8711,-4.0123,-4.1036,-4.2099,-4.2996,-4.3305,-4.3305,-4.3305,-4.3305,-4.3305,-4.3305,-4.3305,-4.3305,-4.3305,-4.329,-4.3472,-4.3591,-4.3888,-4.4373,-4.4601,-4.4312,-4.4289,-4.4305,-4.4305,-4.4419,-4.4534,-4.4648,-4.461,-4.461,-4.461,-4.4708,-4.5384,-4.5821,-4.564,-4.5713,-4.6324,-4.6324,-4.5697,-1.1626,-1.1916,-1.2865,-1.3419,-1.352,-1.3237,-1.3419,-1.3962,-1.4673,-1.533,-1.5798,-1.628,-1.6802,-1.7398,-1.7969,-1.86,-1.8903,-2.0599,-2.1827,-2.1726,-2.3061,-2.3663,-2.39,-2.4059,-2.466,-2.524,-2.5814,-2.6461,-2.6998,-2.7214,-2.7302,-2.7369,-2.7456,-2.7436,-2.7456,-2.7469,-2.7503,-2.7503,-2.7503,-2.7633,-2.7876,-2.8203,-2.8582,-2.9337,-3.0316,-3.1412,-3.1848,-3.254,-3.3276,-3.3276,-3.3276,-3.3276,-3.3276,-3.3276,-3.3276,-3.3276,-3.3585,-3.414,-3.4992,-3.5695,-3.6103,-3.6483,-3.6849,-3.695,-3.6978,-3.6978,-3.6978,-3.6915,-3.6733,-3.6758,-3.6797,-3.6151,-3.6171,-3.6497,-3.6648,-3.6698,-3.7215,-3.8728,-4.0055,-4.0999,-4.2041,-4.279,-4.3215,-4.3305,-4.3305,-4.3305,-4.3305,-4.3305,-4.3305,-4.3305,-4.3305,-4.329,-4.329,-4.3409,-4.3448,-4.3551,-4.3645,-4.3581,-4.3738,-4.3988,-4.4181,-4.4281,-4.4435,-4.4587,-4.4572,-4.461,-4.461,-4.4858,-4.5216,-4.5384,-4.5311,-4.5515,-4.5949,-4.5676,-4.5216,-1.2475,-1.2785,-1.3673,-1.4178,-1.435,-1.4629,-1.4744,-1.4752,-1.5542,-1.5895,-1.6009,-1.7448,-1.7959,-1.8138,-1.8734,-1.9332,-2.0117,-2.1248,-2.2059,-2.2776,-2.3754,-2.4317,-2.4802,-2.5004,-2.5417,-2.607,-2.6598,-2.6884,-2.7281,-2.7335,-2.7335,-2.7369,-2.7469,-2.7503,-2.7503,-2.7607,-2.7633,-2.7699,-2.7712,-2.7994,-2.836,-2.8595,-2.9144,-2.9895,-3.086,-3.1554,-3.2135,-3.2797,-3.3171,-3.3276,-3.3276,-3.3276,-3.3276,-3.3276,-3.329,-3.3487,-3.3908,-3.459,-3.5273,-3.5934,-3.6385,-3.6778,-3.6908,-3.6978,-3.6978,-3.6978,-3.6978,-3.6978,-3.6915,-3.6915,-3.6861,-3.6716,-3.6577,-3.6756,-3.6918,-3.7137,-3.7444,-3.8573,-3.9922,-4.1112,-4.2268,-4.2907,-4.2886,-4.2931,-4.303,-4.3135,-4.311,-4.3305,-4.3305,-4.3305,-4.3305,-4.3305,-4.3305,-4.3305,-4.3305,-4.3305,-4.3344,-4.3423,-4.3596,-4.3832,-4.3988,-4.4181,-4.432,-4.4435,-4.4534,-4.4572,-4.4496,-4.4534,-4.4685,-4.4821,-4.4977,-4.5126,-4.5458,-4.5179,-4.4783,-1.3419,-1.3875,-1.4573,-1.5046,-1.5498,-1.6541,-1.6428,-1.5719,-1.6749,-1.7345,-1.7413,-1.8297,-1.871,-1.8777,-1.9464,-1.9868,-2.0786,-2.1865,-2.2826,-2.3613,-2.4307,-2.5038,-2.5476,-2.5687,-2.5988,-2.6449,-2.6905,-2.7235,-2.7302,-2.7356,-2.7423,-2.7469,-2.7469,-2.7503,-2.7673,-2.7928,-2.8059,-2.8177,-2.8177,-2.849,-2.8974,-2.9314,-2.9761,-3.0306,-3.1271,-3.1852,-3.2205,-3.2874,-3.3241,-3.3276,-3.3276,-3.3276,-3.3276,-3.3304,-3.3389,-3.3964,-3.4548,-3.5203,-3.5808,-3.6413,-3.6835,-3.6908,-3.6978,-3.6978,-3.6978,-3.6978,-3.6978,-3.6978,-3.6993,-3.7007,-3.715,-3.7097,-3.7084,-3.7259,-3.7375,-3.7567,-3.7896,-3.8523,-3.9842,-4.0647,-4.1846,-4.2154,-4.2162,-4.2476,-4.2551,-4.2731,-4.2895,-4.3021,-4.3245,-4.3215,-4.3305,-4.3305,-4.3305,-4.3305,-4.3305,-4.3305,-4.3305,-4.3344,-4.3503,-4.3675,-4.3793,-4.3988,-4.4181,-4.4281,-4.4381,-4.4419,-4.4381,-4.4419,-4.4458,-4.467,-4.4865,-4.488,-4.4896,-4.4685,-4.4496,-1.4286,-1.4744,-1.5436,-1.6114,-1.6759,-1.7619,-1.755,-1.7267,-1.8017,-1.8408,-1.8465,-1.91,-1.9441,-1.9573,-2.0193,-2.0711,-2.1024,-2.2519,-2.3513,-2.3986,-2.4864,-2.5597,-2.6035,-2.6255,-2.6496,-2.6871,-2.7188,-2.7403,-2.739,-2.7423,-2.7503,-2.7503,-2.7503,-2.7659,-2.7902,-2.8216,-2.8695,-2.883,-2.8974,-2.9144,-2.9536,-2.9944,-3.0127,-3.0624,-3.1606,-3.1965,-3.22,-3.2874,-3.3241,-3.3276,-3.3276,-3.3276,-3.3276,-3.3304,-3.3571,-3.4119,-3.4759,-3.54,-3.6005,-3.6638,-3.688,-3.6978,-3.6978,-3.6978,-3.6978,-3.6978,-3.6978,-3.6978,-3.7007,-3.7077,-3.7293,-3.7484,-3.7635,-3.7801,-3.7903,-3.7994,-3.835,-3.8725,-3.9415,-4.014,-4.067,-4.1033,-4.1344,-4.1724,-4.2036,-4.2081,-4.2102,-4.2207,-4.2626,-4.2976,-4.3155,-4.3305,-4.3305,-4.3305,-4.3245,-4.3125,-4.314,-4.3155,-4.3369,-4.3503,-4.3636,-4.3793,-4.3949,-4.4089,-4.4228,-4.4243,-4.4205,-4.4205,-4.4228,-4.4442,-4.4503,-4.448,-4.4496,-4.4458,-4.432,-1.5188,-1.5551,-1.6394,-1.7285,-1.8037,-1.8206,-1.8533,-1.9077,-1.9177,-1.9133,-1.9233,-1.9868,-2.0204,-2.0302,-2.0796,-2.1305,-2.1902,-2.3033,-2.3976,-2.4308,-2.5459,-2.623,-2.6611,-2.676,-2.685,-2.7255,-2.7503,-2.7469,-2.7503,-2.7516,-2.7529,-2.7542,-2.762,-2.7928,-2.8425,-2.8686,-2.9144,-2.9627,-2.968,-2.9758,-3.0059,-3.0294,-3.0424,-3.0979,-3.1616,-3.2128,-3.2309,-3.2753,-3.3276,-3.3276,-3.3276,-3.3276,-3.3276,-3.3304,-3.3641,-3.4267,-3.4936,-3.5583,-3.6188,-3.674,-3.6908,-3.6978,-3.6978,-3.6978,-3.6978,-3.6978,-3.6978,-3.6978,-3.7007,-3.7274,-3.7529,-3.7642,-3.7813,-3.7975,-3.8169,-3.8086,-3.8158,-3.8425,-3.8776,-3.9369,-3.9708,-3.9998,-4.0141,-4.0503,-4.1309,-4.1362,-4.1572,-4.1647,-4.1833,-4.2447,-4.2656,-4.2871,-4.2781,-4.2716,-4.2746,-4.2686,-4.2865,-4.2985,-4.3075,-4.3174,-4.3196,-4.3464,-4.3769,-4.391,-4.405,-4.4026,-4.4026,-4.3972,-4.3972,-4.4011,-4.405,-4.3972,-4.4011,-4.4127,-4.4089,-1.6429,-1.7379,-1.8128,-1.8566,-1.8834,-1.9365,-1.9671,-1.9901,-2.0463,-2.0334,-2.0042,-2.056,-2.0892,-2.0935,-2.1126,-2.1526,-2.2158,-2.3365,-2.4315,-2.5043,-2.5992,-2.6688,-2.7087,-2.6952,-2.7087,-2.7323,-2.7503,-2.7503,-2.7516,-2.7555,-2.7751,-2.8111,-2.8177,-2.8512,-2.9052,-2.9327,-2.9761,-3.0192,-3.0385,-3.0424,-3.0634,-3.0751,-3.0945,-3.1198,-3.1629,-3.2019,-3.2309,-3.2803,-3.3171,-3.3276,-3.3276,-3.3276,-3.3276,-3.329,-3.3902,-3.4753,-3.5147,-3.5794,-3.6441,-3.6852,-3.695,-3.6978,-3.6978,-3.6978,-3.6978,-3.6978,-3.6978,-3.694,-3.7094,-3.7417,-3.7664,-3.7771,-3.7977,-3.8163,-3.8349,-3.8124,-3.7907,-3.7976,-3.8098,-3.8367,-3.8712,-3.8894,-3.8995,-3.9562,-4.033,-4.0861,-4.1287,-4.1437,-4.1347,-4.1609,-4.1564,-4.1743,-4.1833,-4.1818,-4.1983,-4.2132,-4.2282,-4.2327,-4.2396,-4.2539,-4.2743,-4.3091,-4.3449,-4.3693,-4.3871,-4.3832,-4.3793,-4.3793,-4.3754,-4.3754,-4.3714,-4.366,-4.3714,-4.3832,-4.3793,-1.7148,-1.7823,-1.8643,-1.921,-1.954,-1.9933,-2.0269,-2.0624,-2.1031,-2.0999,-2.0667,-2.0999,-2.1201,-2.1296,-2.1411,-2.1757,-2.2373,-2.3643,-2.4625,-2.5511,-2.6179,-2.6912,-2.7134,-2.7087,-2.7289,-2.7456,-2.7503,-2.7503,-2.7555,-2.7863,-2.815,-2.8472,-2.8656,-2.9065,-2.9614,-2.997,-3.0244,-3.0529,-3.0856,-3.0998,-3.1024,-3.1024,-3.1024,-3.1198,-3.1482,-3.1873,-3.2273,-3.2717,-3.3051,-3.3241,-3.3276,-3.3276,-3.3375,-3.3585,-3.4211,-3.4964,-3.5513,-3.6019,-3.6669,-3.6978,-3.6978,-3.6978,-3.6978,-3.6978,-3.6861,-3.6783,-3.6322,-3.6324,-3.671,-3.7001,-3.7414,-3.7597,-3.8066,-3.8438,-3.8179,-3.7899,-3.7331,-3.6876,-3.6761,-3.6619,-3.711,-3.7816,-3.816,-3.9099,-3.9728,-3.9993,-4.0442,-4.0576,-4.0591,-4.0771,-4.0711,-4.0741,-4.0935,-4.125,-4.1594,-4.1639,-4.1639,-4.1692,-4.1662,-4.2066,-4.2404,-4.2758,-4.3106,-4.3395,-4.356,-4.3581,-4.3542,-4.3557,-4.3542,-4.3503,-4.3423,-4.3384,-4.3478,-4.3557,-4.3557,-1.7696,-1.7881,-1.89,-1.9639,-2.0204,-2.0237,-2.0624,-2.121,-2.1316,-2.1348,-2.14,-2.1431,-2.1348,-2.138,-2.1714,-2.2173,-2.2823,-2.3769,-2.4759,-2.5535,-2.6223,-2.6735,-2.7053,-2.7188,-2.7188,-2.7289,-2.7436,-2.7574,-2.7712,-2.8072,-2.8373,-2.8621,-2.9118,-2.9666,-3.0035,-3.027,-3.0453,-3.0764,-3.1011,-3.1011,-3.1024,-3.1024,-3.1024,-3.1123,-3.1384,-3.174,-3.2055,-3.2489,-3.286,-3.3086,-3.3241,-3.3276,-3.3473,-3.3782,-3.4436,-3.5105,-3.5723,-3.6286,-3.6863,-3.6978,-3.6978,-3.6978,-3.6978,-3.6861,-3.6705,-3.6163,-3.5696,-3.5709,-3.61,-3.6698,-3.7095,-3.7658,-3.8175,-3.8385,-3.8002,-3.7488,-3.669,-3.5996,-3.563,-3.5306,-3.5926,-3.6677,-3.74,-3.8389,-3.8973,-3.9207,-3.9388,-3.9388,-3.9508,-3.9873,-4.0023,-4.0127,-4.0322,-4.0696,-4.0995,-4.0995,-4.0861,-4.0905,-4.095,-4.1572,-4.2081,-4.2449,-4.2779,-4.3039,-4.3174,-4.3349,-4.3369,-4.3384,-4.3329,-4.3329,-4.3329,-4.3344,-4.3344,-4.3423,-4.3384,-1.8321,-1.9661,-2.0431,-2.086,-2.0987,-2.0967,-2.1305,-2.1702,-2.1796,-2.197,-2.2218,-2.2249,-2.2002,-2.1253,-2.1702,-2.2219,-2.2889,-2.3827,-2.4464,-2.5148,-2.5965,-2.6442,-2.6769,-2.6939,-2.6633,-2.6909,-2.7393,-2.779,-2.8085,-2.836,-2.8895,-2.9653,-2.9748,-3.0228,-3.0686,-3.0817,-3.0817,-3.1024,-3.1024,-3.1024,-3.1024,-3.1024,-3.1024,-3.1161,-3.1421,-3.1556,-3.185,-3.2381,-3.2632,-3.286,-3.31,-3.3269,-3.3585,-3.3992,-3.4632,-3.5316,-3.592,-3.6441,-3.6863,-3.6833,-3.6822,-3.694,-3.6822,-3.6401,-3.595,-3.5102,-3.478,-3.4636,-3.5201,-3.6258,-3.686,-3.7735,-3.8269,-3.8038,-3.7701,-3.6747,-3.5905,-3.5495,-3.5182,-3.5163,-3.5452,-3.5896,-3.6255,-3.7323,-3.8478,-3.8775,-3.9228,-3.9265,-3.9388,-3.9388,-3.9388,-3.9604,-3.9828,-3.9679,-3.9783,-4.0023,-3.9993,-4.0068,-4.0292,-4.0861,-4.1497,-4.2141,-4.2485,-4.2716,-4.3045,-4.324,-4.3245,-4.3305,-4.3305,-4.329,-4.3305,-4.3305,-4.3305,-4.3305,-4.3305]},{"header":{"parameterUnit":"m.s-1","parameterCategory":1,"la1":31.0,"la2":29.5877,"lo1":-88.7671,"lo2":-86.6584,"dy":0.0162,"dx":0.0185,"nx":115,"ny":88,"refTime":"2024-02-27T18:00:00:Z","depth":0,"parameterNumber":3,"parameterNumberName":"V-component_of_WINDS"},"data":[0.0,0.0,0.0,0.0,0.0,0.0,0.0,0.0,0.0,0.0,0.0,0.0,0.0,0.0,0.0,0.0,0.0,0.0,0.0,0.0,0.0,0.0,0.0,0.0,0.0,0.0,0.0,0.0,0.0,0.0,0.0,0.0,0.0,0.0,0.0,0.0,0.0,0.0,0.0,0.0,0.0,0.0,0.0,0.0,0.0,0.0,0.0,0.0,0.0,0.0,0.0,0.0,0.0,0.0,0.0,0.0,0.0,0.0,0.0,0.0,0.0,0.0,0.0,0.0,0.0,0.0,0.0,0.0,0.0,0.0,0.0,0.0,0.0,0.0,0.0,0.0,0.0,0.0,0.0,0.0,0.0,0.0,0.0,0.0,0.0,0.0,0.0,0.0,0.0,0.0,0.0,0.0,0.0,0.0,0.0,0.0,0.0,0.0,0.0,0.0,0.0,0.0,0.0,0.0,0.0,0.0,0.0,0.0,0.0,0.0,0.0,0.0,0.0,0.0,0.0,0.0,0.0,0.0,0.0,0.0,0.0,0.0,0.0,0.0,0.0,0.0,0.0,0.0,0.0,0.0,0.0,0.0,0.0,0.0,0.0,0.0,0.0,0.0,0.0,0.0,0.0,0.0,0.0,0.0,0.0,0.0,0.0,0.0,0.0,0.0,0.0,0.0,0.0,0.0,0.0,0.0,0.0,0.0,0.0,0.0,0.0,0.0,0.0,0.0,0.0,0.0,0.0,0.0,0.0,0.0,0.0,0.0,0.0,0.0,0.0,0.0,0.0,0.0,0.0,0.0,0.0,0.0,0.0,0.0,0.0,0.0,0.0,0.0,0.0,0.0,0.0,0.0,0.0,0.0,0.0,0.0,0.0,0.0,0.0,0.0,0.0,0.0,0.0,0.0,0.0,0.0,0.0,0.0,0.0,0.0,0.0,0.0,0.0,0.0,0.0,0.0,0.0,0.0,0.0,0.0,0.0,0.0,0.0,0.0,0.0,0.0,0.0,0.0,0.0,0.0,0.0,0.0,0.0,0.0,0.0,0.0,0.0,0.0,0.0,0.0,0.0,0.0,0.0,0.0,0.0,0.0,0.0,0.0,0.0,0.0,0.0,0.0,0.0,0.0,0.0,0.0,0.0,0.0,0.0,0.0,0.0,0.0,0.0,0.0,0.0,0.0,0.0,0.0,0.0,0.0,0.0,0.0,0.0,0.0,0.0,0.0,0.0,0.0,0.0,0.0,0.0,0.0,0.0,0.0,0.0,0.0,0.0,0.0,0.0,0.0,0.0,0.0,0.0,0.0,0.0,0.0,0.0,0.0,0.0,0.0,0.0,0.0,0.0,0.0,0.0,0.0,0.0,0.0,0.0,0.0,0.0,0.0,0.0,0.0,0.0,0.0,0.0,0.0,0.0,0.0,0.0,0.0,0.0,0.0,0.0,0.0,0.0,0.0,0.0,0.0,0.0,0.0,0.0,0.0,0.0,0.0,0.0,0.0,0.0,0.0,0.0,0.0,0.0,0.0,0.0,0.0,0.0,0.0,0.0,0.0,0.0,0.0,0.0,0.0,0.0,0.0,0.0,0.0,0.0,0.0,0.0,0.0,0.0,0.0,0.0,0.0,0.0,0.0,0.0,0.0,0.0,0.0,0.0,0.0,0.0,0.0,0.0,0.0,0.0,0.0,0.0,0.0,0.0,0.0,0.0,0.0,0.0,0.0,0.0,0.0,0.0,0.0,0.0,0.0,0.0,0.0,0.0,0.0,0.0,0.0,0.0,0.0,0.0,0.0,0.0,0.0,0.0,0.0,0.0,0.0,0.0,0.0,0.0,0.0,0.0,0.0,0.0,0.0,0.0,0.0,0.0,0.0,0.0,0.0,0.0,0.0,0.0,0.0,0.0,0.0,0.0,0.0,0.0,0.0,0.0,0.0,0.0,0.0,0.0,0.0,0.0,0.0,0.0,0.0,0.0,0.0,0.0,0.0,0.0,0.0,0.0,0.0,0.0,0.0,0.0,0.0,0.0,0.0,0.0,0.0,0.0,0.0,0.0,0.0,0.0,0.0,0.0,0.0,0.0,0.0,0.0,0.0,0.0,0.0,0.0,0.0,0.0,0.0,0.0,0.0,0.0,0.0,0.0,0.0,0.0,0.0,0.0,0.0,0.0,0.0,0.0,0.0,0.0,0.0,0.0,0.0,0.0,0.0,0.0,0.0,0.0,0.0,0.0,0.0,0.0,0.0,0.0,0.0,0.0,0.0,0.0,0.0,0.0,0.0,0.0,0.0,0.0,0.0,0.0,0.0,0.0,0.0,0.0,0.0,0.0,0.0,0.0,0.0,0.0,0.0,0.0,0.0,0.0,0.0,0.0,0.0,0.0,0.0,0.0,0.0,0.0,0.0,0.0,0.0,0.0,0.0,0.0,0.0,0.0,0.0,0.0,0.0,0.0,0.0,0.0,0.0,0.0,0.0,0.0,0.0,0.0,0.0,0.0,0.0,0.0,0.0,0.0,0.0,0.0,0.0,0.0,0.0,0.0,0.0,0.0,0.0,0.0,0.0,0.0,0.0,0.0,0.0,0.0,0.0,0.0,0.0,0.0,0.0,0.0,0.0,0.0,0.0,0.0,0.0,0.0,0.0,0.0,0.0,0.0,0.0,0.0,0.0,0.0,0.0,0.0,0.0,0.0,0.0,0.0,0.0,0.0,0.0,0.0,0.0,0.0,0.0,0.0,0.0,0.0,0.0,0.0,0.0,0.0,0.0,0.0,0.0,0.0,0.0,0.0,0.0,0.0,0.0,0.0,0.0,0.0,0.0,0.0,0.0,0.0,0.0,0.0,0.0,0.0,0.0,0.0,0.0,0.0,0.0,0.0,0.0,0.0,0.0,0.0,0.0,0.0,0.0,0.0,0.0,0.0,0.0,0.0,0.0,0.0,0.0,0.0,0.0,0.0,0.0,0.0,0.0,0.0,0.0,0.0,0.0,0.0,0.0,0.0,0.0,0.0,0.0,0.0,0.0,0.0,0.0,0.0,0.0,0.0,0.0,0.0,0.0,0.0,0.0,0.0,0.0,0.0,0.0,0.0,0.0,0.0,0.0,0.0,0.0,0.0,0.0,0.0,0.0,0.0,0.0,0.0,0.0,0.0,0.0,0.0,0.0,0.0,0.0,0.0,0.0,0.0,0.0,0.0,0.0,0.0,0.0,0.0,0.0,0.0,0.0,0.0,0.0,0.0,0.0,0.0,0.0,0.0,0.0,0.0,0.0,0.0,0.0,0.0,0.0,0.0,0.0,0.0,0.0,0.0,0.0,0.0,0.0,0.0,0.0,0.0,0.0,0.0,0.0,0.0,0.0,0.0,0.0,0.0,0.0,0.0,0.0,0.0,0.0,0.0,0.0,0.0,0.0,0.0,0.0,0.0,0.0,0.0,0.0,0.0,0.0,0.0,0.0,0.0,0.0,0.0,0.0,0.0,0.0,0.0,0.0,0.0,0.0,0.0,0.0,0.0,0.0,0.0,0.0,0.0,0.0,0.0,0.0,0.0,0.0,0.0,0.0,0.0,0.0,0.0,0.0,0.0,0.0,0.0,0.0,0.0,0.0,0.0,0.0,0.0,0.0,0.0,0.0,0.0,0.0,0.0,0.0,0.0,0.0,0.0,0.0,0.0,0.0,0.0,0.0,0.0,0.0,0.0,0.0,0.0,0.0,0.0,0.0,0.0,0.0,0.0,0.0,0.0,0.0,0.0,0.0,0.0,0.0,0.0,0.0,0.0,0.0,0.0,0.0,0.0,0.0,0.0,0.0,0.0,0.0,0.0,0.0,0.0,0.0,0.0,0.0,0.0,0.0,0.0,0.0,0.0,0.0,0.0,0.0,0.0,0.0,0.0,0.0,0.0,0.0,0.0,0.0,0.0,0.0,0.0,0.0,0.0,0.0,0.0,0.0,0.0,0.0,0.0,0.0,0.0,0.0,0.0,0.0,0.0,0.0,0.0,0.0,0.0,0.0,0.0,0.0,0.0,0.0,0.0,0.0,0.0,0.0,0.0,0.0,0.0,0.0,0.0,0.0,0.0,0.0,0.0,0.0,0.0,0.0,0.0,0.0,0.0,0.0,0.0,0.0,0.0,0.0,0.0,0.0,0.0,0.0,0.0,0.0,0.0,0.0,0.0,0.0,0.0,0.0,0.0,0.0,0.0,0.0,0.0,0.0,0.0,0.0,0.0,0.0,0.0,0.0,0.0,0.0,0.0,0.0,0.0,0.0,0.0,0.0,2.8779,0.0,0.0,0.0,0.0,0.0,0.0,0.0,0.0,0.0,0.0,0.0,0.0,0.0,0.0,0.0,0.0,0.0,0.0,0.0,0.0,0.0,0.0,0.0,0.0,0.0,0.0,0.0,0.0,0.0,0.0,0.0,0.0,0.0,0.0,0.0,0.0,0.0,0.0,0.0,0.0,0.0,0.0,0.0,0.0,0.0,0.0,0.0,0.0,0.0,0.0,0.0,0.0,0.0,0.0,0.0,0.0,0.0,0.0,0.0,0.0,0.0,0.0,0.0,0.0,0.0,0.0,0.0,0.0,0.0,0.0,0.0,0.0,0.0,0.0,0.0,0.0,0.0,0.0,0.0,0.0,0.0,0.0,0.0,0.0,0.0,0.0,0.0,0.0,0.0,0.0,0.0,0.0,0.0,0.0,0.0,0.0,0.0,0.0,0.0,0.0,0.0,0.0,0.0,0.0,0.0,0.0,0.0,0.0,0.0,0.0,2.9435,2.9299,2.9235,2.9007,2.8669,0.0,0.0,0.0,0.0,0.0,0.0,0.0,0.0,0.0,0.0,0.0,0.0,0.0,0.0,0.0,0.0,0.0,0.0,0.0,0.0,0.0,0.0,0.0,0.0,0.0,0.0,0.0,0.0,0.0,0.0,0.0,0.0,0.0,0.0,0.0,0.0,0.0,0.0,0.0,0.0,0.0,0.0,0.0,0.0,0.0,0.0,0.0,0.0,0.0,0.0,0.0,0.0,0.0,0.0,0.0,0.0,0.0,0.0,0.0,0.0,0.0,0.0,0.0,0.0,0.0,0.0,0.0,0.0,0.0,0.0,0.0,0.0,0.0,0.0,0.0,0.0,0.0,0.0,0.0,0.0,0.0,0.0,0.0,0.0,0.0,0.0,0.0,0.0,0.0,0.0,0.0,0.0,0.0,0.0,0.0,0.0,0.0,0.0,0.0,0.0,0.0,0.0,0.0,0.0,0.0,0.0,0.0,0.0,0.0,0.0,0.0,0.0,2.9337,2.9265,2.9078,0.0,0.0,0.0,0.0,0.0,0.0,0.0,0.0,0.0,0.0,0.0,0.0,0.0,0.0,0.0,0.0,0.0,0.0,0.0,0.0,0.0,0.0,0.0,0.0,0.0,0.0,0.0,0.0,0.0,0.0,0.0,0.0,0.0,0.0,0.0,0.0,0.0,0.0,0.0,0.0,0.0,0.0,0.0,0.0,0.0,0.0,0.0,0.0,0.0,0.0,0.0,0.0,0.0,0.0,0.0,0.0,0.0,0.0,0.0,0.0,0.0,0.0,0.0,0.0,0.0,0.0,0.0,0.0,0.0,0.0,0.0,0.0,0.0,0.0,0.0,0.0,0.0,0.0,0.0,0.0,0.0,0.0,0.0,0.0,0.0,0.0,0.0,0.0,0.0,0.0,0.0,0.0,0.0,0.0,0.0,0.0,0.0,0.0,0.0,0.0,0.0,0.0,0.0,0.0,0.0,0.0,0.0,0.0,0.0,0.0,2.9178,2.913,2.9819,0.0,3.0337,0.0,0.0,0.0,0.0,0.0,0.0,0.0,0.0,0.0,0.0,0.0,0.0,0.0,0.0,0.0,0.0,0.0,0.0,0.0,0.0,0.0,0.0,0.0,0.0,0.0,0.0,0.0,0.0,0.0,0.0,0.0,0.0,0.0,0.0,0.0,0.0,0.0,0.0,0.0,0.0,0.0,0.0,0.0,0.0,0.0,0.0,0.0,0.0,0.0,0.0,0.0,0.0,0.0,0.0,0.0,0.0,0.0,0.0,0.0,0.0,0.0,0.0,0.0,0.0,0.0,0.0,0.0,0.0,0.0,0.0,0.0,0.0,0.0,0.0,0.0,0.0,0.0,0.0,0.0,0.0,0.0,0.0,0.0,0.0,0.0,0.0,0.0,0.0,0.0,0.0,0.0,0.0,0.0,0.0,0.0,0.0,0.0,0.0,0.0,0.0,0.0,0.0,0.0,0.0,0.0,0.0,0.0,0.0,0.0,0.0,2.9362,2.98,3.0142,3.0216,0.0,0.0,0.0,0.0,0.0,0.0,0.0,0.0,0.0,0.0,0.0,0.0,0.0,0.0,0.0,0.0,0.0,0.0,0.0,0.0,0.0,0.0,0.0,0.0,0.0,0.0,0.0,0.0,0.0,0.0,0.0,0.0,0.0,0.0,0.0,0.0,0.0,0.0,0.0,0.0,0.0,0.0,0.0,0.0,0.0,0.0,0.0,0.0,0.0,0.0,0.0,0.0,0.0,0.0,0.0,0.0,0.0,0.0,0.0,0.0,0.0,0.0,0.0,0.0,0.0,0.0,0.0,0.0,0.0,0.0,0.0,0.0,0.0,0.0,0.0,0.0,0.0,0.0,0.0,0.0,0.0,0.0,0.0,0.0,0.0,0.0,0.0,0.0,0.0,0.0,0.0,0.0,0.0,0.0,0.0,0.0,0.0,0.0,0.0,0.0,0.0,0.0,0.0,0.0,0.0,0.0,0.0,0.0,0.0,0.0,2.9351,2.986,3.0717,3.0388,3.0237,3.045,0.0,0.0,0.0,0.0,0.0,0.0,0.0,0.0,0.0,0.0,0.0,0.0,0.0,0.0,0.0,0.0,0.0,0.0,0.0,0.0,0.0,0.0,0.0,0.0,0.0,0.0,0.0,0.0,0.0,0.0,0.0,0.0,0.0,0.0,0.0,0.0,0.0,0.0,0.0,0.0,0.0,0.0,0.0,0.0,0.0,0.0,0.0,0.0,0.0,0.0,0.0,0.0,0.0,0.0,0.0,0.0,0.0,0.0,0.0,0.0,0.0,0.0,0.0,0.0,0.0,0.0,0.0,0.0,0.0,0.0,0.0,0.0,0.0,0.0,0.0,0.0,0.0,0.0,0.0,0.0,0.0,0.0,0.0,0.0,0.0,0.0,0.0,0.0,0.0,0.0,0.0,0.0,0.0,0.0,0.0,0.0,0.0,0.0,0.0,0.0,0.0,0.0,0.0,0.0,0.0,0.0,0.0,0.0,2.9137,2.9786,3.0733,3.1868,3.0603,3.0537,0.0,0.0,0.0,0.0,0.0,0.0,0.0,0.0,0.0,0.0,0.0,0.0,0.0,0.0,0.0,0.0,0.0,0.0,0.0,0.0,0.0,0.0,0.0,0.0,0.0,0.0,0.0,0.0,0.0,0.0,0.0,0.0,0.0,0.0,0.0,0.0,0.0,0.0,0.0,0.0,0.0,0.0,0.0,0.0,0.0,0.0,0.0,0.0,0.0,0.0,0.0,0.0,0.0,0.0,0.0,0.0,0.0,0.0,0.0,0.0,0.0,0.0,0.0,0.0,0.0,0.0,0.0,0.0,0.0,0.0,0.0,0.0,0.0,0.0,0.0,0.0,0.0,0.0,0.0,0.0,0.0,0.0,0.0,0.0,0.0,0.0,0.0,0.0,0.0,0.0,0.0,0.0,0.0,0.0,0.0,0.0,0.0,0.0,0.0,0.0,0.0,0.0,0.0,0.0,0.0,0.0,0.0,0.0,0.0,2.9152,3.0068,3.0437,3.0212,3.0757,3.1027,0.0,0.0,0.0,0.0,0.0,0.0,0.0,0.0,0.0,0.0,0.0,0.0,0.0,0.0,0.0,0.0,0.0,0.0,0.0,0.0,0.0,0.0,0.0,0.0,0.0,0.0,0.0,0.0,0.0,0.0,0.0,0.0,0.0,0.0,0.0,0.0,0.0,0.0,0.0,0.0,0.0,0.0,0.0,0.0,0.0,0.0,0.0,0.0,0.0,0.0,0.0,0.0,0.0,0.0,0.0,0.0,0.0,0.0,0.0,0.0,0.0,0.0,0.0,0.0,0.0,0.0,0.0,0.0,0.0,0.0,0.0,0.0,0.0,0.0,0.0,0.0,0.0,0.0,0.0,0.0,0.0,0.0,0.0,0.0,0.0,0.0,0.0,0.0,0.0,0.0,0.0,0.0,0.0,0.0,0.0,0.0,0.0,0.0,0.0,0.0,0.0,0.0,0.0,0.0,0.0,0.0,0.0,0.0,0.0,2.9834,0.0,3.065,3.0325,3.1044,3.1176,0.0,0.0,0.0,0.0,0.0,0.0,0.0,0.0,0.0,0.0,0.0,0.0,0.0,0.0,0.0,0.0,0.0,0.0,0.0,0.0,0.0,0.0,0.0,0.0,0.0,0.0,0.0,0.0,0.0,0.0,0.0,0.0,0.0,0.0,0.0,0.0,0.0,0.0,0.0,0.0,0.0,0.0,0.0,0.0,0.0,0.0,0.0,0.0,0.0,0.0,0.0,0.0,0.0,0.0,0.0,0.0,0.0,0.0,0.0,0.0,0.0,0.0,0.0,0.0,0.0,0.0,0.0,0.0,0.0,0.0,0.0,0.0,0.0,0.0,0.0,0.0,0.0,0.0,0.0,0.0,0.0,0.0,0.0,0.0,0.0,0.0,0.0,0.0,0.0,0.0,0.0,0.0,0.0,0.0,0.0,0.0,0.0,0.0,0.0,0.0,0.0,0.0,0.0,0.0,0.0,0.0,0.0,0.0,2.9865,3.1292,3.1074,3.1433,3.2559,3.1462,3.0988,0.0,0.0,0.0,0.0,0.0,0.0,0.0,0.0,0.0,0.0,0.0,0.0,0.0,0.0,0.0,0.0,0.0,0.0,0.0,0.0,0.0,0.0,0.0,0.0,0.0,0.0,0.0,0.0,0.0,0.0,0.0,0.0,0.0,0.0,0.0,0.0,0.0,0.0,0.0,0.0,0.0,0.0,0.0,0.0,0.0,0.0,0.0,0.0,0.0,0.0,0.0,0.0,0.0,0.0,0.0,0.0,0.0,0.0,0.0,0.0,0.0,0.0,0.0,0.0,0.0,0.0,0.0,0.0,0.0,0.0,0.0,0.0,0.0,0.0,0.0,0.0,0.0,0.0,0.0,0.0,0.0,0.0,0.0,0.0,0.0,0.0,0.0,0.0,0.0,0.0,0.0,0.0,0.0,0.0,0.0,0.0,0.0,0.0,0.0,0.0,0.0,0.0,0.0,0.0,0.0,0.0,0.0,0.0,0.0,3.1263,3.1482,3.1619,3.1674,3.1498,3.1342,0.0,0.0,0.0,0.0,0.0,0.0,0.0,0.0,0.0,0.0,0.0,0.0,0.0,0.0,0.0,0.0,0.0,0.0,0.0,0.0,0.0,0.0,0.0,0.0,0.0,0.0,0.0,0.0,0.0,0.0,0.0,0.0,0.0,0.0,0.0,0.0,0.0,0.0,0.0,0.0,0.0,0.0,0.0,0.0,0.0,0.0,0.0,0.0,0.0,0.0,0.0,0.0,0.0,0.0,0.0,0.0,0.0,0.0,0.0,0.0,0.0,0.0,0.0,0.0,0.0,0.0,0.0,0.0,0.0,0.0,0.0,0.0,0.0,0.0,0.0,0.0,0.0,0.0,0.0,0.0,0.0,0.0,0.0,0.0,0.0,0.0,0.0,0.0,0.0,0.0,0.0,0.0,0.0,0.0,0.0,0.0,0.0,0.0,0.0,0.0,0.0,0.0,0.0,0.0,0.0,0.0,0.0,0.0,0.0,3.2106,3.2357,3.2253,3.1646,3.183,3.1603,3.0958,0.0,0.0,0.0,0.0,0.0,0.0,0.0,0.0,0.0,0.0,0.0,0.0,0.0,0.0,0.0,0.0,0.0,0.0,0.0,0.0,0.0,0.0,0.0,0.0,0.0,0.0,0.0,0.0,0.0,0.0,0.0,0.0,0.0,0.0,0.0,0.0,0.0,0.0,0.0,0.0,0.0,0.0,0.0,0.0,0.0,0.0,0.0,0.0,0.0,0.0,0.0,0.0,0.0,0.0,0.0,0.0,0.0,0.0,0.0,0.0,0.0,0.0,0.0,0.0,0.0,0.0,0.0,0.0,0.0,0.0,0.0,0.0,0.0,0.0,0.0,0.0,0.0,0.0,0.0,0.0,0.0,0.0,0.0,0.0,0.0,0.0,0.0,0.0,0.0,0.0,0.0,0.0,0.0,0.0,0.0,0.0,0.0,0.0,0.0,0.0,0.0,0.0,0.0,0.0,0.0,0.0,0.0,0.0,3.3462,3.352,3.3157,3.2401,3.2282,3.1699,0.0,0.0,0.0,0.0,0.0,0.0,0.0,0.0,0.0,0.0,0.0,0.0,0.0,0.0,0.0,0.0,0.0,0.0,0.0,0.0,0.0,0.0,0.0,0.0,0.0,0.0,0.0,0.0,0.0,0.0,0.0,0.0,0.0,0.0,0.0,0.0,0.0,0.0,0.0,0.0,0.0,0.0,0.0,0.0,0.0,0.0,0.0,0.0,0.0,0.0,0.0,0.0,0.0,0.0,0.0,0.0,0.0,0.0,0.0,0.0,0.0,0.0,0.0,0.0,0.0,0.0,0.0,0.0,0.0,0.0,0.0,0.0,0.0,0.0,0.0,0.0,0.0,0.0,0.0,0.0,0.0,0.0,0.0,0.0,0.0,0.0,0.0,0.0,0.0,0.0,0.0,0.0,0.0,0.0,0.0,0.0,0.0,0.0,0.0,0.0,0.0,0.0,0.0,0.0,0.0,0.0,0.0,0.0,0.0,3.2986,3.2813,3.2602,3.2334,3.2021,3.1397,0.0,0.0,0.0,0.0,0.0,0.0,0.0,0.0,0.0,0.0,0.0,0.0,0.0,0.0,0.0,0.0,0.0,0.0,0.0,0.0,0.0,0.0,0.0,0.0,0.0,0.0,0.0,0.0,0.0,0.0,0.0,0.0,0.0,0.0,0.0,0.0,0.0,0.0,0.0,0.0,0.0,0.0,0.0,0.0,0.0,0.0,0.0,0.0,0.0,0.0,0.0,0.0,0.0,0.0,0.0,0.0,0.0,0.0,0.0,0.0,0.0,0.0,0.0,0.0,0.0,0.0,0.0,0.0,0.0,0.0,0.0,0.0,0.0,0.0,0.0,0.0,0.0,0.0,0.0,0.0,0.0,0.0,0.0,0.0,0.0,0.0,0.0,0.0,0.0,0.0,0.0,0.0,0.0,0.0,0.0,0.0,0.0,0.0,0.0,0.0,0.0,0.0,0.0,0.0,0.0,0.0,0.0,0.0,3.2878,3.2651,3.23,3.2092,3.2039,3.1823,3.1169,0.0,0.0,0.0,0.0,0.0,0.0,0.0,0.0,0.0,0.0,0.0,0.0,0.0,0.0,0.0,0.0,0.0,0.0,0.0,0.0,0.0,0.0,0.0,0.0,0.0,0.0,0.0,0.0,0.0,0.0,0.0,0.0,0.0,0.0,0.0,0.0,0.0,0.0,0.0,0.0,0.0,0.0,0.0,0.0,0.0,0.0,0.0,0.0,0.0,0.0,0.0,0.0,0.0,0.0,0.0,0.0,0.0,0.0,0.0,0.0,0.0,0.0,0.0,0.0,0.0,0.0,0.0,0.0,0.0,0.0,0.0,0.0,0.0,0.0,0.0,0.0,0.0,0.0,0.0,0.0,0.0,0.0,0.0,0.0,0.0,0.0,0.0,0.0,0.0,0.0,0.0,0.0,0.0,0.0,0.0,0.0,0.0,0.0,0.0,0.0,0.0,0.0,0.0,0.0,0.0,0.0,0.0,0.0,3.2702,3.2334,3.1878,3.1657,3.1621,3.1657,3.1013,0.0,0.0,0.0,0.0,0.0,0.0,0.0,0.0,0.0,0.0,0.0,0.0,0.0,0.0,0.0,0.0,0.0,0.0,0.0,0.0,0.0,0.0,0.0,0.0,0.0,0.0,0.0,0.0,0.0,0.0,0.0,0.0,0.0,0.0,0.0,0.0,0.0,0.0,0.0,0.0,0.0,0.0,0.0,0.0,0.0,0.0,0.0,0.0,0.0,0.0,0.0,0.0,0.0,0.0,0.0,0.0,0.0,0.0,0.0,0.0,0.0,0.0,0.0,0.0,0.0,0.0,0.0,0.0,0.0,0.0,0.0,0.0,0.0,0.0,0.0,0.0,0.0,0.0,0.0,0.0,0.0,0.0,0.0,0.0,0.0,0.0,0.0,0.0,0.0,0.0,0.0,0.0,0.0,0.0,0.0,0.0,0.0,0.0,0.0,0.0,0.0,0.0,0.0,0.0,0.0,0.0,0.0,0.0,3.2038,3.186,3.1504,3.131,3.131,3.131,3.0747,0.0,0.0,0.0,0.0,0.0,0.0,0.0,0.0,0.0,0.0,0.0,0.0,0.0,0.0,0.0,0.0,0.0,0.0,0.0,0.0,0.0,0.0,0.0,0.0,0.0,0.0,0.0,0.0,0.0,0.0,0.0,0.0,0.0,0.0,0.0,0.0,0.0,0.0,0.0,0.0,0.0,0.0,0.0,0.0,0.0,0.0,0.0,0.0,2.3001,0.0,0.0,0.0,0.0,0.0,0.0,0.0,0.0,0.0,0.0,0.0,0.0,0.0,0.0,0.0,0.0,0.0,0.0,0.0,0.0,0.0,0.0,0.0,0.0,0.0,0.0,0.0,0.0,0.0,0.0,0.0,0.0,0.0,0.0,0.0,0.0,0.0,0.0,0.0,0.0,0.0,0.0,0.0,0.0,0.0,0.0,0.0,0.0,0.0,0.0,0.0,0.0,0.0,0.0,0.0,0.0,0.0,0.0,0.0,3.1693,3.1468,3.1308,3.119,3.119,3.0995,3.0477,0.0,0.0,0.0,0.0,0.0,0.0,0.0,0.0,0.0,0.0,0.0,0.0,0.0,0.0,0.0,0.0,0.0,0.0,0.0,0.0,0.0,0.0,0.0,0.0,0.0,0.0,0.0,0.0,0.0,0.0,0.0,0.0,0.0,0.0,0.0,0.0,0.0,0.0,0.0,0.0,0.0,0.0,0.0,0.0,0.0,0.0,0.0,0.0,0.0,0.0,0.0,0.0,0.0,0.0,0.0,0.0,0.0,0.0,0.0,0.0,0.0,0.0,0.0,0.0,0.0,0.0,0.0,0.0,0.0,0.0,0.0,0.0,0.0,0.0,0.0,0.0,0.0,0.0,0.0,0.0,0.0,0.0,0.0,0.0,0.0,0.0,0.0,0.0,0.0,0.0,0.0,0.0,0.0,0.0,0.0,0.0,0.0,0.0,0.0,0.0,0.0,0.0,0.0,0.0,0.0,0.0,0.0,3.1896,3.1562,3.1193,3.119,3.1154,3.1095,3.072,3.0208,2.954,0.0,0.0,0.0,0.0,0.0,0.0,0.0,0.0,0.0,0.0,0.0,0.0,0.0,0.0,0.0,0.0,0.0,0.0,0.0,0.0,0.0,0.0,0.0,0.0,0.0,0.0,0.0,0.0,0.0,0.0,0.0,0.0,0.0,0.0,0.0,0.0,0.0,0.0,2.5312,2.5312,0.0,0.0,0.0,0.0,0.0,0.0,0.0,0.0,2.4381,0.0,0.0,0.0,0.0,0.0,0.0,0.0,0.0,0.0,0.0,0.0,0.0,0.0,0.0,0.0,0.0,0.0,0.0,0.0,0.0,0.0,0.0,0.0,0.0,0.0,0.0,0.0,0.0,0.0,0.0,0.0,0.0,0.0,0.0,0.0,0.0,0.0,0.0,0.0,0.0,0.0,0.0,0.0,0.0,0.0,0.0,0.0,0.0,0.0,0.0,0.0,0.0,0.0,0.0,0.0,0.0,3.1897,3.186,3.1654,3.121,3.119,3.1015,3.0638,3.0539,3.0081,2.9219,0.0,0.0,0.0,0.0,0.0,0.0,0.0,0.0,0.0,0.0,0.0,0.0,0.0,0.0,0.0,0.0,0.0,0.0,0.0,0.0,0.0,0.0,0.0,0.0,0.0,0.0,0.0,0.0,0.0,0.0,0.0,0.0,0.0,0.0,0.0,0.0,0.0,0.0,0.0,2.5312,2.5312,0.0,0.0,0.0,0.0,0.0,0.0,0.0,0.0,2.3666,0.0,0.0,0.0,0.0,0.0,0.0,0.0,0.0,0.0,0.0,0.0,0.0,0.0,0.0,0.0,0.0,0.0,0.0,0.0,0.0,0.0,0.0,0.0,0.0,0.0,0.0,0.0,0.0,0.0,0.0,0.0,0.0,0.0,0.0,0.0,0.0,0.0,0.0,0.0,0.0,0.0,0.0,0.0,0.0,0.0,0.0,0.0,0.0,0.0,0.0,0.0,0.0,0.0,0.0,0.0,3.1787,3.1618,3.1426,3.121,3.119,3.0995,3.0518,3.0608,3.0283,0.0,0.0,0.0,0.0,0.0,0.0,0.0,0.0,0.0,0.0,0.0,0.0,0.0,0.0,0.0,0.0,0.0,0.0,0.0,0.0,0.0,0.0,0.0,0.0,0.0,0.0,0.0,0.0,0.0,0.0,0.0,0.0,0.0,0.0,0.0,0.0,0.0,0.0,0.0,0.0,2.5312,2.5312,2.5312,0.0,0.0,0.0,0.0,0.0,0.0,2.4286,2.3897,0.0,0.0,0.0,0.0,0.0,0.0,0.0,0.0,0.0,0.0,0.0,0.0,0.0,0.0,0.0,0.0,0.0,0.0,0.0,0.0,0.0,0.0,0.0,0.0,0.0,0.0,0.0,0.0,0.0,0.0,0.0,0.0,0.0,0.0,0.0,0.0,0.0,0.0,0.0,0.0,0.0,0.0,0.0,0.0,0.0,0.0,0.0,0.0,0.0,0.0,0.0,0.0,0.0,0.0,0.0,3.1695,3.1447,3.132,3.143,3.143,3.1281,3.0949,3.099,3.0749,0.0,0.0,0.0,0.0,0.0,0.0,0.0,0.0,0.0,0.0,0.0,0.0,0.0,0.0,0.0,0.0,0.0,0.0,0.0,0.0,0.0,0.0,0.0,0.0,0.0,0.0,0.0,0.0,0.0,0.0,0.0,0.0,0.0,0.0,0.0,0.0,0.0,0.0,0.0,0.0,0.0,2.5312,2.5312,2.5312,0.0,0.0,0.0,0.0,2.548,2.4989,0.0,0.0,0.0,0.0,0.0,0.0,0.0,0.0,0.0,0.0,0.0,0.0,0.0,0.0,0.0,0.0,0.0,0.0,0.0,0.0,0.0,0.0,0.0,0.0,0.0,0.0,0.0,0.0,0.0,0.0,0.0,0.0,0.0,0.0,0.0,0.0,0.0,0.0,0.0,0.0,0.0,0.0,0.0,0.0,0.0,0.0,0.0,0.0,0.0,0.0,0.0,0.0,0.0,0.0,0.0,0.0,3.1714,3.1675,3.1794,3.2144,3.2175,3.2257,3.2431,3.1998,3.1549,0.0,0.0,0.0,0.0,0.0,0.0,0.0,0.0,0.0,0.0,0.0,0.0,0.0,0.0,0.0,0.0,0.0,0.0,0.0,0.0,0.0,0.0,0.0,0.0,0.0,0.0,0.0,0.0,0.0,0.0,0.0,0.0,0.0,0.0,0.0,0.0,0.0,0.0,0.0,0.0,0.0,2.5312,2.5312,2.5312,2.5312,0.0,0.0,2.6009,2.5997,2.6036,0.0,0.0,0.0,0.0,0.0,0.0,0.0,0.0,0.0,0.0,0.0,0.0,0.0,0.0,0.0,0.0,0.0,0.0,0.0,0.0,0.0,0.0,0.0,0.0,0.0,0.0,0.0,0.0,0.0,0.0,0.0,0.0,0.0,0.0,0.0,0.0,0.0,0.0,0.0,0.0,0.0,0.0,0.0,0.0,0.0,0.0,0.0,0.0,0.0,0.0,0.0,0.0,0.0,0.0,0.0,3.2945,3.267,3.267,3.276,3.2899,3.2609,3.2398,3.2253,3.2096,3.1754,0.0,0.0,0.0,0.0,0.0,0.0,0.0,0.0,0.0,0.0,0.0,0.0,0.0,0.0,0.0,0.0,0.0,0.0,0.0,0.0,0.0,0.0,0.0,0.0,0.0,0.0,0.0,0.0,0.0,0.0,0.0,0.0,0.0,0.0,0.0,0.0,0.0,0.0,0.0,0.0,0.0,0.0,2.6189,2.6226,0.0,0.0,0.0,2.6537,2.6574,0.0,0.0,0.0,0.0,0.0,0.0,0.0,0.0,0.0,0.0,0.0,0.0,0.0,0.0,0.0,0.0,0.0,0.0,0.0,0.0,0.0,0.0,0.0,0.0,0.0,0.0,0.0,0.0,0.0,0.0,0.0,0.0,0.0,0.0,0.0,0.0,0.0,0.0,0.0,0.0,0.0,0.0,0.0,0.0,0.0,0.0,0.0,0.0,0.0,0.0,0.0,0.0,0.0,0.0,0.0,0.0,0.0,3.3577,3.3469,3.3491,3.3639,3.3128,3.2807,3.2646,3.2458,0.0,0.0,0.0,0.0,0.0,0.0,0.0,0.0,0.0,0.0,0.0,0.0,0.0,0.0,0.0,0.0,0.0,0.0,0.0,0.0,0.0,0.0,0.0,0.0,0.0,0.0,0.0,2.5418,0.0,0.0,0.0,0.0,0.0,0.0,0.0,0.0,0.0,0.0,0.0,0.0,0.0,0.0,2.6885,2.6885,2.6885,2.6885,0.0,0.0,2.709,2.709,2.6957,2.6848,0.0,0.0,0.0,0.0,0.0,0.0,0.0,0.0,0.0,0.0,0.0,0.0,0.0,0.0,0.0,0.0,0.0,0.0,0.0,0.0,0.0,0.0,0.0,0.0,0.0,0.0,0.0,0.0,0.0,0.0,0.0,0.0,0.0,0.0,0.0,0.0,0.0,0.0,0.0,0.0,0.0,0.0,0.0,0.0,0.0,0.0,0.0,0.0,0.0,0.0,0.0,0.0,0.0,0.0,3.3758,3.4032,3.3622,3.3744,3.4387,3.3907,3.3942,3.458,3.3639,3.3093,0.0,0.0,0.0,0.0,0.0,0.0,0.0,0.0,0.0,0.0,0.0,0.0,0.0,0.0,0.0,0.0,0.0,0.0,0.0,0.0,0.0,0.0,0.0,0.0,0.0,0.0,0.0,0.0,0.0,0.0,0.0,0.0,0.0,0.0,0.0,0.0,0.0,0.0,0.0,0.0,0.0,2.6885,2.6885,2.6885,2.6898,0.0,2.7318,2.763,2.7669,2.8038,2.8323,2.8362,0.0,0.0,0.0,0.0,0.0,0.0,0.0,0.0,0.0,0.0,0.0,0.0,0.0,0.0,0.0,0.0,0.0,0.0,0.0,0.0,0.0,0.0,0.0,0.0,0.0,0.0,0.0,0.0,0.0,0.0,0.0,0.0,0.0,0.0,0.0,0.0,0.0,0.0,0.0,0.0,0.0,0.0,0.0,0.0,0.0,0.0,0.0,0.0,0.0,0.0,0.0,0.0,0.0,3.5015,3.513,3.489,3.4873,3.5143,3.4651,3.4345,3.4317,3.3598,3.3039,0.0,0.0,0.0,0.0,0.0,0.0,0.0,0.0,0.0,0.0,0.0,0.0,0.0,0.0,0.0,0.0,0.0,0.0,0.0,0.0,0.0,0.0,0.0,0.0,0.0,0.0,0.0,0.0,2.6099,2.6489,2.6747,0.0,0.0,0.0,0.0,0.0,0.0,0.0,0.0,0.0,0.0,2.8195,2.8079,2.8091,0.0,0.0,2.8038,2.8198,2.821,2.8378,2.851,2.851,2.8219,0.0,0.0,0.0,0.0,0.0,0.0,0.0,0.0,0.0,0.0,0.0,0.0,0.0,0.0,0.0,0.0,0.0,0.0,0.0,0.0,0.0,0.0,0.0,0.0,0.0,0.0,0.0,0.0,0.0,0.0,0.0,0.0,0.0,0.0,0.0,0.0,0.0,0.0,0.0,0.0,0.0,0.0,0.0,0.0,0.0,0.0,0.0,0.0,0.0,0.0,0.0,0.0,3.5883,3.5922,3.5795,3.5734,3.5711,3.5045,3.448,3.4053,3.3381,3.283,0.0,0.0,0.0,0.0,0.0,0.0,0.0,0.0,0.0,0.0,0.0,0.0,0.0,0.0,0.0,0.0,0.0,0.0,0.0,0.0,0.0,0.0,0.0,0.0,0.0,0.0,0.0,0.0,2.6721,2.7188,2.7668,0.0,0.0,0.0,0.0,0.0,0.0,0.0,0.0,0.0,0.0,2.904,2.8831,2.8803,2.8724,2.8538,2.851,2.851,2.851,2.851,2.851,2.851,0.0,0.0,0.0,0.0,0.0,0.0,0.0,0.0,0.0,0.0,0.0,0.0,0.0,0.0,0.0,0.0,0.0,0.0,0.0,0.0,0.0,0.0,0.0,0.0,0.0,0.0,0.0,3.4999,0.0,0.0,3.4663,0.0,0.0,0.0,0.0,0.0,0.0,0.0,0.0,0.0,0.0,0.0,0.0,0.0,0.0,0.0,0.0,0.0,0.0,0.0,0.0,0.0,0.0,3.6062,3.6204,3.6041,3.5975,3.5954,3.4958,3.4366,3.4186,3.3161,3.2551,3.2425,0.0,0.0,0.0,0.0,0.0,0.0,0.0,0.0,0.0,0.0,0.0,0.0,0.0,0.0,0.0,0.0,0.0,0.0,0.0,0.0,0.0,0.0,0.0,0.0,0.0,0.0,2.7199,2.7545,2.7916,0.0,0.0,0.0,0.0,0.0,0.0,0.0,0.0,0.0,0.0,2.9079,2.9052,2.8831,2.8803,2.8724,2.855,2.851,2.851,2.851,2.8522,2.851,0.0,0.0,0.0,0.0,0.0,0.0,0.0,0.0,0.0,0.0,0.0,0.0,0.0,0.0,0.0,0.0,0.0,0.0,0.0,0.0,0.0,0.0,0.0,0.0,0.0,0.0,0.0,3.4935,3.4926,0.0,0.0,0.0,0.0,0.0,0.0,0.0,0.0,0.0,0.0,0.0,3.8737,3.8554,0.0,0.0,0.0,0.0,0.0,0.0,0.0,0.0,0.0,0.0,0.0,0.0,3.6144,3.6204,3.6079,3.6014,3.6014,3.5299,3.4864,3.4704,3.3691,3.29,3.2425,0.0,0.0,0.0,0.0,0.0,0.0,0.0,0.0,0.0,0.0,0.0,0.0,0.0,0.0,0.0,0.0,0.0,0.0,0.0,0.0,0.0,0.0,0.0,0.0,0.0,2.7866,0.0,0.0,0.0,0.0,0.0,0.0,0.0,0.0,0.0,0.0,0.0,2.9353,2.9546,2.9585,2.9429,2.904,2.9013,2.8882,0.0,0.0,0.0,0.0,0.0,0.0,0.0,0.0,0.0,0.0,0.0,0.0,0.0,0.0,2.8796,2.7782,2.7725,2.7653,2.7173,0.0,0.0,0.0,0.0,0.0,0.0,0.0,0.0,0.0,0.0,0.0,0.0,0.0,0.0,3.4954,3.4954,3.487,0.0,0.0,0.0,0.0,0.0,0.0,0.0,0.0,3.9175,3.8937,3.8624,3.8442,3.8216,0.0,3.7791,3.7394,0.0,0.0,0.0,0.0,0.0,0.0,0.0,0.0,3.6212,3.6229,3.6148,3.6105,3.6084,3.5611,3.5253,3.5052,3.3928,3.3093,3.2695,3.2492,3.2398,0.0,0.0,0.0,0.0,0.0,0.0,0.0,0.0,0.0,0.0,0.0,0.0,0.0,0.0,0.0,0.0,0.0,0.0,0.0,0.0,0.0,0.0,0.0,2.8549,0.0,0.0,0.0,0.0,0.0,0.0,0.0,0.0,0.0,2.956,2.956,2.9599,2.9779,2.9779,2.9663,2.9248,0.0,0.0,0.0,0.0,0.0,0.0,0.0,2.9569,2.9569,2.9845,3.0061,2.9944,2.9925,2.9898,2.9761,0.0,0.0,2.8564,2.8568,2.8682,2.8176,2.8621,2.9077,2.9095,2.9205,2.9453,0.0,0.0,0.0,0.0,0.0,0.0,0.0,0.0,3.5016,3.5041,0.0,3.4963,0.0,0.0,0.0,0.0,3.8059,3.8975,0.0,0.0,3.9256,3.9027,3.8685,3.8314,3.8083,3.8033,3.7685,3.745,3.7356,3.7167,0.0,0.0,0.0,0.0,0.0,0.0,3.6284,3.6284,3.6301,3.6301,3.6262,3.5832,3.5442,3.5128,3.3912,3.3235,3.3156,3.2711,3.241,3.2398,3.2398,0.0,0.0,0.0,0.0,0.0,0.0,0.0,0.0,0.0,0.0,0.0,0.0,0.0,0.0,0.0,0.0,0.0,0.0,0.0,0.0,2.9454,0.0,0.0,0.0,0.0,0.0,0.0,0.0,0.0,0.0,0.0,2.9842,2.9804,2.9792,2.9817,0.0,0.0,0.0,0.0,2.951,2.9638,2.9618,2.9731,3.0031,3.0098,3.011,3.011,0.0,0.0,3.0819,3.0891,3.1048,3.1565,3.1202,3.0486,2.904,2.9544,2.9989,2.9581,3.0171,3.0857,3.0892,3.1119,3.1496,3.5166,0.0,0.0,0.0,0.0,3.5208,3.5227,3.5149,3.5149,3.5105,3.5024,3.4889,0.0,0.0,0.0,0.0,0.0,0.0,3.9462,3.9405,3.936,3.9115,3.87,3.8579,3.8229,3.7667,3.756,3.732,3.6972,3.6911,3.6891,3.6873,0.0,0.0,0.0,0.0,3.6284,3.6284,3.6284,3.6284,3.6284,3.5837,3.5128,3.4202,3.4292,3.3843,3.2819,3.2911,3.2803,3.2425,3.2398,0.0,0.0,0.0,0.0,0.0,0.0,0.0,0.0,0.0,0.0,0.0,0.0,0.0,0.0,0.0,0.0,0.0,0.0,0.0,3.0919,2.9986,2.9665,0.0,0.0,0.0,0.0,0.0,0.0,0.0,0.0,0.0,3.0319,3.003,2.9942,0.0,0.0,3.044,3.0602,3.0611,3.058,3.0483,3.0289,0.0,3.0288,3.0525,3.0694,3.0651,3.1007,3.1308,3.1452,3.1488,3.1404,3.1193,3.1294,3.1187,3.0507,3.0475,3.0547,3.0189,3.0798,3.1294,3.1038,3.135,3.1705,3.5179,3.5184,3.5198,3.5182,3.5218,3.5281,3.527,3.5151,3.5151,3.5081,3.4973,3.487,3.4849,3.4897,3.5364,0.0,0.0,0.0,3.952,3.9482,3.9457,3.917,3.8744,3.856,3.8229,3.7738,3.756,3.7339,3.7089,3.7071,3.7127,3.7204,0.0,0.0,3.6658,3.6426,3.6284,3.6284,3.6284,3.6284,3.6284,3.6002,3.5481,3.4793,3.4887,3.4512,3.3604,3.3381,3.3119,3.2819,3.2547,3.2468,0.0,0.0,0.0,0.0,0.0,0.0,0.0,0.0,0.0,0.0,0.0,3.1171,3.2042,0.0,0.0,0.0,3.2091,3.1823,3.1318,3.0355,0.0,0.0,0.0,0.0,0.0,0.0,0.0,2.9577,2.9905,3.0319,3.0834,3.0633,3.0545,3.0884,3.0922,3.1007,3.1198,0.0,3.1187,3.1107,3.0922,3.0882,3.0919,3.1105,3.1223,3.1223,3.1488,3.1705,3.1705,3.1705,3.1584,3.135,3.1484,3.1617,3.1261,3.1217,3.1116,3.0847,3.1306,3.1572,3.125,3.1484,3.1705,3.5182,3.5182,3.5182,3.5182,3.5182,3.5182,3.516,3.511,3.5082,3.5038,3.4917,3.4917,3.4879,3.4883,3.6415,0.0,3.8263,3.9176,3.9608,3.9608,3.9533,3.9288,3.8865,3.8468,3.8231,3.8083,3.7721,3.7523,3.745,3.745,3.7413,3.7337,3.6791,3.6464,3.6364,3.6305,3.6284,3.6284,3.6284,3.6284,3.6284,3.6229,3.6204,3.6122,3.5571,3.5168,3.4911,3.4028,3.3485,3.3387,3.2776,3.2578,3.2827,0.0,0.0,0.0,0.0,0.0,0.0,0.0,0.0,0.0,0.0,0.0,0.0,0.0,0.0,0.0,3.2988,0.0,3.1156,3.0671,0.0,0.0,0.0,2.9817,2.9854,2.9867,3.0068,3.0608,0.0,0.0,3.1399,3.1449,3.1461,3.1524,3.1486,3.1474,3.1512,3.1574,3.1547,3.1637,3.1613,3.1626,3.17,3.1689,3.1657,3.1657,3.1705,3.1705,3.1705,3.1705,3.1705,3.1661,3.1705,3.1717,3.1705,3.1673,3.1705,3.1661,3.1661,3.1705,3.1661,3.1717,3.1705,3.5182,3.5182,3.5182,3.5182,3.5182,3.5182,3.5193,3.5196,3.5196,3.5126,3.5047,3.5057,3.4965,3.4883,3.6404,3.7204,3.7437,3.8913,3.9608,3.9608,3.9596,3.9489,3.9328,3.9188,3.8778,3.8198,3.8033,3.7685,3.7127,3.7108,3.705,3.693,3.6728,3.6731,3.6876,3.6492,3.6284,3.6284,3.6284,3.6284,3.6301,3.6251,3.6041,3.5761,3.5766,3.5413,3.4577,3.4601,3.4178,3.3303,3.3093,3.2841,3.2551,3.2857,0.0,0.0,0.0,0.0,0.0,0.0,0.0,0.0,0.0,3.4345,3.4857,0.0,3.3309,0.0,3.35,3.2889,3.2318,3.1355,0.0,0.0,3.0139,2.9955,3.0369,3.0419,3.062,3.1148,3.1198,3.1411,3.1964,3.2014,3.2177,3.2591,3.229,3.2177,3.2591,3.2679,3.2717,3.2659,3.2383,3.2197,3.2176,3.1937,3.1705,3.1705,3.1705,3.1705,3.1705,3.1705,3.1705,3.1705,3.1705,3.1705,3.1705,3.1705,3.1705,3.1705,3.1705,3.1705,3.1705,3.1705,3.1705,3.5182,3.5182,3.5182,3.5182,3.5182,3.5182,3.5182,3.5182,3.5182,3.5176,3.5126,3.5028,3.4946,3.4943,3.6407,3.711,3.7242,3.8838,3.9608,3.9608,3.9608,3.9558,3.9444,3.9073,3.864,3.8167,3.7774,3.7411,3.7009,3.6989,3.695,3.6871,3.6766,3.6786,3.6891,3.6509,3.6406,3.6557,3.6388,3.6284,3.6284,3.6255,3.6148,3.5924,3.6067,3.5849,3.523,3.5121,3.4776,3.4128,3.3767,3.3397,3.3007,3.3177,3.3029,0.0,0.0,0.0,0.0,0.0,0.0,0.0,0.0,0.0,0.0,0.0,3.3534,3.3874,3.35,3.3115,3.2739,3.1746,3.1187,3.1248,3.0611,3.0369,3.0896,3.0959,3.1173,3.17,3.175,3.1976,3.2516,3.2591,3.2704,3.3043,3.2805,3.2717,3.3048,3.3124,3.3068,3.2952,3.2605,3.23,3.2113,3.1893,3.1705,3.1705,3.1705,3.1705,3.1705,3.1705,3.1705,3.1705,3.1705,3.1705,3.1705,3.1705,3.1705,3.1705,3.1705,3.1705,3.1705,3.1705,3.1705,3.5182,3.5182,3.5182,3.5182,3.5182,3.5182,3.5182,3.5182,3.5182,3.5182,3.5182,3.4992,3.4908,3.5002,3.644,3.711,3.7223,3.8838,3.9608,3.9608,3.9608,3.9527,3.9373,3.873,3.8328,3.8066,3.7504,3.7147,3.7068,3.7126,3.7106,3.7048,3.6869,3.6786,3.6786,3.6485,3.6492,3.6818,3.6474,3.6284,3.6284,3.6284,3.6284,3.6284,3.6284,3.6276,3.6165,3.5633,3.5283,3.5138,3.4504,3.396,3.3652,3.3517,3.3203,0.0,3.2788,0.0,0.0,0.0,0.0,0.0,0.0,0.0,0.0,3.4051,3.3409,3.3304,3.3374,3.3269,3.2797,3.2205,3.1822,3.1692,3.1213,3.1042,3.1452,3.1499,3.17,3.2265,3.2328,3.2516,3.3023,3.3124,3.3124,3.3124,3.3099,3.3086,3.3068,3.3124,3.3025,3.2766,3.2562,3.2257,3.1837,3.1705,3.1705,3.1705,3.1705,3.1705,3.1705,3.1705,3.1729,3.1813,3.1849,3.1874,3.1898,3.1946,3.1934,3.1994,3.2018,3.1946,3.1765,3.1705,3.1705,3.5182,3.5182,3.5182,3.5182,3.5182,3.5182,3.5182,3.5182,3.5182,3.5182,3.5174,3.4973,3.4908,3.5021,3.644,3.711,3.7204,3.8838,3.9608,3.9608,3.9608,3.9558,3.9469,3.9275,3.884,3.8214,3.8245,3.7997,3.7395,3.7739,3.7721,3.7395,3.7319,3.7262,3.7243,0.0,0.0,0.0,3.6343,3.6284,3.6284,3.6284,3.6284,3.6284,3.6284,0.0,3.6204,3.6079,3.5717,3.5085,3.4904,0.0,0.0,0.0,0.0,0.0,0.0,0.0,0.0,0.0,0.0,0.0,3.6508,3.6149,3.5576,3.4721,3.3942,3.3374,3.3839,3.3908,3.3206,3.3491,3.3143,3.1898,3.2032,3.2246,3.2101,3.2051,3.2277,3.2842,3.2905,3.2986,3.3099,3.3124,3.3124,3.3124,3.3124,3.3124,3.3124,3.3124,3.3081,3.2995,3.2649,3.2257,3.1761,3.1705,3.1717,3.1705,3.1705,3.1729,3.1765,3.1753,3.1922,3.2238,3.2346,3.2491,3.2875,3.3017,3.2923,3.2971,3.2971,3.2719,3.191,3.1717,3.1705,3.5182,3.5182,3.5182,3.5182,0.0,3.5182,3.5182,3.5182,3.5182,3.5182,3.5193,3.4992,3.4908,3.4974,3.644,3.711,3.7185,3.8838,3.9608,3.9608,3.9608,3.9552,3.9495,3.9248,3.888,3.8436,3.818,3.7963,3.7809,3.7809,3.7791,3.7773,3.7523,3.7394,3.7376,3.6794,3.6423,3.6284,3.6284,3.6284,3.6284,3.6284,3.6284,3.6284,3.6284,0.0,0.0,0.0,0.0,0.0,0.0,0.0,0.0,3.4178,0.0,3.3082,3.3991,3.4692,3.4823,3.5878,3.6656,3.6953,3.6321,3.58,3.5494,3.4471,3.377,3.3597,3.3874,3.4071,3.4009,3.4143,3.3933,3.3284,3.312,3.2976,3.2739,3.2641,3.2754,3.3048,3.3124,3.3124,3.3124,3.3124,3.3124,3.3124,3.3124,3.3124,3.3124,3.3124,3.3038,3.2822,3.2562,3.2257,3.1805,3.1717,3.1837,3.1985,3.2082,3.219,3.2464,3.2524,3.2563,3.2827,3.2887,3.2996,3.32,3.3284,3.3284,3.3284,3.3284,3.3152,3.2608,3.2466,3.25,3.5218,3.5182,3.5182,3.5182,3.5182,3.5182,3.5182,3.5182,3.5182,0.0,0.0,3.501,3.4936,3.5012,3.633,3.6964,3.7227,3.8681,3.9458,3.9608,3.9608,3.9571,3.9482,3.9101,3.8851,3.8651,3.8012,3.7844,3.8085,3.7826,3.7826,3.8051,3.7756,3.7541,3.7339,3.6856,3.6527,3.6305,3.6284,3.6284,3.6284,3.6284,3.6284,3.6284,3.6284,3.6284,3.6284,3.6255,3.6208,3.6187,3.6101,3.5783,3.5237,3.4704,3.4234,3.3832,3.3975,3.4391,3.5049,3.5767,3.6406,3.6984,3.5881,3.519,3.5187,3.4085,3.3493,3.377,3.3974,3.4329,3.488,3.4854,3.4803,3.4913,3.43,3.3766,3.3365,3.3167,3.3111,3.3124,3.3124,3.3124,3.3124,3.3124,3.3124,3.3124,3.3124,3.3124,3.3124,3.3124,3.2995,3.2593,3.2487,3.2281,3.2027,3.1886,3.2078,3.2551,3.2647,3.2803,3.3152,3.3284,3.332,3.3404,3.3416,3.3477,3.3549,3.3633,3.3561,3.3561,3.3561,3.3549,3.3561,3.3561,3.3489,3.5261,3.5182,3.5182,3.5182,3.5182,3.5182,3.5182,3.5182,3.5182,3.5182,3.5182,3.5119,3.5075,3.5114,3.5831,3.6548,3.7227,3.8103,3.8882,3.9589,3.9608,3.9552,3.9495,3.9373,3.9087,3.8715,3.8514,3.8312,3.8133,3.8328,3.8328,3.815,3.833,3.803,3.7283,3.7132,3.6838,3.6305,3.6284,3.6284,3.6284,3.6284,3.6284,3.6284,3.6284,3.6284,3.6284,3.628,3.6255,3.6187,3.6182,3.5871,3.5243,3.4704,3.4421,3.4536,3.4683,3.5065,3.5783,3.6484,3.6906,3.6923,3.6086,3.5402,3.5109,3.4254,3.3736,3.3819,3.4623,3.5207,3.5346,3.6201,3.6462,3.5885,3.5499,3.5021,3.4272,3.3539,3.3124,3.3124,3.3124,3.3124,3.3124,3.3124,3.3124,3.3124,3.3124,3.3136,3.3174,3.3124,3.2995,3.2723,3.2519,3.2484,3.2552,3.2506,3.2656,3.308,3.3176,3.3224,3.338,3.3416,3.3537,3.3814,3.3874,3.403,3.4438,3.457,3.4523,3.4487,3.4475,3.4511,3.4487,3.445,3.4282,3.5261,3.519,3.5182,3.5182,3.5182,3.5182,3.5182,3.5182,3.5182,3.5182,3.5193,3.5065,3.4992,3.505,3.5637,3.6389,3.7179,3.7967,3.877,3.957,3.9608,3.9577,3.9546,3.9457,3.9288,3.9073,3.8748,3.8594,3.8643,3.8628,3.8594,3.8628,3.8609,3.8229,3.7578,3.732,3.7015,3.6638,3.6409,3.6284,3.6284,3.6284,3.6284,3.6284,3.6284,3.6284,3.6284,3.6284,3.628,3.6255,3.6255,3.611,3.5815,3.5328,3.5226,3.5638,3.553,3.5716,3.6387,3.6847,3.7089,3.7089,3.6337,3.5882,3.5864,3.4791,3.4254,3.452,3.5083,3.5552,3.5851,3.6736,3.7086,3.6564,3.5957,3.5278,3.4468,3.3611,3.3124,3.3124,3.3124,3.3124,3.3124,3.3124,3.3124,3.3124,3.3124,3.3212,3.347,3.352,3.3389,3.3039,3.2798,3.2751,3.3032,3.3015,3.3152,3.3609,3.3705,3.3813,3.403,3.4114,3.421,3.4354,3.4414,3.451,3.4763,3.4775,3.4775,3.4775,3.4775,3.4775,3.4775,3.4775,3.4643,3.5277,3.5245,3.5209,3.5182,3.5182,3.5182,3.5182,3.5182,3.5182,3.5182,3.5166,3.5037,3.4964,3.5003,3.5457,3.6208,3.7126,3.7749,3.8601,3.9552,3.9608,3.9608,3.9596,3.9464,3.9418,3.9333,3.8884,3.8744,3.8942,3.8733,3.8778,3.9027,3.8744,3.8376,3.7911,3.7524,3.7189,3.69,3.6512,3.6284,3.6284,3.6284,3.6284,3.6284,3.6284,3.6284,3.6284,3.6284,3.6284,3.6284,3.6284,3.6284,3.6262,3.5854,3.5955,3.6606,3.624,3.6208,3.6819,3.7058,3.7134,3.7134,3.6631,3.6399,3.6523,3.5382,3.4783,3.5322,3.5507,3.5851,3.646,3.7128,3.7345,3.6958,3.6122,3.5264,3.4468,3.3611,3.3124,3.3124,3.3124,3.3124,3.3124,3.3124,3.3187,3.3312,3.3312,3.3495,3.3947,3.3997,3.3767,3.3609,3.3289,3.3241,3.3484,3.3499,3.3681,3.4078,3.4174,3.4318,3.4607,3.4739,3.4751,3.4739,3.4751,3.4739,3.4763,3.4775,3.4775,3.4775,3.4775,3.4775,3.4775,3.4775,3.4775,3.5297,3.5277,3.5218,3.5182,3.5182,3.5182,3.5182,3.5182,3.5182,3.5182,3.5182,3.5185,3.5107,3.5075,3.5031,3.5812,3.7133,3.7212,3.8087,3.9477,3.9608,3.9608,3.9608,3.9502,3.9457,3.9365,3.8927,3.8718,3.8703,3.864,3.8759,3.9027,3.8763,3.8483,3.8245,3.7857,3.7433,3.6919,3.6495,3.6284,3.6284,3.6284,3.6284,3.6284,3.6284,3.6284,3.6284,3.6284,3.6284,3.6284,3.6284,3.6284,3.6259,3.5876,3.6231,3.7513,3.669,3.6417,3.706,3.7074,3.703,3.7015,3.6953,3.6968,3.7028,3.5866,3.5325,3.5885,3.6137,3.641,3.7143,3.7738,3.7733,3.7025,3.6148,3.5264,3.4551,3.3611,3.3124,3.3124,3.3124,3.3124,3.3124,3.3162,3.3307,3.3696,3.3796,3.4022,3.448,3.4379,3.4304,3.445,3.4234,3.4022,3.4191,3.4076,3.4174,3.4546,3.4679,3.4703,3.4751,3.4775,3.4775,3.4775,3.4775,3.4775,3.4775,3.4775,3.4775,3.4775,3.4775,3.4775,3.4775,3.4775,3.4775,3.5327,3.5312,3.5269,3.5226,3.5209,3.5182,3.5182,3.5182,3.5182,3.5182,3.5193,3.5151,3.5082,3.4964,3.4888,3.5667,3.7103,3.7114,3.8012,3.9514,3.9608,3.9608,3.9608,3.9533,3.9475,3.9391,3.9115,3.8952,3.8913,3.8898,3.8865,3.8822,3.8851,3.8733,3.8442,3.8227,3.7874,3.7433,3.696,3.66,3.6426,3.6343,3.6284,3.6284,3.6284,3.6284,3.6284,3.6284,3.6284,3.6284,3.6284,3.6284,3.6301,3.656,3.7148,3.8046,3.784,3.7512,3.7237,3.715,3.7165,3.7301,3.7195,3.715,3.7164,3.6305,3.5982,3.6467,3.6247,3.6266,3.6913,3.769,3.7976,3.7299,3.6281,3.5467,3.5156,3.3937,3.3124,3.3124,3.3124,3.3124,3.3131,3.337,3.3633,3.3922,3.4148,3.4587,3.5056,3.4986,3.5037,3.5176,3.508,3.4866,3.4703,3.4559,3.4607,3.4703,3.4775,3.4775,3.4775,3.4775,3.4775,3.4775,3.4775,3.4775,3.4775,3.4775,3.4775,3.4775,3.4775,3.4775,3.4775,3.4775,3.4775,3.5369,3.5308,3.5285,3.5234,3.5182,3.5182,3.5182,3.5182,3.5182,3.5193,3.5168,3.5138,3.502,3.4888,3.481,3.5518,3.6678,3.6998,3.7861,3.9195,3.9477,3.9608,3.9589,3.9558,3.9482,3.9405,3.9283,3.9202,3.9101,3.8984,3.888,3.8778,3.8898,3.8855,3.8664,3.8483,3.8178,3.7738,3.7248,3.6821,3.6468,3.636,3.6284,3.6284,3.6284,3.6284,3.6284,3.6284,3.6284,3.6284,3.6284,3.6284,3.6318,3.7081,3.775,3.8258,3.8659,3.8379,3.7344,3.7254,3.7329,3.7464,3.7359,3.7254,3.7105,3.649,3.6375,3.6837,3.6302,3.6171,3.6919,3.7604,3.781,3.7404,3.632,3.5548,3.5196,3.3924,3.3124,3.3124,3.3124,3.3187,3.3319,3.3646,3.396,3.4374,3.4668,3.5061,3.549,3.5559,3.5496,3.5499,3.5404,3.5199,3.4872,3.4775,3.4775,3.4775,3.4775,3.4775,3.4775,3.4775,3.4775,3.4775,3.4775,3.4775,3.4775,3.4775,3.4775,3.4775,3.4775,3.4775,3.4775,3.4775,3.4775,3.5364,3.5274,3.5223,3.5209,3.5182,3.5182,3.5182,3.5182,3.5182,3.5168,3.511,3.5092,3.4983,3.4809,3.4798,3.5235,3.6002,3.6772,3.7568,3.8469,3.9232,3.9608,3.9608,3.9608,3.9514,3.9418,3.9373,3.9275,3.9069,3.8807,3.8778,3.9027,3.8778,3.8766,3.8826,3.856,3.8162,3.7667,3.7267,3.6783,3.6385,3.6284,3.6284,3.6284,3.6284,3.6284,3.6284,3.6284,3.6284,3.6284,3.6284,3.6284,3.6353,3.7098,3.7723,3.8077,3.8758,3.8662,3.7655,3.748,3.748,3.751,3.745,3.7405,3.7135,3.6349,3.6166,3.6902,3.6416,3.6472,3.7244,3.7577,3.7558,3.7067,3.6201,3.54,3.4634,3.3852,3.321,3.3136,3.3174,3.3319,3.3771,3.3884,3.4437,3.5031,3.5408,3.5599,3.5837,3.5773,3.5559,3.5295,3.5078,3.4823,3.4775,3.4775,3.4775,3.4775,3.4775,3.4775,3.4775,3.4775,3.4775,3.4775,3.4775,3.4775,3.4775,3.4775,3.4775,3.4775,3.4775,3.4775,3.4775,3.4775,3.4775,3.5405,3.53,3.5242,3.5182,3.5182,3.5182,3.5182,3.5182,3.5182,3.516,3.5092,3.5011,3.4908,3.4788,3.4716,3.5114,3.5935,3.6723,3.753,3.8338,3.9195,3.9608,3.9608,3.9608,3.954,3.9469,3.9418,3.9307,3.9115,3.897,3.8851,3.8763,3.8655,3.864,3.8688,3.8594,3.8293,3.7807,3.756,3.7117,3.6468,3.6343,3.6284,3.6284,3.6284,3.6284,3.6284,3.6284,3.6284,3.6284,3.6284,3.6284,3.6404,3.7508,3.8359,3.874,3.9056,3.8689,3.7685,3.751,3.751,3.748,3.7301,3.7151,3.6986,3.6487,3.6187,3.6362,3.6423,3.6557,3.6877,3.7495,3.7839,3.7352,3.678,3.6042,3.5278,3.4454,3.3738,3.3303,3.3357,3.3696,3.3972,3.45,3.5044,3.5433,3.583,3.6072,3.6153,3.6038,3.5716,3.5464,3.5223,3.4981,3.4775,3.4775,3.4775,3.4775,3.4775,3.4775,3.4775,3.4775,3.4775,3.4775,3.4775,3.4775,3.4775,3.4775,3.4775,3.4775,3.4775,3.4775,3.4775,3.4775,3.4775,3.5376,3.5304,3.5234,3.5182,3.5182,3.5182,3.5182,3.5182,3.5176,3.5117,3.502,3.4927,3.482,3.4718,3.4645,3.4864,3.5578,3.6603,3.7399,3.8,3.9082,3.9608,3.9608,3.9608,3.954,3.9469,3.936,3.9215,3.9115,3.9101,3.8984,3.8778,3.8655,3.8612,3.8597,3.8486,3.818,3.7773,3.7596,3.7173,3.6527,3.6343,3.6284,3.6284,3.6284,3.6284,3.6284,3.6284,3.6284,3.6284,3.6284,3.6525,3.7077,3.7853,3.8601,3.9089,3.8984,3.8523,3.7671,3.751,3.751,3.751,3.7241,3.6984,3.6724,3.6569,3.6355,3.6179,3.643,3.6658,3.6891,3.7419,3.7763,3.7495,3.695,3.6281,3.5628,3.4607,3.3781,3.3316,3.3545,3.3897,3.4223,3.4944,3.547,3.5768,3.6144,3.6345,3.6275,3.6098,3.586,3.5524,3.5332,3.5078,3.4872,3.4775,3.4775,3.4775,3.4775,3.4775,3.4775,3.4775,3.4775,3.4775,3.4775,3.4775,3.4775,3.4775,3.4775,3.4775,3.4775,3.4775,3.4775,3.4775,3.4775,3.5312,3.5285,3.5218,3.5182,3.5182,3.5182,3.5182,3.5193,3.5136,3.5038,3.4917,3.483,3.4728,3.4615,3.4612,3.465,3.4977,3.6359,3.7148,3.7373,3.8857,3.9608,3.9608,3.9608,3.9533,3.9418,3.9234,3.9133,3.9101,3.9101,3.9087,3.9031,3.8703,3.8548,3.8612,3.8265,3.7809,3.7377,3.7265,3.6937,3.6388,3.6284,3.6284,3.6284,3.6284,3.6284,3.6284,3.6284,3.6284,3.6284,3.6284,3.7025,3.8035,3.8086,3.8211,3.8881,3.8629,3.81,3.7612,3.751,3.751,3.748,3.73,3.6876,3.6348,3.6618,3.6623,3.6006,3.6453,3.7081,3.7275,3.7264,3.7264,3.7419,3.6624,3.5829,3.5332,3.415,3.3136,3.3206,3.3646,3.4123,3.4663,3.5219,3.5793,3.6157,3.6367,3.631,3.6133,3.6015,3.5716,3.5368,3.5175,3.503,3.4872,3.4775,3.4775,3.4775,3.4775,3.4775,3.4775,3.4775,3.4775,3.4775,3.4775,3.4775,3.4775,3.4775,3.4775,3.4775,3.4775,3.4775,3.4775,3.4775,3.4775,3.5312,3.5304,3.5218,3.5182,3.5182,3.5182,3.5182,3.5174,3.5136,3.5001,3.4908,3.4839,3.4708,3.4623,3.4612,3.4612,3.4763,3.6303,3.711,3.7392,3.8819,3.9608,3.9608,3.9608,3.9527,3.9418,3.9333,3.9215,3.9115,3.9101,3.9101,3.8998,3.8535,3.841,3.8533,3.8015,3.7505,3.7264,3.7207,3.6917,3.6346,3.6284,3.6284,3.6284,3.6284,3.6284,3.6284,3.6284,3.6284,3.6284,3.6301,3.6839,3.7757,3.7909,3.8054,3.8455,3.8435,3.8071,3.7612,3.751,3.751,3.7464,3.7329,3.6937,3.6459,3.6727,3.6567,3.5883,3.6462,3.6993,3.6811,3.6954,3.725,3.7938,3.6858,3.5843,3.5346,3.4066,3.3429,3.3633,3.4123,3.4675,3.5215,3.5696,3.6119,3.6342,3.6417,3.6323,3.6275,3.5943,3.5716,3.5464,3.5223,3.4969,3.4872,3.4775,3.4775,3.4775,3.4775,3.4775,3.4775,3.4775,3.4775,3.4775,3.4775,3.4775,3.4775,3.4775,3.4775,3.4775,3.4775,3.4775,3.4775,3.4775,3.4775,3.5269,3.5242,3.5218,3.5182,3.5182,3.5182,3.5185,3.5151,3.5065,3.4964,3.485,3.4759,3.4676,3.4623,3.4612,3.4612,3.4752,3.6058,3.6828,3.7317,3.8838,3.9558,3.954,3.947,3.9419,3.9328,3.9288,3.9215,3.9115,3.9101,3.9045,3.8822,3.8362,3.8117,3.8147,3.7632,3.7207,3.7071,3.7031,3.6814,3.6447,3.6322,3.6284,3.6284,3.6284,3.6284,3.6284,3.6284,3.6284,3.6262,3.6135,3.6609,3.7628,3.7467,3.7494,3.8105,3.8084,3.7844,3.7539,3.751,3.751,3.7435,3.715,3.6677,3.6345,3.6526,3.6476,3.573,3.6514,3.7109,3.6968,3.6875,3.7366,3.8089,3.6702,3.5575,3.4746,3.3755,3.3406,3.3796,3.4349,3.4893,3.5433,3.6006,3.6392,3.6417,3.6417,3.6417,3.6323,3.6038,3.58,3.5572,3.5271,3.5017,3.4823,3.4775,3.4775,3.4775,3.4775,3.4775,3.4775,3.4775,3.4775,3.4775,3.4775,3.4775,3.4775,3.4775,3.4775,3.4775,3.4775,3.4775,3.4775,3.4775,3.4775,3.5182,3.5182,3.5182,3.5182,3.5193,3.5193,3.5143,3.5084,3.4945,3.4869,3.4788,3.4676,3.4612,3.4612,3.4612,3.4612,3.4781,3.5559,3.6441,3.7336,3.8631,3.9402,3.9476,3.9367,3.9283,3.9229,3.9188,3.9129,3.9101,3.9101,3.8942,3.8628,3.8281,3.7913,3.7614,3.7186,3.697,3.6851,3.6748,3.6643,3.6482,3.6364,3.6284,3.6284,3.6284,3.6284,3.6284,3.622,3.6237,3.6195,3.581,3.6156,3.7172,3.6671,3.6832,3.8052,3.7756,3.7612,3.751,3.751,3.751,3.748,3.6938,3.6257,3.5942,3.6435,3.6508,3.564,3.6699,3.7534,3.7471,3.7226,3.7366,3.7658,3.6334,3.4814,3.3411,3.3111,3.3413,3.3909,3.4437,3.4919,3.5508,3.6094,3.6342,3.6417,3.6417,3.6417,3.637,3.6133,3.5908,3.562,3.532,3.5078,3.4872,3.4775,3.4775,3.4775,3.4775,3.4775,3.4775,3.4775,3.4775,3.4775,3.4714,3.4714,3.4775,3.4775,3.4775,3.4775,3.4775,3.4787,3.4628,3.4421,3.4213,3.5182,3.5182,3.5182,3.5168,3.5136,3.5127,3.5056,3.4936,3.4859,3.48,3.4768,3.4655,3.4612,3.4612,3.4612,3.4612,3.4808,3.5465,3.6329,3.7148,3.8112,3.8933,3.9344,3.9431,3.9341,3.9229,3.9261,3.9248,3.9115,3.9069,3.8894,3.8594,3.8214,3.7879,3.7523,3.7166,3.6948,3.6809,3.6725,3.6623,3.6482,3.6381,3.6284,3.6284,3.6262,3.6262,3.6241,3.5963,3.5788,3.5766,3.5299,3.5455,3.6448,3.6296,3.6575,3.747,3.7596,3.751,3.751,3.751,3.751,3.7435,3.6907,3.6582,3.6542,3.6775,3.676,3.6493,3.7144,3.761,3.7534,3.7264,3.7081,3.6688,3.5963,3.48,3.3569,3.3149,3.342,3.4324,3.458,3.519,3.5868,3.6267,3.6417,3.6417,3.6417,3.6417,3.637,3.6193,3.5908,3.5668,3.5368,3.5126,3.4932,3.4823,3.4775,3.4775,3.4775,3.4775,3.4775,3.4775,3.4775,3.4775,3.4519,3.447,3.4677,3.4787,3.4775,3.4665,3.4421,3.4213,3.3808,3.3549,3.3139,3.5185,3.5151,3.5151,3.51,3.5039,3.503,3.4945,3.4869,3.4829,3.4768,3.4716,3.4626,3.4612,3.4612,3.4612,3.4612,3.4695,3.5127,3.5972,3.7211,3.8302,3.9039,3.9369,3.9399,3.9288,3.9229,3.9229,3.9133,3.8927,3.888,3.8624,3.8163,3.7947,3.7667,3.73,3.7126,3.6911,3.6809,3.6725,3.6544,3.6199,3.628,3.6006,3.5859,3.5837,3.5941,3.5644,3.523,3.5045,3.5091,3.4835,3.4978,3.5952,3.591,3.6334,3.7368,3.751,3.751,3.751,3.751,3.751,3.7345,3.6846,3.6626,3.6753,3.6841,3.6684,3.6722,3.739,3.7691,3.761,3.7534,3.7197,3.6688,3.6002,3.5074,3.3781,3.3553,3.384,3.443,3.4919,3.5366,3.6304,3.6405,3.6417,3.6417,3.6417,3.6417,3.637,3.6146,3.5908,3.5668,3.5368,3.5126,3.492,3.4823,3.4775,3.4775,3.4775,3.4775,3.4775,3.4775,3.4775,3.4714,3.4409,3.4213,3.447,3.4531,3.4372,3.4164,3.3857,3.361,3.33,3.2739,3.2325,3.5151,3.51,3.5092,3.5001,3.4898,3.4889,3.4859,3.4788,3.4768,3.4716,3.4612,3.4583,3.458,3.4572,3.455,3.4591,3.458,3.4663,3.5623,3.6962,3.8246,3.9064,3.9197,3.9129,3.9082,3.9069,3.9059,3.884,3.8612,3.8548,3.818,3.7755,3.756,3.732,3.7108,3.7007,3.6911,3.6791,3.6606,3.628,3.5885,3.5902,3.5599,3.5144,3.5305,3.5253,3.4833,3.4415,3.4333,3.4617,3.4234,3.471,3.5707,3.5586,3.6147,3.7178,3.751,3.751,3.751,3.751,3.745,3.7225,3.643,3.6213,3.6691,3.6635,3.6563,3.7026,3.7696,3.7919,3.7839,3.7991,3.7772,3.7078,3.6281,3.5318,3.4643,3.4152,3.411,3.4618,3.5157,3.5755,3.6169,3.6417,3.6417,3.6417,3.6417,3.6417,3.637,3.6275,3.5955,3.5668,3.5428,3.5163,3.4969,3.4775,3.4775,3.4775,3.4775,3.4775,3.4775,3.4775,3.4775,3.4665,3.4519,3.4323,3.4176,3.4164,3.3918,3.3598,3.3189,3.3201,3.3101,3.2235,3.1615,3.5151,3.5171,3.5,3.4898,3.482,3.4829,3.4768,3.4626,3.4645,3.4602,3.4528,3.4517,3.4495,3.445,3.4461,3.445,3.4469,3.4551,3.5242,3.6507,3.7335,3.8085,3.8508,3.873,3.8836,3.8759,3.8514,3.8344,3.8232,3.8167,3.7964,3.756,3.745,3.7338,3.7048,3.6968,3.6928,3.6731,3.6326,3.595,3.5604,3.5328,3.5075,3.4769,3.488,3.469,3.4358,3.4159,3.3933,3.3694,3.3692,3.4218,3.5284,3.5522,3.6134,3.713,3.751,3.751,3.751,3.748,3.7315,3.6877,3.6367,3.625,3.692,3.6593,3.6852,3.7583,3.8092,3.8127,3.8052,3.8127,3.8052,3.7606,3.6543,3.5588,3.5236,3.4469,3.4249,3.4663,3.5194,3.5755,3.6329,3.6405,3.6417,3.6417,3.6417,3.6417,3.637,3.6323,3.6051,3.5716,3.5524,3.532,3.503,3.4775,3.4617,3.4617,3.4665,3.4519,3.4519,3.4775,3.4775,3.4775,3.4726,3.4421,3.3808,3.3511,3.325,3.2889,3.2627,3.2476,3.2275,3.1513,3.1062,3.5132,3.5094,3.4917,3.478,3.4666,3.4674,3.4612,3.4517,3.4506,3.4495,3.4443,3.4443,3.4439,3.4386,3.4386,3.4397,3.4475,3.4685,3.5251,3.617,3.6881,3.7606,3.8083,3.8243,3.8293,3.8392,3.8263,3.8048,3.7878,3.7791,3.7632,3.7282,3.7281,3.7185,3.6987,3.6849,3.6612,3.6326,3.5907,3.5487,3.4981,3.4887,3.4642,3.4423,3.4243,3.3942,3.3745,3.372,3.3555,3.3425,3.3545,3.4202,3.5236,3.571,3.6421,3.7257,3.751,3.751,3.751,3.748,3.7255,3.6723,3.618,3.6456,3.6758,3.6585,3.6961,3.7825,3.8202,3.8202,3.8202,3.8202,3.8202,3.8,3.6986,3.6108,3.5561,3.4791,3.4361,3.4813,3.5454,3.5931,3.6304,3.6392,3.6417,3.6417,3.6417,3.6417,3.6417,3.6323,3.6181,3.5908,3.5716,3.5464,3.5126,3.4775,3.4409,3.4421,3.4421,3.4164,3.3906,3.436,3.4775,3.4677,3.4519,3.3659,3.3089,3.2839,3.2839,3.2989,3.2789,3.2123,3.1615,3.1359,3.0805,3.5096,3.4962,3.4811,3.4636,3.4506,3.4495,3.4443,3.4397,3.4386,3.4416,3.4374,3.4393,3.4363,3.4363,3.4351,3.4351,3.4401,3.4596,3.4989,3.5719,3.625,3.7056,3.766,3.7773,3.7756,3.8015,3.7878,3.7685,3.7505,3.7413,3.7319,3.7048,3.693,3.6891,3.6831,3.6509,3.6178,3.5842,3.538,3.4927,3.4333,3.4415,3.4267,3.3984,3.3668,3.345,3.3372,3.3372,3.3309,3.333,3.3877,3.4581,3.5235,3.5941,3.6679,3.7371,3.7405,3.7331,3.7285,3.7255,3.7044,3.6554,3.6054,3.619,3.6586,3.6637,3.7019,3.7694,3.8202,3.8165,3.8127,3.8179,3.8202,3.8,3.7323,3.6425,3.571,3.5064,3.4722,3.4793,3.5554,3.6254,3.6355,3.6417,3.6417,3.6417,3.6417,3.6417,3.6417,3.637,3.6181,3.6003,3.5764,3.5368,3.503,3.4823,3.4458,3.4213,3.4274,3.3967,3.361,3.3857,3.4262,3.4372,3.4066,3.335,3.2839,3.2639,3.2789,3.3139,3.2678,3.1655,3.1359,3.1308,3.0442,3.498,3.4897,3.4641,3.4517,3.4495,3.445,3.4416,3.4397,3.4374,3.4381,3.4335,3.4298,3.4281,3.4257,3.4233,3.4124,3.3963,3.3994,3.4361,3.5124,3.5576,3.6168,3.7142,3.73,3.7299,3.7204,3.7167,3.711,3.7108,3.7068,3.6954,3.6911,3.669,3.6606,3.6426,3.6015,3.5649,3.5357,3.4823,3.4317,3.4059,3.3797,3.3652,3.3529,3.3372,3.3319,3.3266,3.3282,3.3256,3.3275,3.4289,3.4801,3.5123,3.5656,3.6266,3.6916,3.6968,3.6816,3.6785,3.6693,3.6242,3.5655,3.5442,3.5707,3.6204,3.6424,3.699,3.7767,3.8165,3.8052,3.7711,3.8028,3.8165,3.7848,3.7078,3.5975,3.5602,3.5286,3.4823,3.4801,3.5676,3.6417,3.6417,3.6417,3.6417,3.6417,3.6417,3.6417,3.6417,3.637,3.6275,3.6038,3.5777,3.538,3.4932,3.4775,3.4519,3.4213,3.4115,3.3956,3.3659,3.3511,3.3659,3.4164,3.4066,3.3511,3.3051,3.2588,3.2387,3.2538,3.1819,3.1143,3.1103,3.1011,2.9628,3.4961,3.4822,3.4596,3.4461,3.4404,3.4363,3.4328,3.4293,3.4293,3.4281,3.4257,3.4245,3.4233,3.4209,3.4216,3.3967,3.3605,3.3707,3.4147,3.4836,3.5275,3.5942,3.688,3.6948,3.6849,3.671,3.6571,3.6553,3.6673,3.6512,3.6474,3.6392,3.6262,3.6199,3.6054,3.556,3.5174,3.4871,3.4325,3.3857,3.3694,3.3372,3.3319,3.3282,3.3293,3.3293,3.3214,3.2803,3.3022,3.349,3.3729,3.4358,3.4924,3.5187,3.5502,3.6213,3.6134,3.5959,3.5991,3.5943,3.5608,3.5052,3.5141,3.5546,3.5991,3.6374,3.701,3.7786,3.7938,3.7901,3.7938,3.8089,3.8165,3.8089,3.7309,3.6503,3.5913,3.5857,3.5394,3.4949,3.5739,3.6317,3.6417,3.6417,3.6417,3.6417,3.6417,3.6417,3.6417,3.637,3.631,3.5823,3.5404,3.4714,3.4323,3.4213,3.4213,3.4005,3.3857,3.3758,3.3549,3.3312,3.3819,3.4531,3.4176,3.3511,3.2901,3.2336,3.2083,3.1982,3.1869,3.1717,3.1206,3.0494,2.9217,3.4988,3.4773,3.4553,3.4386,3.4323,3.43,3.4245,3.4209,3.4228,3.4197,3.4185,3.4197,3.4197,3.4161,3.4043,3.3765,3.3271,3.3698,3.4233,3.478,3.5426,3.6178,3.6636,3.6667,3.6485,3.6326,3.6028,3.6028,3.6262,3.6139,3.5933,3.595,3.5868,3.5754,3.5599,3.5075,3.4721,3.4301,3.3815,3.3356,3.3091,3.3187,3.316,3.3107,3.3187,3.324,3.3065,3.2544,3.2761,3.3176,3.3306,3.3431,3.4711,3.4493,3.4485,3.5094,3.4898,3.4978,3.5124,3.5204,3.4975,3.4471,3.5005,3.5414,3.5956,3.6507,3.7195,3.7762,3.7839,3.7725,3.7953,3.8127,3.8202,3.8089,3.7758,3.7211,3.6223,3.5759,3.5533,3.5473,3.597,3.6241,3.638,3.6417,3.6417,3.6417,3.6417,3.6417,3.6417,3.6417,3.6216,3.5571,3.4933,3.3993,3.3598,3.3499,3.3499,3.3549,3.3499,3.3449,3.3201,3.2962,3.3621,3.4127,3.3857,3.3201,3.2639,3.2235,3.2235,3.2286,3.2426,3.2123,3.1462,3.039,2.9164,3.4915,3.4763,3.4446,3.4305,3.4281,3.4233,3.4209,3.4197,3.4197,3.4161,3.4124,3.4179,3.4161,3.3999,3.3747,3.3354,3.3219,3.366,3.4252,3.4759,3.551,3.6127,3.6519,3.6544,3.6216,3.5968,3.5633,3.5683,3.5837,3.5842,3.5842,3.5776,3.5549,3.5362,3.5115,3.4634,3.4101,3.3745,3.3113,3.2547,3.2327,3.2834,3.2726,3.2547,3.2753,3.3011,3.2617,3.2219,3.2401,3.2836,3.2745,3.2925,3.3456,3.3459,3.3352,3.365,3.3959,3.4447,3.4562,3.4476,3.4322,3.4043,3.4454,3.5103,3.5843,3.666,3.7224,3.7092,3.738,3.7625,3.7763,3.8014,3.8127,3.7796,3.7285,3.6543,3.5737,3.6062,3.5804,3.5448,3.5764,3.6166,3.6417,3.6417,3.6417,3.6417,3.6417,3.6417,3.6417,3.6417,3.5966,3.5271,3.4422,3.3525,3.2839,3.2739,3.2939,3.3039,3.2989,3.3101,3.335,3.3262,3.2801,3.3112,3.3101,3.2789,3.188,3.1779,3.2235,3.2235,3.1931,3.1728,3.1524,3.0349,2.9016,3.4675,3.4502,3.4363,3.4281,3.4233,3.4173,3.4148,3.4136,3.4093,3.4074,3.4049,3.4074,3.3967,3.3693,3.327,3.2954,3.2985,3.3741,3.4357,3.486,3.5619,3.6261,3.6336,3.6088,3.5744,3.5611,3.5333,3.5171,3.5316,3.5339,3.5339,3.5339,3.5195,3.4984,3.4682,3.4325,3.3832,3.3282,3.2598,3.2117,3.2048,3.2244,3.2299,3.1921,3.2299,3.2272,3.2025,3.1752,3.199,3.2397,3.2231,3.2592,3.3259,3.3212,3.2761,3.3227,3.308,3.3255,3.3451,3.3485,3.3423,3.355,3.4074,3.5032,3.5961,3.655,3.7046,3.7017,3.7134,3.7341,3.761,3.7938,3.8127,3.7886,3.7246,3.6455,3.5994,3.6264,3.6293,3.5891,3.5592,3.6078,3.6417,3.6417,3.6417,3.6417,3.6417,3.6417,3.6417,3.6417,3.5775,3.4933,3.397,3.3017,3.2376,3.1971,3.2387,3.2488,3.2387,3.2689,3.3659,3.3709,3.3101,3.3212,3.3709,3.2951,3.1472,3.1982,3.3101,3.2336,3.1216,3.1319,3.1319,2.9942,2.9164,3.4435,3.4281,3.4269,3.4233,3.4173,3.4124,3.4086,3.4055,3.4023,3.3998,3.3959,3.3895,3.3671,3.3328,3.286,3.2605,3.261,3.3806,3.4325,3.4894,3.5625,3.618,3.6045,3.565,3.5402,3.5264,3.5071,3.4859,3.4715,3.4739,3.4787,3.4899,3.4875,3.4578,3.4243,3.385,3.3361,3.2489,3.2145,3.1807,3.1623,3.1794,3.1751,3.1665,3.1652,3.1668,3.1486,3.1195,3.1541,3.2198,3.1822,3.2125,3.3093,3.2769,3.248,3.2739,3.2588,3.248,3.2668,3.2775,3.2759,3.3242,3.3992,3.5214,3.5928,3.6272,3.647,3.6797,3.6993,3.7226,3.7572,3.7953,3.8127,3.8089,3.7772,3.6929,3.6291,3.6431,3.6341,3.5863,3.5742,3.6179,3.6417,3.6417,3.6417,3.6417,3.6417,3.6417,3.6417,3.6417,3.5823,3.4933,3.3822,3.2817,3.2022,3.1626,3.1931,3.2235,3.2134,3.2387,3.3499,3.3709,3.325,3.356,3.4066,3.3411,3.2134,3.3101,3.3869,3.2387,3.1216,3.1319,3.0908,2.9628,2.9471,3.4281,3.4209,3.4209,3.4173,3.4111,3.4099,3.4061,3.4011,3.3998,3.3947,3.3829,3.3592,3.3317,3.3016,3.2619,3.2301,3.2231,3.339,3.3906,3.4487,3.5214,3.5674,3.5611,3.5447,3.5211,3.4954,3.4763,3.4546,3.4234,3.4093,3.4407,3.4787,3.4407,3.4027,3.3578,3.3119,3.2544,3.1892,3.1652,3.1378,3.1219,3.1306,3.1451,3.0999,3.1205,3.1515,3.1627,3.116,3.1227,3.2249,3.1785,3.1621,3.2478,3.2408,3.2314,3.235,3.235,3.2241,3.2336,3.2544,3.2949,3.3684,3.4544,3.5354,3.5815,3.6178,3.6391,3.651,3.6758,3.7109,3.7495,3.7915,3.8165,3.8014,3.7806,3.7374,3.6686,3.6387,3.6222,3.5783,3.5881,3.6292,3.6417,3.6417,3.6417,3.6417,3.6417,3.6417,3.6417,3.637,3.587,3.5078,3.3822,3.2767,3.1728,3.1626,3.2022,3.2527,3.2739,3.2939,3.3449,3.335,3.3549,3.34,3.3709,3.325,3.3051,3.356,3.3461,3.2033,3.1216,3.1216,3.1268,3.0598,3.0701,3.4221,3.4197,3.4161,3.4124,3.4099,3.4011,3.3959,3.3934,3.3895,3.373,3.3522,3.3166,3.2858,3.2587,3.2249,3.2037,3.2155,3.3139,3.3654,3.4202,3.4822,3.5296,3.527,3.5102,3.4883,3.4505,3.4399,3.4043,3.3475,3.3423,3.3391,3.3521,3.3537,3.3251,3.2772,3.2281,3.1737,3.1437,3.119,3.0851,3.0836,3.0822,3.094,3.0717,3.0924,3.1038,3.1019,3.1288,3.1499,3.1681,3.179,3.1983,3.2137,3.2191,3.2205,3.2205,3.2205,3.2205,3.2246,3.2432,3.2796,3.3765,3.4546,3.5244,3.5655,3.5924,3.5978,3.6165,3.6601,3.6993,3.6889,3.761,3.8127,3.7915,3.7753,3.7568,3.7287,3.6936,3.6674,3.6463,3.6307,3.638,3.6417,3.6417,3.6417,3.6417,3.6417,3.6417,3.6417,3.6417,3.6026,3.5523,3.441,3.3822,3.2878,3.2527,3.2275,3.2778,3.3338,3.3598,3.3857,3.4164,3.4262,3.3906,3.356,3.3411,3.3461,3.3758,3.335,3.2437,3.1626,3.1011,3.1114,3.1216,3.1779,3.4216,3.4185,3.413,3.4074,3.4061,3.3947,3.39,3.3855,3.3815,3.3625,3.3276,3.2876,3.2519,3.2249,3.1983,3.171,3.1975,3.2723,3.3236,3.3746,3.4234,3.4781,3.489,3.4763,3.4423,3.4034,3.3841,3.3527,3.2772,3.2761,3.2501,3.2321,3.2336,3.2213,3.2086,3.148,3.1102,3.0984,3.0821,3.0612,3.0612,3.0642,3.0831,3.0797,3.0922,3.1105,3.119,3.1459,3.1597,3.1777,3.1933,3.2151,3.2205,3.2205,3.2205,3.2205,3.2205,3.2205,3.2273,3.2657,3.3132,3.4147,3.4774,3.5303,3.5588,3.571,3.5764,3.579,3.635,3.6733,3.647,3.7303,3.7877,3.7739,3.8404,3.8359,3.8053,3.774,3.7451,3.7201,3.6873,3.6417,3.6417,3.6417,3.6417,3.6417,3.6417,3.6417,3.6417,3.6417,3.637,3.587,3.521,3.4775,3.4434,3.3636,3.2928,3.3377,3.3895,3.4152,3.447,3.4714,3.4775,3.4372,3.4066,3.3857,3.3967,3.4213,3.3857,3.3262,3.2488,3.1728,3.0949,3.1206,3.2235,3.4216,3.4185,3.4049,3.3985,3.3954,3.3921,3.386,3.3748,3.3721,3.3541,3.3157,3.2603,3.2335,3.2179,3.1856,3.1542,3.1503,3.2341,3.2779,3.2875,3.3736,3.4096,3.4184,3.4134,3.3958,3.3729,3.3371,3.2837,3.2102,3.2046,3.1637,3.1292,3.1321,3.1466,3.1593,3.0999,3.0628,3.0598,3.0612,3.0612,3.0612,3.067,3.0974,3.1141,3.1084,3.1307,3.1744,3.1626,3.1746,3.2015,3.2096,3.2205,3.2205,3.2205,3.2205,3.2205,3.2205,3.2232,3.2291,3.3257,3.403,3.4585,3.5114,3.5574,3.5683,3.571,3.571,3.575,3.6178,3.6431,3.6668,3.7031,3.738,3.7892,3.8534,3.9102,3.8839,3.8239,3.7896,3.7725,3.6996,3.6417,3.6417,3.6417,3.6417,3.6417,3.6417,3.6417,3.6417,3.6417,3.6417,3.6216,3.5715,3.5511,3.503,3.4091,3.3697,3.4091,3.4397,3.4714,3.4763,3.4823,3.4775,3.4677,3.4519,3.4311,3.447,3.4714,3.3967,3.3212,3.3212,3.26,3.1615,3.1359,3.2538,3.4173,3.4093,3.3805,3.3643,3.3616,3.3775,3.3689,3.3451,3.3229,3.2937,3.2669,3.2352,3.2161,3.1912,3.1543,3.1218,3.1291,3.172,3.2118,3.2429,3.3363,3.3864,3.3933,3.3697,3.3465,3.3055,3.2648,3.2142,3.1423,3.1393,3.1146,3.0762,3.0762,3.0821,3.0881,3.0657,3.0612,3.0612,3.0612,3.0612,3.0656,3.0959,3.1308,3.1536,3.1588,3.1859,3.2296,3.1989,3.1974,3.2191,3.2205,3.2205,3.2205,3.2205,3.2205,3.2205,3.2232,3.2603,3.3213,3.407,3.4517,3.4938,3.5343,3.5696,3.571,3.571,3.571,3.5804,3.6058,3.6192,3.6165,3.6758,3.7233,3.7816,3.8546,3.9513,3.9548,3.8711,3.8159,3.81,3.7658,3.6722,3.6417,3.6417,3.6417,3.6417,3.6417,3.6417,3.6417,3.6417,3.6417,3.6405,3.6156,3.6013,3.5619,3.4981,3.469,3.509,3.515,3.5163,3.5163,3.5017,3.4872,3.4726,3.4775,3.4775,3.4775,3.4617,3.3659,3.3062,3.3312,3.3212,3.2286,3.2286,3.3201,3.4005,3.3884,3.3514,3.3317,3.3255,3.339,3.3317,3.3093,3.2763,3.2504,3.2301,3.2038,3.1768,3.1468,3.1123,3.0727,3.0771,3.1569,3.1758,3.2134,3.3088,3.3405,3.3429,3.3266,3.2799,3.2379,3.1949,3.1466,3.1058,3.0895,3.0791,3.0732,3.0628,3.0672,3.0628,3.0642,3.0612,3.0612,3.0612,3.0757,3.0959,3.1322,3.1743,3.2086,3.2298,3.2386,3.2479,3.2398,3.2205,3.2205,3.2205,3.2205,3.2205,3.2205,3.2205,3.2205,3.2504,3.2969,3.3718,3.4395,3.4788,3.5154,3.5507,3.5683,3.571,3.571,3.571,3.5804,3.6018,3.5965,3.5924,3.6547,3.713,3.7711,3.8703,3.9699,4.0259,3.941,3.8681,3.8568,3.7606,3.6871,3.6342,3.6417,3.6417,3.6417,3.6417,3.6417,3.6417,3.6417,3.6417,3.6405,3.6405,3.6263,3.6216,3.6061,3.5978,3.6086,3.5895,3.562,3.538,3.5223,3.503,3.4835,3.4823,3.4775,3.4775,3.4421,3.3918,3.3659,3.3758,3.3449,3.2851,3.3262,3.3918,3.3703,3.3524,3.3214,3.3001,3.2905,3.2761,3.2731,3.2749,3.2403,3.2231,3.2197,3.1395,3.1106,3.1024,3.0645,3.0272,3.0179,3.1207,3.1358,3.1711,3.2619,3.2787,3.2765,3.2586,3.2241,3.1766,3.135,3.1131,3.0836,3.0762,3.0762,3.0732,3.0642,3.0612,3.0612,3.0728,3.0757,3.083,3.0845,3.109,3.1496,3.1758,3.2367,3.2768,3.2805,3.2818,3.2772,3.2583,3.2314,3.2205,3.2205,3.2205,3.2205,3.2205,3.2218,3.2409,3.2816,3.3403,3.3989,3.4626,3.5059,3.5439,3.5642,3.571,3.571,3.571,3.571,3.571,3.5804,3.5804,3.5831,3.6397,3.6978,3.7896,3.8904,3.9824,4.0685,4.0294,3.9488,3.859,3.7232,3.6404,3.6065,3.6103,3.6107,3.6194,3.6254,3.6417,3.6417,3.6417,3.6417,3.6417,3.6417,3.6417,3.6417,3.6417,3.637,3.6275,3.6098,3.5812,3.562,3.538,3.5175,3.503,3.4872,3.4823,3.492,3.4872,3.4677,3.447,3.4201,3.4005,3.356,3.3967,3.4519,3.3317,3.3087,3.2829,3.2636,3.2402,3.186,3.1897,3.2318,3.1751,3.1452,3.1414,3.0908,3.0683,3.0642,3.0187,2.9946,3.0103,3.0442,3.0707,3.1264,3.2111,3.2264,3.2244,3.2076,3.1807,3.1451,3.1087,3.0851,3.0791,3.0717,3.0657,3.0642,3.0642,3.0612,3.0801,3.1018,3.1163,3.1293,3.1293,3.1642,3.2179,3.2556,3.3126,3.3291,3.3169,3.3128,3.3059,3.2588,3.2241,3.2205,3.2205,3.2205,3.2205,3.2232,3.2314,3.287,3.3363,3.3921,3.4504,3.5087,3.5493,3.5642,3.571,3.571,3.571,3.571,3.571,3.571,3.5723,3.5737,3.5954,3.6455,3.7327,3.8415,3.9385,4.0198,4.0906,4.0773,3.9929,3.8657,3.7267,3.6083,3.5772,3.5642,3.5705,3.5855,3.5994,3.6179,3.6367,3.6342,3.6417,3.6417,3.6417,3.6417,3.6417,3.6417,3.6417,3.637,3.6181,3.6003,3.586,3.562,3.538,3.5223,3.5066,3.5017,3.5066,3.5017,3.4969,3.4665,3.4348,3.436,3.4372,3.4677,3.492,3.2954,3.2731,3.2453,3.2144,3.1769,3.13,3.1338,3.1473,3.105,3.0865,3.0808,3.0418,3.0225,3.014,2.9728,2.9441,2.9339,3.0156,3.0505,3.0632,3.1682,3.1822,3.1794,3.1638,3.1437,3.1117,3.0866,3.0702,3.0687,3.0657,3.0612,3.0612,3.0612,3.0786,3.0988,3.1337,3.1799,3.2019,3.2179,3.2367,3.2803,3.3329,3.3532,3.3715,3.3525,3.3318,3.3199,3.2588,3.2241,3.2205,3.2205,3.2205,3.2205,3.2232,3.249,3.302,3.3566,3.4111,3.4694,3.5303,3.5615,3.571,3.571,3.571,3.571,3.571,3.571,3.571,3.5737,3.5805,3.6171,3.6675,3.7882,3.9059,3.9854,4.0654,4.0856,4.0986,4.0022,3.8762,3.7431,3.6064,3.5467,3.5322,3.5194,3.5232,3.5328,3.5416,3.5768,3.6141,3.6292,3.6417,3.6417,3.6417,3.6367,3.6267,3.6279,3.6292,3.631,3.6181,3.6051,3.586,3.5668,3.5464,3.5259,3.5271,3.532,3.532,3.5259,3.4957,3.4848,3.4908,3.492,3.4969,3.5175,3.257,3.242,3.2002,3.1507,3.1083,3.0985,3.0767,3.0456,3.0393,3.0398,3.0335,2.9946,2.9744,2.9677,2.9357,2.899,2.913,2.9815,3.0143,2.9951,3.123,3.1608,3.1365,3.1263,3.1161,3.0807,3.0612,3.0642,3.0612,3.0627,3.0641,3.0656,3.0743,3.1018,3.1569,3.1859,3.2367,3.2904,3.2962,3.305,3.3383,3.3645,3.379,3.4105,3.3756,3.3269,3.3094,3.2682,3.2205,3.2205,3.2205,3.2205,3.2205,3.2232,3.2558,3.3091,3.3664,3.4287,3.487,3.5479,3.5642,3.571,3.571,3.571,3.571,3.571,3.571,3.571,3.5737,3.5995,3.632,3.7071,3.8145,3.9325,4.0221,4.1022,4.1461,4.1026,3.9718,3.8435,3.6947,3.57,3.5126,3.4977,3.4663,3.463,3.4806,3.4868,3.5102,3.5617,3.5793,3.6053,3.5977,3.5843,3.5868,3.5818,3.5968,3.6069,3.6144,3.6147,3.5846,3.5829,3.592,3.5716,3.5512,3.5572,3.5572,3.5608,3.5608,3.556,3.5512,3.5608,3.556,3.5416,3.5464,3.1984,3.1433,3.1007,3.0747,3.0584,3.0251,3.0075,2.9924,2.9566,2.9655,2.9853,2.9499,2.9289,2.9282,2.9144,2.8826,2.8812,2.9506,2.9694,2.9978,3.0839,3.1248,3.0955,3.1073,3.0955,3.0747,3.0612,3.0612,3.0627,3.067,3.0888,3.1221,3.1293,3.1596,3.2266,3.2571,3.3126,3.3605,3.3746,3.379,3.4022,3.4153,3.4293,3.4196,3.377,3.3374,3.3094,3.266,3.2314,3.2205,3.2205,3.2205,3.2205,3.2218,3.2738,3.3487,3.3867,3.449,3.5114,3.5588,3.5683,3.571,3.571,3.571,3.571,3.571,3.571,3.575,3.5899,3.6212,3.677,3.7607,3.8477,3.9605,4.0588,4.1333,4.2007,4.0724,3.9451,3.8033,3.6496,3.564,3.5034,3.4542,3.4218,3.4286,3.4568,3.4693,3.4618,3.4914,3.4876,3.5027,3.5102,3.509,3.5228,3.5353,3.5479,3.5516,3.5495,3.5537,3.5628,3.5759,3.5817,3.5858,3.5764,3.5812,3.586,3.586,3.5908,3.5908,3.5955,3.5991,3.5955,3.5812,3.586,3.1582,3.1184,3.0723,3.0372,3.0161,2.9903,2.97,2.9454,2.9213,2.9236,2.9448,2.9236,2.9114,2.9045,2.8936,2.8677,2.8572,2.9459,2.9412,2.9607,3.0449,3.0822,3.094,3.0955,3.0777,3.0628,3.0612,3.0612,3.067,3.0945,3.1264,3.1553,3.1756,3.228,3.289,3.3358,3.3663,3.3906,3.4269,3.4351,3.438,3.438,3.438,3.4196,3.3908,3.3514,3.3129,3.2717,3.2408,3.2241,3.2205,3.2205,3.23,3.2504,3.3037,3.3691,3.4219,3.4707,3.5411,3.571,3.571,3.571,3.571,3.571,3.5831,3.5911,3.6322,3.6403,3.679,3.7162,3.799,3.8848,3.9591,4.0505,4.1122,4.1724,4.1369,4.0331,3.9507,3.8757,3.7191,3.5652,3.4967,3.4063,3.3781,3.3558,3.3935,3.4048,3.406,3.4211,3.4161,3.4186,3.4349,3.4613,3.4901,3.4939,3.4939,3.4906,3.4881,3.5219,3.5424,3.564,3.5771,3.5852,3.5988,3.6086,3.6133,3.6146,3.6133,3.6181,3.6275,3.6323,3.6241,3.6146,3.6146,3.1278,3.1128,3.0543,3.0097,2.9744,2.9722,2.9454,2.9059,2.9006,2.8982,2.892,2.8897,2.8982,2.8959,2.8685,2.8381,2.8564,2.9483,2.9376,2.9766,3.0772,3.1028,3.0984,3.0866,3.0866,3.0777,3.0672,3.0758,3.0845,3.1177,3.1511,3.1787,3.2338,3.2948,3.3431,3.3692,3.3896,3.4167,3.4366,3.4366,3.438,3.438,3.438,3.4264,3.4025,3.3667,3.3339,3.2917,3.2574,3.2372,3.2241,3.2205,3.2395,3.2694,3.3254,3.3826,3.4423,3.4965,3.552,3.571,3.571,3.571,3.571,3.5831,3.5991,3.648,3.6883,3.7466,3.7876,3.8169,3.9005,3.9683,4.0404,4.0983,4.1472,4.1543,4.0659,3.989,3.9484,3.904,3.7611,3.5964,3.5182,3.4189,3.3581,3.3338,3.3124,3.3124,3.3224,3.3458,3.3583,3.3671,3.3834,3.4148,3.4399,3.4399,3.4286,3.4324,3.4361,3.4806,3.5232,3.5462,3.5737,3.6034,3.6147,3.6213,3.631,3.6323,3.6358,3.6358,3.6358,3.637,3.637,3.6275,3.6323,3.0871,3.0059,2.9589,2.9312,2.922,2.9259,2.899,2.8669,2.8598,2.8439,2.8247,2.8222,2.8415,2.9052,2.8669,2.8568,2.9035,2.9687,3.0278,3.0779,3.1219,3.1303,3.1204,3.1058,3.1321,3.1161,3.0894,3.0932,3.1192,3.1496,3.2092,3.2933,3.3111,3.3572,3.408,3.4225,3.4225,3.438,3.438,3.438,3.438,3.438,3.438,3.423,3.3991,3.3839,3.3563,3.3023,3.2775,3.2574,3.2386,3.2268,3.2504,3.2898,3.3444,3.403,3.4612,3.5114,3.552,3.5803,3.5871,3.575,3.5871,3.6243,3.6663,3.7396,3.8039,3.9063,3.9266,3.8882,3.9441,3.9852,4.0503,4.088,4.1324,4.0633,3.9789,3.9421,3.9073,3.8457,3.7522,3.6688,3.6334,3.5264,3.4118,3.3781,3.3283,3.324,3.3124,3.3124,3.3124,3.3232,3.342,3.3294,3.3382,3.3583,3.3558,3.3621,3.3809,3.4286,3.4743,3.5282,3.5571,3.5843,3.6119,3.6282,3.6367,3.6417,3.6417,3.6405,3.6417,3.6417,3.6417,3.6417,3.6417]}]]